Time,TemperatureF,DewpointF,PressureIn,WindDirection,WindDirectionDegrees,WindSpeedMPH,WindSpeedGustMPH,Humidity,HourlyPrecipIn,Conditions,Clouds,dailyrainin,SoftwareType,DateUTC
2013-02-18 00:00:00,17.4,11.4,30.17,ESE,117,0.0,1.0,77,0.00,,---,0.00,VWS V14.01,2013-02-18 05:00:00,
2013-02-18 00:01:00,17.4,11.4,30.17,ESE,117,0.0,0.0,77,0.00,,---,0.00,VWS V14.01,2013-02-18 05:01:00,
2013-02-18 00:02:00,17.4,11.4,30.17,SSE,152,1.0,2.0,77,0.00,,---,0.00,VWS V14.01,2013-02-18 05:02:00,
2013-02-18 00:03:00,17.4,11.4,30.17,SE,132,0.0,2.0,77,0.00,,---,0.00,VWS V14.01,2013-02-18 05:03:00,
2013-02-18 00:04:00,17.4,11.4,30.17,SE,133,0.0,2.0,77,0.00,,---,0.00,VWS V14.01,2013-02-18 05:04:00,
2013-02-18 00:05:00,17.4,11.4,30.17,ESE,122,0.0,2.0,77,0.00,,---,0.00,VWS V14.01,2013-02-18 05:05:00,
2013-02-18 00:06:00,17.4,11.4,30.17,ESE,121,0.0,0.0,77,0.00,,---,0.00,VWS V14.01,2013-02-18 05:06:00,
2013-02-18 00:07:00,17.4,11.4,30.17,ESE,122,0.0,0.0,77,0.00,,---,0.00,VWS V14.01,2013-02-18 05:07:00,
2013-02-18 00:08:00,17.4,11.4,30.17,SW,222,0.0,0.0,77,0.00,,---,0.00,VWS V14.01,2013-02-18 05:08:00,
2013-02-18 00:09:00,17.4,11.4,30.17,SW,224,0.0,0.0,77,0.00,,---,0.00,VWS V14.01,2013-02-18 05:09:00,
2013-02-18 00:10:00,17.4,11.4,30.17,SE,145,0.0,1.0,77,0.00,,---,0.00,VWS V14.01,2013-02-18 05:10:00,
2013-02-18 00:11:00,17.4,11.4,30.17,SE,145,0.0,0.0,77,0.00,,---,0.00,VWS V14.01,2013-02-18 05:11:00,
2013-02-18 00:12:00,17.4,11.4,30.17,SE,145,0.0,0.0,77,0.00,,---,0.00,VWS V14.01,2013-02-18 05:12:00,
2013-02-18 00:13:00,17.4,11.4,30.17,ESE,111,0.0,1.0,77,0.00,,---,0.00,VWS V14.01,2013-02-18 05:13:00,
2013-02-18 00:14:00,17.4,11.4,30.17,ESE,111,0.0,1.0,77,0.00,,---,0.00,VWS V14.01,2013-02-18 05:14:00,
2013-02-18 00:15:00,17.1,11.0,30.17,SE,135,0.0,1.0,78,0.00,,,0.00,weatherlink.com 1.10,2013-02-18 05:15:00,
2013-02-18 00:16:00,17.4,11.4,30.17,South,188,0.0,0.0,77,0.00,,---,0.00,VWS V14.01,2013-02-18 05:16:00,
2013-02-18 00:17:00,17.4,11.4,30.17,SSE,155,0.0,0.0,77,0.00,,---,0.00,VWS V14.01,2013-02-18 05:17:00,
2013-02-18 00:18:00,17.4,11.4,30.17,SSW,197,0.0,0.0,77,0.00,,---,0.00,VWS V14.01,2013-02-18 05:18:00,
2013-02-18 00:19:00,17.4,11.4,30.17,SSW,205,0.0,0.0,77,0.00,,---,0.00,VWS V14.01,2013-02-18 05:19:00,
2013-02-18 00:20:00,17.4,11.4,30.17,SSW,206,0.0,0.0,77,0.00,,---,0.00,VWS V14.01,2013-02-18 05:20:00,
2013-02-18 00:21:00,17.4,11.4,30.17,South,177,0.0,0.0,77,0.00,,---,0.00,VWS V14.01,2013-02-18 05:21:00,
2013-02-18 00:22:00,17.4,11.4,30.17,South,177,0.0,0.0,77,0.00,,---,0.00,VWS V14.01,2013-02-18 05:22:00,
2013-02-18 00:23:00,17.4,11.4,30.17,South,177,0.0,0.0,77,0.00,,---,0.00,VWS V14.01,2013-02-18 05:23:00,
2013-02-18 00:24:00,17.5,11.5,30.17,SSE,163,0.0,0.0,77,0.00,,---,0.00,VWS V14.01,2013-02-18 05:24:00,
2013-02-18 00:25:00,17.5,11.5,30.17,ESE,116,0.0,0.0,77,0.00,,---,0.00,VWS V14.01,2013-02-18 05:25:00,
2013-02-18 00:26:00,17.5,11.5,30.17,SSE,147,0.0,0.0,77,0.00,,---,0.00,VWS V14.01,2013-02-18 05:26:00,
2013-02-18 00:27:00,17.5,11.5,30.17,SE,146,0.0,0.0,77,0.00,,---,0.00,VWS V14.01,2013-02-18 05:27:00,
2013-02-18 00:28:00,17.5,11.5,30.17,SSE,147,0.0,0.0,77,0.00,,---,0.00,VWS V14.01,2013-02-18 05:28:00,
2013-02-18 00:29:00,17.5,11.5,30.17,SSE,147,0.0,0.0,77,0.00,,---,0.00,VWS V14.01,2013-02-18 05:29:00,
2013-02-18 00:30:00,17.5,11.5,30.17,SSE,147,0.0,0.0,77,0.00,,---,0.00,VWS V14.01,2013-02-18 05:30:00,
2013-02-18 00:31:00,17.5,11.5,30.17,SSE,147,0.0,0.0,77,0.00,,---,0.00,VWS V14.01,2013-02-18 05:31:00,
2013-02-18 00:32:00,17.4,11.0,30.17,ESE,121,0.0,3.0,77,0.00,,,0.00,weatherlink.com 1.10,2013-02-18 05:32:00,
2013-02-18 00:33:00,17.6,11.6,30.17,SE,146,0.0,0.0,77,0.00,,---,0.00,VWS V14.01,2013-02-18 05:33:00,
2013-02-18 00:34:00,17.6,11.6,30.17,SSE,147,0.0,0.0,77,0.00,,---,0.00,VWS V14.01,2013-02-18 05:34:00,
2013-02-18 00:35:00,17.7,11.7,30.17,SSE,147,0.0,0.0,77,0.00,,---,0.00,VWS V14.01,2013-02-18 05:35:00,
2013-02-18 00:36:00,17.7,11.7,30.17,SE,146,0.0,0.0,77,0.00,,---,0.00,VWS V14.01,2013-02-18 05:36:00,
2013-02-18 00:37:00,17.6,11.6,30.17,SE,146,0.0,0.0,77,0.00,,---,0.00,VWS V14.01,2013-02-18 05:37:00,
2013-02-18 00:38:00,17.7,11.7,30.17,SSE,147,0.0,0.0,77,0.00,,---,0.00,VWS V14.01,2013-02-18 05:38:00,
2013-02-18 00:39:00,17.7,11.7,30.17,SE,146,0.0,0.0,77,0.00,,---,0.00,VWS V14.01,2013-02-18 05:39:00,
2013-02-18 00:40:00,17.7,11.7,30.17,SSE,147,0.0,0.0,77,0.00,,---,0.00,VWS V14.01,2013-02-18 05:40:00,
2013-02-18 00:41:00,17.7,11.7,30.17,SE,146,0.0,0.0,77,0.00,,---,0.00,VWS V14.01,2013-02-18 05:41:00,
2013-02-18 00:42:00,17.7,11.7,30.17,SE,146,0.0,0.0,77,0.00,,---,0.00,VWS V14.01,2013-02-18 05:42:00,
2013-02-18 00:43:00,17.7,11.7,30.17,SSE,147,0.0,0.0,77,0.00,,---,0.00,VWS V14.01,2013-02-18 05:43:00,
2013-02-18 00:44:00,17.7,11.7,30.17,SE,146,0.0,0.0,77,0.00,,---,0.00,VWS V14.01,2013-02-18 05:44:00,
2013-02-18 00:45:00,17.7,11.7,30.17,SE,146,0.0,0.0,77,0.00,,---,0.00,VWS V14.01,2013-02-18 05:45:00,
2013-02-18 00:46:00,17.7,11.7,30.17,SE,146,0.0,0.0,77,0.00,,---,0.00,VWS V14.01,2013-02-18 05:46:00,
2013-02-18 00:47:00,17.7,11.7,30.17,SE,146,0.0,0.0,77,0.00,,---,0.00,VWS V14.01,2013-02-18 05:47:00,
2013-02-18 00:48:00,17.7,11.7,30.17,SE,146,0.0,0.0,77,0.00,,---,0.00,VWS V14.01,2013-02-18 05:48:00,
2013-02-18 00:49:00,17.7,11.7,30.17,SE,146,0.0,0.0,77,0.00,,---,0.00,VWS V14.01,2013-02-18 05:49:00,
2013-02-18 00:50:00,17.5,11.0,30.17,ESE,115,0.0,1.0,77,0.00,,,0.00,weatherlink.com 1.10,2013-02-18 05:50:00,
2013-02-18 00:51:00,17.7,11.7,30.17,SE,136,0.0,0.0,77,0.00,,---,0.00,VWS V14.01,2013-02-18 05:51:00,
2013-02-18 00:52:00,17.7,11.7,30.17,SE,136,0.0,0.0,77,0.00,,---,0.00,VWS V14.01,2013-02-18 05:52:00,
2013-02-18 00:53:00,17.8,11.8,30.17,SE,137,0.0,0.0,77,0.00,,---,0.00,VWS V14.01,2013-02-18 05:53:00,
2013-02-18 00:54:00,17.8,11.8,30.17,SE,136,0.0,0.0,77,0.00,,---,0.00,VWS V14.01,2013-02-18 05:54:00,
2013-02-18 00:55:00,17.8,11.8,30.17,ESE,120,0.0,1.0,77,0.00,,---,0.00,VWS V14.01,2013-02-18 05:55:00,
2013-02-18 00:56:00,17.8,11.8,30.17,ESE,120,0.0,0.0,77,0.00,,---,0.00,VWS V14.01,2013-02-18 05:56:00,
2013-02-18 00:57:00,17.8,11.8,30.17,SE,124,0.0,0.0,77,0.00,,---,0.00,VWS V14.01,2013-02-18 05:57:00,
2013-02-18 00:58:00,17.8,11.8,30.17,SE,124,0.0,0.0,77,0.00,,---,0.00,VWS V14.01,2013-02-18 05:58:00,
2013-02-18 00:59:00,17.9,11.9,30.17,SE,124,0.0,0.0,77,0.00,,---,0.00,VWS V14.01,2013-02-18 05:59:00,
2013-02-18 01:00:00,17.9,11.9,30.17,SE,124,0.0,0.0,77,0.00,,---,0.00,VWS V14.01,2013-02-18 06:00:00,
2013-02-18 01:01:00,17.9,11.9,30.17,SE,124,0.0,0.0,77,0.00,,---,0.00,VWS V14.01,2013-02-18 06:01:00,
2013-02-18 01:02:00,17.9,11.9,30.17,SE,124,0.0,0.0,77,0.00,,---,0.00,VWS V14.01,2013-02-18 06:02:00,
2013-02-18 01:03:00,17.9,11.9,30.17,SE,124,0.0,0.0,77,0.00,,---,0.00,VWS V14.01,2013-02-18 06:03:00,
2013-02-18 01:04:00,17.9,11.9,30.17,SE,124,0.0,0.0,77,0.00,,---,0.00,VWS V14.01,2013-02-18 06:04:00,
2013-02-18 01:05:00,18.0,12.0,30.17,SE,125,0.0,0.0,77,0.00,,---,0.00,VWS V14.01,2013-02-18 06:05:00,
2013-02-18 01:06:00,18.0,12.0,30.17,SE,125,0.0,0.0,77,0.00,,---,0.00,VWS V14.01,2013-02-18 06:06:00,
2013-02-18 01:07:00,17.7,12.0,30.17,SE,146,0.0,1.0,77,0.00,,,0.00,weatherlink.com 1.10,2013-02-18 06:07:00,
2013-02-18 01:08:00,18.0,12.0,30.17,SE,138,0.0,0.0,77,0.00,,---,0.00,VWS V14.01,2013-02-18 06:08:00,
2013-02-18 01:09:00,18.1,12.1,30.17,SE,139,0.0,0.0,77,0.00,,---,0.00,VWS V14.01,2013-02-18 06:09:00,
2013-02-18 01:10:00,18.1,12.1,30.17,SE,139,0.0,0.0,77,0.00,,---,0.00,VWS V14.01,2013-02-18 06:10:00,
2013-02-18 01:11:00,18.2,12.2,30.17,SE,139,0.0,0.0,77,0.00,,---,0.00,VWS V14.01,2013-02-18 06:11:00,
2013-02-18 01:12:00,18.2,12.2,30.17,SSW,210,0.0,0.0,77,0.00,,---,0.00,VWS V14.01,2013-02-18 06:12:00,
2013-02-18 01:13:00,18.2,12.2,30.17,SSE,153,0.0,1.0,77,0.00,,---,0.00,VWS V14.01,2013-02-18 06:13:00,
2013-02-18 01:14:00,18.3,12.3,30.17,SSE,153,0.0,1.0,77,0.00,,---,0.00,VWS V14.01,2013-02-18 06:14:00,
2013-02-18 01:15:00,18.3,12.3,30.17,SSE,153,0.0,1.0,77,0.00,,---,0.00,VWS V14.01,2013-02-18 06:15:00,
2013-02-18 01:16:00,18.3,12.3,30.17,SSE,153,0.0,0.0,77,0.00,,---,0.00,VWS V14.01,2013-02-18 06:16:00,
2013-02-18 01:17:00,18.3,12.3,30.17,ESE,121,0.0,0.0,77,0.00,,---,0.00,VWS V14.01,2013-02-18 06:17:00,
2013-02-18 01:18:00,18.4,12.4,30.17,ESE,122,0.0,0.0,77,0.00,,---,0.00,VWS V14.01,2013-02-18 06:18:00,
2013-02-18 01:19:00,18.4,12.4,30.17,ESE,122,0.0,0.0,77,0.00,,---,0.00,VWS V14.01,2013-02-18 06:19:00,
2013-02-18 01:20:00,18.5,12.5,30.17,ESE,123,0.0,0.0,77,0.00,,---,0.00,VWS V14.01,2013-02-18 06:20:00,
2013-02-18 01:21:00,18.5,12.5,30.17,ESE,108,0.0,0.0,77,0.00,,---,0.00,VWS V14.01,2013-02-18 06:21:00,
2013-02-18 01:22:00,18.5,12.5,30.16,ESE,110,0.0,0.0,77,0.00,,---,0.00,VWS V14.01,2013-02-18 06:22:00,
2013-02-18 01:23:00,18.6,12.6,30.16,ESE,120,0.0,0.0,77,0.00,,---,0.00,VWS V14.01,2013-02-18 06:23:00,
2013-02-18 01:24:00,18.6,12.6,30.16,SSE,160,0.0,0.0,77,0.00,,---,0.00,VWS V14.01,2013-02-18 06:24:00,
2013-02-18 01:25:00,17.9,12.0,30.17,SE,124,0.0,1.0,77,0.00,,,0.00,weatherlink.com 1.10,2013-02-18 06:25:00,
2013-02-18 01:26:00,18.7,12.7,30.16,SSE,160,0.0,0.0,77,0.00,,---,0.00,VWS V14.01,2013-02-18 06:26:00,
2013-02-18 01:27:00,18.7,12.7,30.16,SE,125,1.0,2.0,77,0.00,,---,0.00,VWS V14.01,2013-02-18 06:27:00,
2013-02-18 01:28:00,18.8,12.8,30.16,ESE,120,0.0,2.0,77,0.00,,---,0.00,VWS V14.01,2013-02-18 06:28:00,
2013-02-18 01:29:00,18.8,12.8,30.16,ESE,120,0.0,2.0,77,0.00,,---,0.00,VWS V14.01,2013-02-18 06:29:00,
2013-02-18 01:30:00,18.9,12.9,30.16,ESE,120,0.0,2.0,77,0.00,,---,0.00,VWS V14.01,2013-02-18 06:30:00,
2013-02-18 01:31:00,18.9,12.9,30.16,ESE,120,0.0,0.0,77,0.00,,---,0.00,VWS V14.01,2013-02-18 06:31:00,
2013-02-18 01:32:00,18.9,12.9,30.16,ESE,113,0.0,2.0,77,0.00,,---,0.00,VWS V14.01,2013-02-18 06:32:00,
2013-02-18 01:33:00,19.0,13.0,30.16,SE,127,0.0,2.0,77,0.00,,---,0.00,VWS V14.01,2013-02-18 06:33:00,
2013-02-18 01:34:00,19.0,13.0,30.16,ENE,75,0.0,2.0,77,0.00,,---,0.00,VWS V14.01,2013-02-18 06:34:00,
2013-02-18 01:35:00,19.0,13.0,30.16,ESE,114,0.0,1.0,77,0.00,,---,0.00,VWS V14.01,2013-02-18 06:35:00,
2013-02-18 01:36:00,19.1,13.1,30.16,ESE,117,1.0,1.0,77,0.00,,---,0.00,VWS V14.01,2013-02-18 06:36:00,
2013-02-18 01:37:00,19.1,13.1,30.16,ESE,117,0.0,1.0,77,0.00,,---,0.00,VWS V14.01,2013-02-18 06:37:00,
2013-02-18 01:38:00,19.2,13.2,30.15,ESE,117,0.0,1.0,77,0.00,,---,0.00,VWS V14.01,2013-02-18 06:38:00,
2013-02-18 01:39:00,19.2,12.9,30.16,ESE,111,1.0,1.0,76,0.00,,---,0.00,VWS V14.01,2013-02-18 06:39:00,
2013-02-18 01:40:00,19.2,12.9,30.16,SE,129,0.0,1.0,76,0.00,,---,0.00,VWS V14.01,2013-02-18 06:40:00,
2013-02-18 01:41:00,19.2,12.9,30.15,SE,128,0.0,0.0,76,0.00,,---,0.00,VWS V14.01,2013-02-18 06:41:00,
2013-02-18 01:42:00,18.3,12.0,30.17,SSE,153,0.0,1.0,77,0.00,,,0.00,weatherlink.com 1.10,2013-02-18 06:42:00,
2013-02-18 01:43:00,19.2,12.9,30.16,SE,128,0.0,0.0,76,0.00,,---,0.00,VWS V14.01,2013-02-18 06:43:00,
2013-02-18 01:44:00,19.3,13.0,30.16,SE,129,0.0,0.0,76,0.00,,---,0.00,VWS V14.01,2013-02-18 06:44:00,
2013-02-18 01:45:00,19.3,13.0,30.15,SE,128,0.0,0.0,76,0.00,,---,0.00,VWS V14.01,2013-02-18 06:45:00,
2013-02-18 01:46:00,19.3,13.0,30.15,SE,143,0.0,1.0,76,0.00,,---,0.00,VWS V14.01,2013-02-18 06:46:00,
2013-02-18 01:47:00,19.3,13.0,30.16,SSE,149,0.0,1.0,76,0.00,,---,0.00,VWS V14.01,2013-02-18 06:47:00,
2013-02-18 01:48:00,19.3,13.0,30.15,ESE,110,0.0,1.0,76,0.00,,---,0.00,VWS V14.01,2013-02-18 06:48:00,
2013-02-18 01:49:00,19.3,13.0,30.15,SE,139,0.0,1.0,76,0.00,,---,0.00,VWS V14.01,2013-02-18 06:49:00,
2013-02-18 01:50:00,19.3,13.0,30.15,SW,221,0.0,1.0,76,0.00,,---,0.00,VWS V14.01,2013-02-18 06:50:00,
2013-02-18 01:51:00,19.4,13.1,30.15,SW,221,0.0,0.0,76,0.00,,---,0.00,VWS V14.01,2013-02-18 06:51:00,
2013-02-18 01:52:00,19.4,13.1,30.15,SW,221,0.0,0.0,76,0.00,,---,0.00,VWS V14.01,2013-02-18 06:52:00,
2013-02-18 01:53:00,19.4,13.1,30.15,SW,221,0.0,1.0,76,0.00,,---,0.00,VWS V14.01,2013-02-18 06:53:00,
2013-02-18 01:54:00,19.4,13.1,30.15,SW,220,0.0,1.0,76,0.00,,---,0.00,VWS V14.01,2013-02-18 06:54:00,
2013-02-18 01:55:00,19.4,13.1,30.15,East,100,0.0,2.0,76,0.00,,---,0.00,VWS V14.01,2013-02-18 06:55:00,
2013-02-18 01:56:00,19.5,13.2,30.15,ESE,102,0.0,0.0,76,0.00,,---,0.00,VWS V14.01,2013-02-18 06:56:00,
2013-02-18 01:57:00,19.5,13.2,30.15,East,101,0.0,0.0,76,0.00,,---,0.00,VWS V14.01,2013-02-18 06:57:00,
2013-02-18 01:58:00,19.5,13.2,30.15,ESE,102,0.0,0.0,76,0.00,,---,0.00,VWS V14.01,2013-02-18 06:58:00,
2013-02-18 01:59:00,19.5,13.2,30.15,ESE,115,1.0,1.0,76,0.00,,---,0.00,VWS V14.01,2013-02-18 06:59:00,
2013-02-18 02:00:00,18.9,13.0,30.16,SE,127,0.0,2.0,77,0.00,,,0.00,weatherlink.com 1.10,2013-02-18 07:00:00,
2013-02-18 02:01:00,19.6,13.3,30.15,WSW,249,0.0,3.0,76,0.00,,---,0.00,VWS V14.01,2013-02-18 07:01:00,
2013-02-18 02:02:00,19.6,13.3,30.15,WSW,245,0.0,3.0,76,0.00,,---,0.00,VWS V14.01,2013-02-18 07:02:00,
2013-02-18 02:03:00,19.6,13.3,30.15,WSW,245,0.0,3.0,76,0.00,,---,0.00,VWS V14.01,2013-02-18 07:03:00,
2013-02-18 02:04:00,19.6,13.3,30.15,SSW,205,0.0,3.0,76,0.00,,---,0.00,VWS V14.01,2013-02-18 07:04:00,
2013-02-18 02:05:00,19.7,13.4,30.15,SSW,204,0.0,3.0,76,0.00,,---,0.00,VWS V14.01,2013-02-18 07:05:00,
2013-02-18 02:06:00,19.7,13.4,30.15,SSW,204,0.0,0.0,76,0.00,,---,0.00,VWS V14.01,2013-02-18 07:06:00,
2013-02-18 02:07:00,19.7,13.4,30.15,ESE,115,0.0,1.0,76,0.00,,---,0.00,VWS V14.01,2013-02-18 07:07:00,
2013-02-18 02:08:00,19.7,13.4,30.15,WSW,239,1.0,1.0,76,0.00,,---,0.00,VWS V14.01,2013-02-18 07:08:00,
2013-02-18 02:09:00,19.7,13.4,30.15,SW,221,0.0,1.0,76,0.00,,---,0.00,VWS V14.01,2013-02-18 07:09:00,
2013-02-18 02:10:00,19.8,13.5,30.15,SW,219,1.0,1.0,76,0.00,,---,0.00,VWS V14.01,2013-02-18 07:10:00,
2013-02-18 02:11:00,19.8,13.5,30.15,SE,126,0.0,1.0,76,0.00,,---,0.00,VWS V14.01,2013-02-18 07:11:00,
2013-02-18 02:12:00,19.8,13.5,30.15,SW,225,0.0,1.0,76,0.00,,---,0.00,VWS V14.01,2013-02-18 07:12:00,
2013-02-18 02:13:00,19.8,13.5,30.15,SW,225,0.0,1.0,76,0.00,,---,0.00,VWS V14.01,2013-02-18 07:13:00,
2013-02-18 02:14:00,19.9,13.6,30.15,East,96,0.0,1.0,76,0.00,,---,0.00,VWS V14.01,2013-02-18 07:14:00,
2013-02-18 02:15:00,19.9,13.6,30.15,East,96,0.0,1.0,76,0.00,,---,0.00,VWS V14.01,2013-02-18 07:15:00,
2013-02-18 02:16:00,19.3,13.0,30.15,SW,221,0.0,1.0,76,0.00,,,0.00,weatherlink.com 1.10,2013-02-18 07:16:00,
2013-02-18 02:17:00,19.9,13.6,30.15,ESE,119,0.0,0.0,76,0.00,,---,0.00,VWS V14.01,2013-02-18 07:17:00,
2013-02-18 02:18:00,19.9,13.6,30.15,SE,129,0.0,0.0,76,0.00,,---,0.00,VWS V14.01,2013-02-18 07:18:00,
2013-02-18 02:19:00,19.9,13.6,30.15,ESE,121,0.0,0.0,76,0.00,,---,0.00,VWS V14.01,2013-02-18 07:19:00,
2013-02-18 02:20:00,19.9,13.3,30.15,East,84,0.0,1.0,75,0.00,,---,0.00,VWS V14.01,2013-02-18 07:20:00,
2013-02-18 02:21:00,19.9,13.6,30.14,SSE,158,0.0,0.0,76,0.00,,---,0.00,VWS V14.01,2013-02-18 07:21:00,
2013-02-18 02:22:00,19.9,13.3,30.14,SE,143,0.0,1.0,75,0.00,,---,0.00,VWS V14.01,2013-02-18 07:22:00,
2013-02-18 02:23:00,20.0,13.7,30.14,SE,133,0.0,2.0,76,0.00,,---,0.00,VWS V14.01,2013-02-18 07:23:00,
2013-02-18 02:24:00,20.0,13.7,30.14,SE,131,0.0,2.0,76,0.00,,---,0.00,VWS V14.01,2013-02-18 07:24:00,
2013-02-18 02:25:00,20.0,13.7,30.14,ESE,114,0.0,2.0,76,0.00,,---,0.00,VWS V14.01,2013-02-18 07:25:00,
2013-02-18 02:26:00,20.0,13.7,30.14,ESE,104,0.0,1.0,76,0.00,,---,0.00,VWS V14.01,2013-02-18 07:26:00,
2013-02-18 02:27:00,20.1,13.8,30.14,South,191,0.0,1.0,76,0.00,,---,0.00,VWS V14.01,2013-02-18 07:27:00,
2013-02-18 02:28:00,20.1,13.8,30.14,South,190,0.0,1.0,76,0.00,,---,0.00,VWS V14.01,2013-02-18 07:28:00,
2013-02-18 02:29:00,20.1,13.8,30.14,South,183,0.0,2.0,76,0.00,,---,0.00,VWS V14.01,2013-02-18 07:29:00,
2013-02-18 02:30:00,20.1,13.8,30.14,SW,225,1.0,2.0,76,0.00,,---,0.00,VWS V14.01,2013-02-18 07:30:00,
2013-02-18 02:31:00,20.1,13.8,30.14,ESE,106,0.0,1.0,76,0.00,,---,0.00,VWS V14.01,2013-02-18 07:31:00,
2013-02-18 02:32:00,20.1,13.8,30.14,SE,131,0.0,4.0,76,0.00,,---,0.00,VWS V14.01,2013-02-18 07:32:00,
2013-02-18 02:33:00,20.1,13.8,30.14,ESE,120,0.0,4.0,76,0.00,,---,0.00,VWS V14.01,2013-02-18 07:33:00,
2013-02-18 02:34:00,19.7,13.0,30.15,WSW,239,0.0,3.0,76,0.00,,,0.00,weatherlink.com 1.10,2013-02-18 07:34:00,
2013-02-18 02:35:00,20.1,13.8,30.14,ESE,108,2.0,4.0,76,0.00,,---,0.00,VWS V14.01,2013-02-18 07:35:00,
2013-02-18 02:36:00,20.2,13.6,30.14,SE,138,0.0,2.0,75,0.00,,---,0.00,VWS V14.01,2013-02-18 07:36:00,
2013-02-18 02:37:00,20.2,13.9,30.13,ESE,114,0.0,2.0,76,0.00,,---,0.00,VWS V14.01,2013-02-18 07:37:00,
2013-02-18 02:38:00,20.2,13.9,30.13,ESE,114,0.0,2.0,76,0.00,,---,0.00,VWS V14.01,2013-02-18 07:38:00,
2013-02-18 02:39:00,20.2,13.9,30.13,ESE,104,0.0,2.0,76,0.00,,---,0.00,VWS V14.01,2013-02-18 07:39:00,
2013-02-18 02:40:00,20.2,13.9,30.13,SE,124,0.0,2.0,76,0.00,,---,0.00,VWS V14.01,2013-02-18 07:40:00,
2013-02-18 02:41:00,20.2,13.9,30.13,SE,124,0.0,0.0,76,0.00,,---,0.00,VWS V14.01,2013-02-18 07:41:00,
2013-02-18 02:42:00,20.2,13.9,30.13,SE,124,0.0,0.0,76,0.00,,---,0.00,VWS V14.01,2013-02-18 07:42:00,
2013-02-18 02:43:00,20.2,13.9,30.13,SE,124,0.0,0.0,76,0.00,,---,0.00,VWS V14.01,2013-02-18 07:43:00,
2013-02-18 02:44:00,20.1,13.8,30.13,SE,124,0.0,0.0,76,0.00,,---,0.00,VWS V14.01,2013-02-18 07:44:00,
2013-02-18 02:45:00,20.2,13.9,30.13,SE,124,0.0,0.0,76,0.00,,---,0.00,VWS V14.01,2013-02-18 07:45:00,
2013-02-18 02:46:00,20.1,13.8,30.13,ESE,102,0.0,0.0,76,0.00,,---,0.00,VWS V14.01,2013-02-18 07:46:00,
2013-02-18 02:47:00,20.1,13.8,30.13,East,101,0.0,0.0,76,0.00,,---,0.00,VWS V14.01,2013-02-18 07:47:00,
2013-02-18 02:48:00,20.1,13.8,30.13,ESE,117,0.0,0.0,76,0.00,,---,0.00,VWS V14.01,2013-02-18 07:48:00,
2013-02-18 02:49:00,20.1,13.8,30.13,SE,127,0.0,0.0,76,0.00,,---,0.00,VWS V14.01,2013-02-18 07:49:00,
2013-02-18 02:50:00,20.0,14.0,30.14,SE,131,0.0,2.0,76,0.00,,,0.00,weatherlink.com 1.10,2013-02-18 07:50:00,
2013-02-18 02:51:00,20.1,13.8,30.13,SE,127,0.0,0.0,76,0.00,,---,0.00,VWS V14.01,2013-02-18 07:51:00,
2013-02-18 02:52:00,20.1,13.8,30.13,SE,127,0.0,0.0,76,0.00,,---,0.00,VWS V14.01,2013-02-18 07:52:00,
2013-02-18 02:53:00,20.1,13.8,30.13,ESE,120,0.0,1.0,76,0.00,,---,0.00,VWS V14.01,2013-02-18 07:53:00,
2013-02-18 02:54:00,20.1,13.8,30.13,SSE,159,0.0,2.0,76,0.00,,---,0.00,VWS V14.01,2013-02-18 07:54:00,
2013-02-18 02:55:00,20.1,13.8,30.13,SSW,208,0.0,2.0,76,0.00,,---,0.00,VWS V14.01,2013-02-18 07:55:00,
2013-02-18 02:56:00,20.1,13.8,30.13,SSW,208,0.0,0.0,76,0.00,,---,0.00,VWS V14.01,2013-02-18 07:56:00,
2013-02-18 02:57:00,20.1,13.8,30.13,SSW,209,0.0,0.0,76,0.00,,---,0.00,VWS V14.01,2013-02-18 07:57:00,
2013-02-18 02:58:00,20.1,13.8,30.13,SW,228,0.0,1.0,76,0.00,,---,0.00,VWS V14.01,2013-02-18 07:58:00,
2013-02-18 02:59:00,20.1,13.8,30.13,SE,135,0.0,1.0,76,0.00,,---,0.00,VWS V14.01,2013-02-18 07:59:00,
2013-02-18 03:00:00,20.1,13.8,30.13,SE,136,0.0,1.0,76,0.00,,---,0.00,VWS V14.01,2013-02-18 08:00:00,
2013-02-18 03:01:00,20.1,13.8,30.13,East,101,0.0,1.0,76,0.00,,---,0.00,VWS V14.01,2013-02-18 08:01:00,
2013-02-18 03:02:00,20.1,13.8,30.13,South,191,0.0,1.0,76,0.00,,---,0.00,VWS V14.01,2013-02-18 08:02:00,
2013-02-18 03:03:00,20.1,13.8,30.13,ESE,123,0.0,1.0,76,0.00,,---,0.00,VWS V14.01,2013-02-18 08:03:00,
2013-02-18 03:04:00,20.1,13.8,30.13,ESE,114,0.0,1.0,76,0.00,,---,0.00,VWS V14.01,2013-02-18 08:04:00,
2013-02-18 03:05:00,20.1,13.8,30.13,SE,128,0.0,1.0,76,0.00,,---,0.00,VWS V14.01,2013-02-18 08:05:00,
2013-02-18 03:06:00,20.1,13.8,30.13,SE,128,0.0,0.0,76,0.00,,---,0.00,VWS V14.01,2013-02-18 08:06:00,
2013-02-18 03:07:00,20.2,13.9,30.13,SE,128,0.0,0.0,76,0.00,,---,0.00,VWS V14.01,2013-02-18 08:07:00,
2013-02-18 03:08:00,20.2,14.0,30.13,SE,124,0.0,2.0,76,0.00,,,0.00,weatherlink.com 1.10,2013-02-18 08:08:00,
2013-02-18 03:09:00,20.2,13.9,30.13,SW,225,0.0,1.0,76,0.00,,---,0.00,VWS V14.01,2013-02-18 08:09:00,
2013-02-18 03:10:00,20.2,13.9,30.13,SW,224,0.0,1.0,76,0.00,,---,0.00,VWS V14.01,2013-02-18 08:10:00,
2013-02-18 03:11:00,20.2,13.9,30.13,SSE,153,0.0,0.0,76,0.00,,---,0.00,VWS V14.01,2013-02-18 08:11:00,
2013-02-18 03:12:00,20.2,13.9,30.13,SSE,153,0.0,0.0,76,0.00,,---,0.00,VWS V14.01,2013-02-18 08:12:00,
2013-02-18 03:13:00,20.2,13.9,30.13,SSE,153,0.0,0.0,76,0.00,,---,0.00,VWS V14.01,2013-02-18 08:13:00,
2013-02-18 03:14:00,20.2,13.9,30.13,SW,219,0.0,0.0,76,0.00,,---,0.00,VWS V14.01,2013-02-18 08:14:00,
2013-02-18 03:15:00,20.2,13.9,30.13,ESE,116,0.0,1.0,76,0.00,,---,0.00,VWS V14.01,2013-02-18 08:15:00,
2013-02-18 03:16:00,20.3,14.0,30.13,ESE,116,0.0,0.0,76,0.00,,---,0.00,VWS V14.01,2013-02-18 08:16:00,
2013-02-18 03:17:00,20.3,14.0,30.13,ESE,115,1.0,2.0,76,0.00,,---,0.00,VWS V14.01,2013-02-18 08:17:00,
2013-02-18 03:18:00,20.4,14.1,30.13,SE,125,1.0,2.0,76,0.00,,---,0.00,VWS V14.01,2013-02-18 08:18:00,
2013-02-18 03:19:00,20.4,14.1,30.13,ESE,119,0.0,2.0,76,0.00,,---,0.00,VWS V14.01,2013-02-18 08:19:00,
2013-02-18 03:20:00,20.4,14.1,30.13,ESE,105,2.0,2.0,76,0.00,,---,0.00,VWS V14.01,2013-02-18 08:20:00,
2013-02-18 03:21:00,20.4,14.1,30.12,ESE,114,0.0,2.0,76,0.00,,---,0.00,VWS V14.01,2013-02-18 08:21:00,
2013-02-18 03:22:00,20.5,14.1,30.12,ESE,105,0.0,2.0,76,0.00,,---,0.00,VWS V14.01,2013-02-18 08:22:00,
2013-02-18 03:23:00,20.5,14.1,30.12,ESE,118,1.0,3.0,76,0.00,,---,0.00,VWS V14.01,2013-02-18 08:23:00,
2013-02-18 03:24:00,20.5,14.1,30.12,SE,132,0.0,3.0,76,0.00,,---,0.00,VWS V14.01,2013-02-18 08:24:00,
2013-02-18 03:25:00,20.1,14.0,30.13,SE,136,0.0,3.0,76,0.00,,,0.00,weatherlink.com 1.10,2013-02-18 08:25:00,
2013-02-18 03:26:00,20.6,14.2,30.12,SE,131,1.0,1.0,76,0.00,,---,0.00,VWS V14.01,2013-02-18 08:26:00,
2013-02-18 03:27:00,20.6,14.2,30.12,SE,125,3.0,3.0,76,0.00,,---,0.00,VWS V14.01,2013-02-18 08:27:00,
2013-02-18 03:28:00,20.6,14.2,30.12,NE,52,0.0,3.0,76,0.00,,---,0.00,VWS V14.01,2013-02-18 08:28:00,
2013-02-18 03:29:00,20.6,14.2,30.11,SE,125,0.0,3.0,76,0.00,,---,0.00,VWS V14.01,2013-02-18 08:29:00,
2013-02-18 03:30:00,20.6,14.2,30.11,ESE,114,0.0,3.0,76,0.00,,---,0.00,VWS V14.01,2013-02-18 08:30:00,
2013-02-18 03:31:00,20.7,14.4,30.11,SE,128,0.0,3.0,76,0.00,,---,0.00,VWS V14.01,2013-02-18 08:31:00,
2013-02-18 03:32:00,20.7,14.4,30.11,SSE,147,0.0,4.0,76,0.00,,---,0.00,VWS V14.01,2013-02-18 08:32:00,
2013-02-18 03:33:00,20.7,14.4,30.11,SE,134,0.0,4.0,76,0.00,,---,0.00,VWS V14.01,2013-02-18 08:33:00,
2013-02-18 03:34:00,20.7,14.4,30.11,ESE,113,0.0,4.0,76,0.00,,---,0.00,VWS V14.01,2013-02-18 08:34:00,
2013-02-18 03:35:00,20.8,14.4,30.11,ESE,114,0.0,4.0,76,0.00,,---,0.00,VWS V14.01,2013-02-18 08:35:00,
2013-02-18 03:36:00,20.8,14.4,30.11,ESE,120,0.0,4.0,76,0.00,,---,0.00,VWS V14.01,2013-02-18 08:36:00,
2013-02-18 03:37:00,20.8,14.4,30.11,SE,124,1.0,4.0,76,0.00,,---,0.00,VWS V14.01,2013-02-18 08:37:00,
2013-02-18 03:38:00,20.9,14.5,30.11,SE,129,0.0,4.0,76,0.00,,---,0.00,VWS V14.01,2013-02-18 08:38:00,
2013-02-18 03:39:00,20.9,14.5,30.10,SE,146,1.0,4.0,76,0.00,,---,0.00,VWS V14.01,2013-02-18 08:39:00,
2013-02-18 03:40:00,20.9,14.5,30.10,SSE,147,2.0,4.0,76,0.00,,---,0.00,VWS V14.01,2013-02-18 08:40:00,
2013-02-18 03:41:00,21.0,14.6,30.10,SE,135,1.0,4.0,76,0.00,,---,0.00,VWS V14.01,2013-02-18 08:41:00,
2013-02-18 03:42:00,21.0,14.3,30.10,ESE,120,1.0,4.0,75,0.00,,---,0.00,VWS V14.01,2013-02-18 08:42:00,
2013-02-18 03:43:00,20.3,14.0,30.13,East,98,2.0,2.0,76,0.00,,,0.00,weatherlink.com 1.10,2013-02-18 08:43:00,
2013-02-18 03:44:00,21.1,14.4,30.10,ESE,122,0.0,4.0,75,0.00,,---,0.00,VWS V14.01,2013-02-18 08:44:00,
2013-02-18 03:45:00,21.1,14.4,30.10,East,88,2.0,4.0,75,0.00,,---,0.00,VWS V14.01,2013-02-18 08:45:00,
2013-02-18 03:46:00,21.2,14.5,30.10,ESE,117,0.0,1.0,75,0.00,,---,0.00,VWS V14.01,2013-02-18 08:46:00,
2013-02-18 03:47:00,21.2,14.5,30.10,SW,225,0.0,4.0,75,0.00,,---,0.00,VWS V14.01,2013-02-18 08:47:00,
2013-02-18 03:48:00,21.2,14.5,30.10,SE,138,1.0,4.0,75,0.00,,---,0.00,VWS V14.01,2013-02-18 08:48:00,
2013-02-18 03:49:00,21.3,14.6,30.09,East,93,2.0,4.0,75,0.00,,---,0.00,VWS V14.01,2013-02-18 08:49:00,
2013-02-18 03:50:00,21.3,14.6,30.09,ESE,120,0.0,4.0,75,0.00,,---,0.00,VWS V14.01,2013-02-18 08:50:00,
2013-02-18 03:51:00,21.3,14.6,30.09,East,101,1.0,3.0,75,0.00,,---,0.00,VWS V14.01,2013-02-18 08:51:00,
2013-02-18 03:52:00,21.4,14.7,30.09,ESE,110,1.0,6.0,75,0.00,,---,0.00,VWS V14.01,2013-02-18 08:52:00,
2013-02-18 03:53:00,21.4,14.7,30.09,SSW,204,0.0,6.0,75,0.00,,---,0.00,VWS V14.01,2013-02-18 08:53:00,
2013-02-18 03:54:00,21.4,14.7,30.09,ESE,117,0.0,6.0,75,0.00,,---,0.00,VWS V14.01,2013-02-18 08:54:00,
2013-02-18 03:55:00,21.5,14.8,30.09,SW,215,1.0,6.0,75,0.00,,---,0.00,VWS V14.01,2013-02-18 08:55:00,
2013-02-18 03:56:00,21.5,14.8,30.09,East,86,1.0,1.0,75,0.00,,---,0.00,VWS V14.01,2013-02-18 08:56:00,
2013-02-18 03:57:00,21.5,14.8,30.09,ESE,102,1.0,1.0,75,0.00,,---,0.00,VWS V14.01,2013-02-18 08:57:00,
2013-02-18 03:58:00,21.5,14.8,30.09,ESE,105,2.0,5.0,75,0.00,,---,0.00,VWS V14.01,2013-02-18 08:58:00,
2013-02-18 03:59:00,21.5,14.8,30.09,ESE,104,1.0,5.0,75,0.00,,---,0.00,VWS V14.01,2013-02-18 08:59:00,
2013-02-18 04:00:00,21.6,14.6,30.09,SE,136,3.0,5.0,74,0.00,,---,0.00,VWS V14.01,2013-02-18 09:00:00,
2013-02-18 04:01:00,20.8,14.0,30.11,ESE,113,0.0,4.0,76,0.00,,,0.00,weatherlink.com 1.10,2013-02-18 09:01:00,
2013-02-18 04:02:00,21.6,14.6,30.09,SE,133,0.0,3.0,74,0.00,,---,0.00,VWS V14.01,2013-02-18 09:02:00,
2013-02-18 04:03:00,21.6,14.6,30.09,ESE,116,0.0,3.0,74,0.00,,---,0.00,VWS V14.01,2013-02-18 09:03:00,
2013-02-18 04:04:00,21.6,14.6,30.09,SSE,150,0.0,3.0,74,0.00,,---,0.00,VWS V14.01,2013-02-18 09:04:00,
2013-02-18 04:05:00,21.6,14.6,30.09,SE,128,0.0,3.0,74,0.00,,---,0.00,VWS V14.01,2013-02-18 09:05:00,
2013-02-18 04:06:00,21.6,14.6,30.09,ESE,108,0.0,3.0,74,0.00,,---,0.00,VWS V14.01,2013-02-18 09:06:00,
2013-02-18 04:07:00,21.7,14.7,30.09,SE,129,0.0,3.0,74,0.00,,---,0.00,VWS V14.01,2013-02-18 09:07:00,
2013-02-18 04:08:00,21.6,14.6,30.09,ESE,120,2.0,3.0,74,0.00,,---,0.00,VWS V14.01,2013-02-18 09:08:00,
2013-02-18 04:09:00,21.7,14.7,30.09,ESE,121,0.0,3.0,74,0.00,,---,0.00,VWS V14.01,2013-02-18 09:09:00,
2013-02-18 04:10:00,21.7,14.7,30.09,ESE,103,0.0,3.0,74,0.00,,---,0.00,VWS V14.01,2013-02-18 09:10:00,
2013-02-18 04:11:00,21.7,14.7,30.09,SE,136,0.0,1.0,74,0.00,,---,0.00,VWS V14.01,2013-02-18 09:11:00,
2013-02-18 04:12:00,21.7,14.7,30.09,West,269,0.0,2.0,74,0.00,,---,0.00,VWS V14.01,2013-02-18 09:12:00,
2013-02-18 04:13:00,21.7,14.7,30.09,ESE,114,0.0,2.0,74,0.00,,---,0.00,VWS V14.01,2013-02-18 09:13:00,
2013-02-18 04:14:00,21.7,14.7,30.09,West,269,0.0,2.0,74,0.00,,---,0.00,VWS V14.01,2013-02-18 09:14:00,
2013-02-18 04:15:00,21.7,15.0,30.09,South,177,0.0,2.0,75,0.00,,---,0.00,VWS V14.01,2013-02-18 09:15:00,
2013-02-18 04:16:00,21.7,14.7,30.09,ESE,113,0.0,2.0,74,0.00,,---,0.00,VWS V14.01,2013-02-18 09:16:00,
2013-02-18 04:17:00,21.3,15.0,30.09,East,86,1.0,5.0,75,0.00,,,0.00,weatherlink.com 1.10,2013-02-18 09:17:00,
2013-02-18 04:18:00,21.7,14.7,30.09,ESE,110,2.0,2.0,74,0.00,,---,0.00,VWS V14.01,2013-02-18 09:18:00,
2013-02-18 04:19:00,21.7,14.7,30.08,ESE,104,0.0,2.0,74,0.00,,---,0.00,VWS V14.01,2013-02-18 09:19:00,
2013-02-18 04:20:00,21.7,14.7,30.08,ESE,114,0.0,2.0,74,0.00,,---,0.00,VWS V14.01,2013-02-18 09:20:00,
2013-02-18 04:21:00,21.7,15.0,30.08,East,100,0.0,2.0,75,0.00,,---,0.00,VWS V14.01,2013-02-18 09:21:00,
2013-02-18 04:22:00,21.7,15.0,30.08,SE,143,1.0,2.0,75,0.00,,---,0.00,VWS V14.01,2013-02-18 09:22:00,
2013-02-18 04:23:00,21.7,14.7,30.08,WSW,249,1.0,5.0,74,0.00,,---,0.00,VWS V14.01,2013-02-18 09:23:00,
2013-02-18 04:24:00,21.8,14.8,30.08,SE,134,0.0,5.0,74,0.00,,---,0.00,VWS V14.01,2013-02-18 09:24:00,
2013-02-18 04:25:00,21.8,14.8,30.08,SE,143,0.0,5.0,74,0.00,,---,0.00,VWS V14.01,2013-02-18 09:25:00,
2013-02-18 04:26:00,21.8,14.8,30.08,East,98,2.0,2.0,74,0.00,,---,0.00,VWS V14.01,2013-02-18 09:26:00,
2013-02-18 04:27:00,21.8,14.8,30.08,SE,124,0.0,2.0,74,0.00,,---,0.00,VWS V14.01,2013-02-18 09:27:00,
2013-02-18 04:28:00,21.8,14.8,30.08,ESE,111,0.0,2.0,74,0.00,,---,0.00,VWS V14.01,2013-02-18 09:28:00,
2013-02-18 04:29:00,21.9,14.9,30.08,WSW,252,0.0,2.0,74,0.00,,---,0.00,VWS V14.01,2013-02-18 09:29:00,
2013-02-18 04:30:00,21.9,14.9,30.08,ESE,112,1.0,2.0,74,0.00,,---,0.00,VWS V14.01,2013-02-18 09:30:00,
2013-02-18 04:31:00,21.9,14.9,30.08,SE,134,0.0,2.0,74,0.00,,---,0.00,VWS V14.01,2013-02-18 09:31:00,
2013-02-18 04:32:00,21.9,14.9,30.08,ESE,120,1.0,4.0,74,0.00,,---,0.00,VWS V14.01,2013-02-18 09:32:00,
2013-02-18 04:33:00,21.9,14.9,30.08,East,101,0.0,4.0,74,0.00,,---,0.00,VWS V14.01,2013-02-18 09:33:00,
2013-02-18 04:34:00,22.0,15.0,30.08,ESE,102,0.0,4.0,74,0.00,,---,0.00,VWS V14.01,2013-02-18 09:34:00,
2013-02-18 04:35:00,21.7,15.0,30.09,SE,129,0.0,4.0,74,0.00,,,0.00,weatherlink.com 1.10,2013-02-18 09:35:00,
2013-02-18 04:36:00,22.0,15.0,30.07,SE,124,1.0,3.0,74,0.00,,---,0.00,VWS V14.01,2013-02-18 09:36:00,
2013-02-18 04:37:00,22.1,15.1,30.08,ESE,112,0.0,3.0,74,0.00,,---,0.00,VWS V14.01,2013-02-18 09:37:00,
2013-02-18 04:38:00,22.0,15.0,30.08,ESE,121,0.0,3.0,74,0.00,,---,0.00,VWS V14.01,2013-02-18 09:38:00,
2013-02-18 04:39:00,22.1,15.1,30.08,SW,232,0.0,3.0,74,0.00,,---,0.00,VWS V14.01,2013-02-18 09:39:00,
2013-02-18 04:40:00,22.1,15.1,30.08,SE,143,3.0,3.0,74,0.00,,---,0.00,VWS V14.01,2013-02-18 09:40:00,
2013-02-18 04:41:00,22.1,15.1,30.07,ESE,116,0.0,3.0,74,0.00,,---,0.00,VWS V14.01,2013-02-18 09:41:00,
2013-02-18 04:42:00,22.1,15.1,30.08,ESE,116,0.0,3.0,74,0.00,,---,0.00,VWS V14.01,2013-02-18 09:42:00,
2013-02-18 04:43:00,22.2,15.2,30.07,ESE,115,0.0,3.0,74,0.00,,---,0.00,VWS V14.01,2013-02-18 09:43:00,
2013-02-18 04:44:00,22.2,15.2,30.07,SSW,212,1.0,3.0,74,0.00,,---,0.00,VWS V14.01,2013-02-18 09:44:00,
2013-02-18 04:45:00,22.2,15.2,30.07,South,180,0.0,3.0,74,0.00,,---,0.00,VWS V14.01,2013-02-18 09:45:00,
2013-02-18 04:46:00,22.2,15.2,30.07,South,180,0.0,0.0,74,0.00,,---,0.00,VWS V14.01,2013-02-18 09:46:00,
2013-02-18 04:47:00,22.2,15.2,30.07,South,172,0.0,0.0,74,0.00,,---,0.00,VWS V14.01,2013-02-18 09:47:00,
2013-02-18 04:48:00,22.3,15.3,30.07,South,172,0.0,1.0,74,0.00,,---,0.00,VWS V14.01,2013-02-18 09:48:00,
2013-02-18 04:49:00,22.3,15.3,30.07,SE,131,0.0,1.0,74,0.00,,---,0.00,VWS V14.01,2013-02-18 09:49:00,
2013-02-18 04:50:00,22.3,15.3,30.07,ESE,113,1.0,1.0,74,0.00,,---,0.00,VWS V14.01,2013-02-18 09:50:00,
2013-02-18 04:51:00,21.8,15.0,30.08,South,177,0.0,6.0,74,0.00,,,0.00,weatherlink.com 1.10,2013-02-18 09:51:00,
2013-02-18 04:52:00,22.4,15.4,30.07,SE,124,0.0,1.0,74,0.00,,---,0.00,VWS V14.01,2013-02-18 09:52:00,
2013-02-18 04:53:00,22.4,15.4,30.07,SSE,147,0.0,2.0,74,0.00,,---,0.00,VWS V14.01,2013-02-18 09:53:00,
2013-02-18 04:54:00,22.4,15.4,30.07,ESE,120,1.0,2.0,74,0.00,,---,0.00,VWS V14.01,2013-02-18 09:54:00,
2013-02-18 04:55:00,22.5,15.5,30.07,East,80,0.0,2.0,74,0.00,,---,0.00,VWS V14.01,2013-02-18 09:55:00,
2013-02-18 04:56:00,22.5,15.5,30.07,East,90,2.0,5.0,74,0.00,,---,0.00,VWS V14.01,2013-02-18 09:56:00,
2013-02-18 04:57:00,22.5,15.2,30.07,ESE,122,0.0,5.0,73,0.00,,---,0.00,VWS V14.01,2013-02-18 09:57:00,
2013-02-18 04:58:00,22.5,15.2,30.07,ENE,72,0.0,5.0,73,0.00,,---,0.00,VWS V14.01,2013-02-18 09:58:00,
2013-02-18 04:59:00,22.6,15.3,30.07,ESE,121,1.0,5.0,73,0.00,,---,0.00,VWS V14.01,2013-02-18 09:59:00,
2013-02-18 05:00:00,22.6,15.3,30.07,ESE,113,0.0,5.0,73,0.00,,---,0.00,VWS V14.01,2013-02-18 10:00:00,
2013-02-18 05:01:00,22.6,15.6,30.06,SE,124,1.0,2.0,74,0.00,,---,0.00,VWS V14.01,2013-02-18 10:01:00,
2013-02-18 05:02:00,22.6,15.3,30.06,SE,129,0.0,2.0,73,0.00,,---,0.00,VWS V14.01,2013-02-18 10:02:00,
2013-02-18 05:03:00,22.6,15.3,30.06,ESE,118,0.0,2.0,73,0.00,,---,0.00,VWS V14.01,2013-02-18 10:03:00,
2013-02-18 05:04:00,22.7,15.4,30.06,ESE,114,0.0,2.0,73,0.00,,---,0.00,VWS V14.01,2013-02-18 10:04:00,
2013-02-18 05:05:00,22.7,15.4,30.06,SE,126,4.0,4.0,73,0.00,,---,0.00,VWS V14.01,2013-02-18 10:05:00,
2013-02-18 05:06:00,22.7,15.4,30.06,ESE,115,0.0,4.0,73,0.00,,---,0.00,VWS V14.01,2013-02-18 10:06:00,
2013-02-18 05:07:00,22.7,15.4,30.06,West,280,0.0,4.0,73,0.00,,---,0.00,VWS V14.01,2013-02-18 10:07:00,
2013-02-18 05:08:00,22.7,15.4,30.06,ESE,120,0.0,4.0,73,0.00,,---,0.00,VWS V14.01,2013-02-18 10:08:00,
2013-02-18 05:09:00,22.2,15.0,30.08,ESE,115,0.0,4.0,74,0.00,,,0.00,weatherlink.com 1.10,2013-02-18 10:09:00,
2013-02-18 05:10:00,22.8,15.5,30.06,SSE,152,0.0,4.0,73,0.00,,---,0.00,VWS V14.01,2013-02-18 10:10:00,
2013-02-18 05:11:00,22.8,15.5,30.06,ESE,106,1.0,1.0,73,0.00,,---,0.00,VWS V14.01,2013-02-18 10:11:00,
2013-02-18 05:12:00,22.8,15.5,30.06,East,83,1.0,2.0,73,0.00,,---,0.00,VWS V14.01,2013-02-18 10:12:00,
2013-02-18 05:13:00,22.8,15.1,30.06,SE,128,0.0,3.0,72,0.00,,---,0.00,VWS V14.01,2013-02-18 10:13:00,
2013-02-18 05:14:00,22.9,15.2,30.06,East,96,1.0,3.0,72,0.00,,---,0.00,VWS V14.01,2013-02-18 10:14:00,
2013-02-18 05:15:00,22.9,15.2,30.05,SSE,156,0.0,3.0,72,0.00,,---,0.00,VWS V14.01,2013-02-18 10:15:00,
2013-02-18 05:16:00,22.9,15.2,30.05,SE,127,0.0,0.0,72,0.00,,---,0.00,VWS V14.01,2013-02-18 10:16:00,
2013-02-18 05:17:00,22.9,15.2,30.05,SE,124,0.0,1.0,72,0.00,,---,0.00,VWS V14.01,2013-02-18 10:17:00,
2013-02-18 05:18:00,22.9,15.2,30.05,ESE,110,0.0,2.0,72,0.00,,---,0.00,VWS V14.01,2013-02-18 10:18:00,
2013-02-18 05:19:00,22.9,15.2,30.05,SW,232,0.0,2.0,72,0.00,,---,0.00,VWS V14.01,2013-02-18 10:19:00,
2013-02-18 05:20:00,22.9,15.2,30.05,East,98,1.0,4.0,72,0.00,,---,0.00,VWS V14.01,2013-02-18 10:20:00,
2013-02-18 05:21:00,23.0,15.3,30.05,SSE,167,3.0,3.0,72,0.00,,---,0.00,VWS V14.01,2013-02-18 10:21:00,
2013-02-18 05:22:00,23.0,15.3,30.05,SSW,193,0.0,3.0,72,0.00,,---,0.00,VWS V14.01,2013-02-18 10:22:00,
2013-02-18 05:23:00,23.0,15.0,30.05,ENE,78,0.0,5.0,71,0.00,,---,0.00,VWS V14.01,2013-02-18 10:23:00,
2013-02-18 05:24:00,23.1,15.4,30.05,SE,128,1.0,5.0,72,0.00,,---,0.00,VWS V14.01,2013-02-18 10:24:00,
2013-02-18 05:25:00,23.1,15.4,30.05,ESE,112,2.0,5.0,72,0.00,,---,0.00,VWS V14.01,2013-02-18 10:25:00,
2013-02-18 05:26:00,22.6,15.0,30.07,ESE,113,0.0,5.0,73,0.00,,,0.00,weatherlink.com 1.10,2013-02-18 10:26:00,
2013-02-18 05:27:00,23.1,15.1,30.05,SSE,157,2.0,5.0,71,0.00,,---,0.00,VWS V14.01,2013-02-18 10:27:00,
2013-02-18 05:28:00,23.2,15.2,30.05,ESE,110,0.0,5.0,71,0.00,,---,0.00,VWS V14.01,2013-02-18 10:28:00,
2013-02-18 05:29:00,23.2,15.2,30.05,SE,125,2.0,5.0,71,0.00,,---,0.00,VWS V14.01,2013-02-18 10:29:00,
2013-02-18 05:30:00,23.2,15.2,30.05,ESE,104,2.0,7.0,71,0.00,,---,0.00,VWS V14.01,2013-02-18 10:30:00,
2013-02-18 05:31:00,23.2,15.2,30.04,SE,139,0.0,2.0,71,0.00,,---,0.00,VWS V14.01,2013-02-18 10:31:00,
2013-02-18 05:32:00,23.2,15.2,30.04,ESE,117,1.0,2.0,71,0.00,,---,0.00,VWS V14.01,2013-02-18 10:32:00,
2013-02-18 05:33:00,23.2,15.2,30.04,ESE,114,5.0,5.0,71,0.00,,---,0.00,VWS V14.01,2013-02-18 10:33:00,
2013-02-18 05:34:00,23.2,15.2,30.04,East,84,1.0,5.0,71,0.00,,---,0.00,VWS V14.01,2013-02-18 10:34:00,
2013-02-18 05:35:00,23.3,15.3,30.04,East,84,4.0,5.0,71,0.00,,---,0.00,VWS V14.01,2013-02-18 10:35:00,
2013-02-18 05:36:00,23.3,15.3,30.04,SE,133,3.0,4.0,71,0.00,,---,0.00,VWS V14.01,2013-02-18 10:36:00,
2013-02-18 05:37:00,23.3,15.3,30.04,ESE,123,1.0,4.0,71,0.00,,---,0.00,VWS V14.01,2013-02-18 10:37:00,
2013-02-18 05:38:00,23.3,15.3,30.04,South,179,1.0,4.0,71,0.00,,---,0.00,VWS V14.01,2013-02-18 10:38:00,
2013-02-18 05:39:00,23.4,15.4,30.04,East,80,1.0,5.0,71,0.00,,---,0.00,VWS V14.01,2013-02-18 10:39:00,
2013-02-18 05:40:00,23.4,15.4,30.03,SE,129,1.0,5.0,71,0.00,,---,0.00,VWS V14.01,2013-02-18 10:40:00,
2013-02-18 05:41:00,23.4,15.4,30.03,SE,127,1.0,2.0,71,0.00,,---,0.00,VWS V14.01,2013-02-18 10:41:00,
2013-02-18 05:42:00,23.4,15.4,30.03,ENE,71,0.0,3.0,71,0.00,,---,0.00,VWS V14.01,2013-02-18 10:42:00,
2013-02-18 05:43:00,23.4,15.4,30.03,SE,128,0.0,3.0,71,0.00,,---,0.00,VWS V14.01,2013-02-18 10:43:00,
2013-02-18 05:44:00,22.9,15.0,30.05,ESE,105,0.0,3.0,72,0.00,,,0.00,weatherlink.com 1.10,2013-02-18 10:44:00,
2013-02-18 05:45:00,23.4,15.4,30.03,South,184,0.0,3.0,71,0.00,,---,0.00,VWS V14.01,2013-02-18 10:45:00,
2013-02-18 05:46:00,23.4,15.4,30.03,ESE,109,7.0,7.0,71,0.00,,---,0.00,VWS V14.01,2013-02-18 10:46:00,
2013-02-18 05:47:00,23.4,15.1,30.03,SE,136,0.0,7.0,70,0.00,,---,0.00,VWS V14.01,2013-02-18 10:47:00,
2013-02-18 05:48:00,23.4,15.1,30.03,ESE,103,1.0,7.0,70,0.00,,---,0.00,VWS V14.01,2013-02-18 10:48:00,
2013-02-18 05:49:00,23.4,15.1,30.03,ESE,110,0.0,7.0,70,0.00,,---,0.00,VWS V14.01,2013-02-18 10:49:00,
2013-02-18 05:50:00,23.4,15.4,30.03,ESE,105,0.0,0.0,71,0.00,,---,0.00,VWS V14.01,2013-02-18 10:50:00,
2013-02-18 05:51:00,23.4,15.4,30.03,ESE,116,0.0,0.0,71,0.00,,---,0.00,VWS V14.01,2013-02-18 10:51:00,
2013-02-18 05:52:00,23.4,15.4,30.03,SSW,198,0.0,0.0,71,0.00,,---,0.00,VWS V14.01,2013-02-18 10:52:00,
2013-02-18 05:53:00,23.4,15.4,30.03,ENE,67,1.0,3.0,71,0.00,,---,0.00,VWS V14.01,2013-02-18 10:53:00,
2013-02-18 05:54:00,23.4,15.1,30.03,SSE,155,2.0,3.0,70,0.00,,---,0.00,VWS V14.01,2013-02-18 10:54:00,
2013-02-18 05:55:00,23.4,15.1,30.03,SE,135,0.0,3.0,70,0.00,,---,0.00,VWS V14.01,2013-02-18 10:55:00,
2013-02-18 05:56:00,23.4,15.1,30.03,South,184,3.0,5.0,70,0.00,,---,0.00,VWS V14.01,2013-02-18 10:56:00,
2013-02-18 05:57:00,23.4,15.1,30.03,ENE,77,3.0,5.0,70,0.00,,---,0.00,VWS V14.01,2013-02-18 10:57:00,
2013-02-18 05:58:00,23.4,15.1,30.02,ESE,105,4.0,6.0,70,0.00,,---,0.00,VWS V14.01,2013-02-18 10:58:00,
2013-02-18 05:59:00,23.4,15.1,30.03,ESE,113,3.0,6.0,70,0.00,,---,0.00,VWS V14.01,2013-02-18 10:59:00,
2013-02-18 06:00:00,23.4,15.1,30.02,East,91,1.0,6.0,70,0.00,,---,0.00,VWS V14.01,2013-02-18 11:00:00,
2013-02-18 06:01:00,23.3,15.0,30.04,ESE,122,3.0,7.0,71,0.00,,,0.00,weatherlink.com 1.10,2013-02-18 11:01:00,
2013-02-18 06:02:00,23.4,15.1,30.02,East,92,2.0,3.0,70,0.00,,---,0.00,VWS V14.01,2013-02-18 11:02:00,
2013-02-18 06:03:00,23.4,15.1,30.02,East,91,2.0,4.0,70,0.00,,---,0.00,VWS V14.01,2013-02-18 11:03:00,
2013-02-18 06:04:00,23.4,15.1,30.02,ESE,105,1.0,4.0,70,0.00,,---,0.00,VWS V14.01,2013-02-18 11:04:00,
2013-02-18 06:05:00,23.5,15.2,30.02,SE,131,1.0,4.0,70,0.00,,---,0.00,VWS V14.01,2013-02-18 11:05:00,
2013-02-18 06:06:00,23.4,15.1,30.02,SE,127,0.0,1.0,70,0.00,,---,0.00,VWS V14.01,2013-02-18 11:06:00,
2013-02-18 06:07:00,23.4,15.1,30.02,SW,232,1.0,4.0,70,0.00,,---,0.00,VWS V14.01,2013-02-18 11:07:00,
2013-02-18 06:08:00,23.4,15.1,30.02,SE,124,3.0,4.0,70,0.00,,---,0.00,VWS V14.01,2013-02-18 11:08:00,
2013-02-18 06:09:00,23.4,15.1,30.02,East,87,3.0,4.0,70,0.00,,---,0.00,VWS V14.01,2013-02-18 11:09:00,
2013-02-18 06:10:00,23.4,15.1,30.02,ESE,110,4.0,4.0,70,0.00,,---,0.00,VWS V14.01,2013-02-18 11:10:00,
2013-02-18 06:11:00,23.4,15.1,30.02,WSW,240,0.0,4.0,70,0.00,,---,0.00,VWS V14.01,2013-02-18 11:11:00,
2013-02-18 06:12:00,23.4,15.1,30.02,East,81,0.0,2.0,70,0.00,,---,0.00,VWS V14.01,2013-02-18 11:12:00,
2013-02-18 06:13:00,23.4,15.4,30.01,ESE,113,0.0,2.0,71,0.00,,---,0.00,VWS V14.01,2013-02-18 11:13:00,
2013-02-18 06:14:00,23.4,15.4,30.01,East,96,3.0,3.0,71,0.00,,---,0.00,VWS V14.01,2013-02-18 11:14:00,
2013-02-18 06:15:00,23.4,15.1,30.01,ESE,120,0.0,3.0,70,0.00,,---,0.00,VWS V14.01,2013-02-18 11:15:00,
2013-02-18 06:16:00,23.4,15.1,30.01,East,98,1.0,1.0,70,0.00,,---,0.00,VWS V14.01,2013-02-18 11:16:00,
2013-02-18 06:17:00,23.4,15.4,30.01,ESE,120,0.0,3.0,71,0.00,,---,0.00,VWS V14.01,2013-02-18 11:17:00,
2013-02-18 06:18:00,23.4,15.0,30.03,East,98,0.0,7.0,71,0.00,,,0.00,weatherlink.com 1.10,2013-02-18 11:18:00,
2013-02-18 06:19:00,23.4,15.1,30.01,East,82,0.0,5.0,70,0.00,,---,0.00,VWS V14.01,2013-02-18 11:19:00,
2013-02-18 06:20:00,23.4,15.1,30.01,SSE,148,0.0,5.0,70,0.00,,---,0.00,VWS V14.01,2013-02-18 11:20:00,
2013-02-18 06:21:00,23.4,15.1,30.01,ESE,104,1.0,4.0,70,0.00,,---,0.00,VWS V14.01,2013-02-18 11:21:00,
2013-02-18 06:22:00,23.4,15.1,30.01,ESE,112,2.0,4.0,70,0.00,,---,0.00,VWS V14.01,2013-02-18 11:22:00,
2013-02-18 06:23:00,23.4,15.1,30.01,East,83,0.0,4.0,70,0.00,,---,0.00,VWS V14.01,2013-02-18 11:23:00,
2013-02-18 06:24:00,23.4,15.1,30.01,SE,126,0.0,4.0,70,0.00,,---,0.00,VWS V14.01,2013-02-18 11:24:00,
2013-02-18 06:25:00,23.4,15.1,30.01,ESE,109,2.0,4.0,70,0.00,,---,0.00,VWS V14.01,2013-02-18 11:25:00,
2013-02-18 06:26:00,23.4,15.4,30.00,East,95,3.0,4.0,71,0.00,,---,0.00,VWS V14.01,2013-02-18 11:26:00,
2013-02-18 06:27:00,23.4,15.1,30.00,ESE,112,0.0,4.0,70,0.00,,---,0.00,VWS V14.01,2013-02-18 11:27:00,
2013-02-18 06:28:00,23.4,15.4,30.00,ESE,113,0.0,4.0,71,0.00,,---,0.00,VWS V14.01,2013-02-18 11:28:00,
2013-02-18 06:29:00,23.4,15.4,30.00,ESE,107,4.0,4.0,71,0.00,,---,0.00,VWS V14.01,2013-02-18 11:29:00,
2013-02-18 06:30:00,23.4,15.1,30.00,East,98,2.0,4.0,70,0.00,,---,0.00,VWS V14.01,2013-02-18 11:30:00,
2013-02-18 06:31:00,23.4,15.1,30.00,SE,136,0.0,3.0,70,0.00,,---,0.00,VWS V14.01,2013-02-18 11:31:00,
2013-02-18 06:32:00,23.4,15.1,30.00,East,100,0.0,3.0,70,0.00,,---,0.00,VWS V14.01,2013-02-18 11:32:00,
2013-02-18 06:33:00,23.3,15.3,30.00,ESE,108,1.0,3.0,71,0.00,,---,0.00,VWS V14.01,2013-02-18 11:33:00,
2013-02-18 06:34:00,23.3,15.3,30.00,East,99,2.0,3.0,71,0.00,,---,0.00,VWS V14.01,2013-02-18 11:34:00,
2013-02-18 06:35:00,23.3,15.0,30.00,ESE,111,4.0,4.0,70,0.00,,---,0.00,VWS V14.01,2013-02-18 11:35:00,
2013-02-18 06:36:00,23.3,15.0,30.00,ESE,114,3.0,3.0,70,0.00,,---,0.00,VWS V14.01,2013-02-18 11:36:00,
2013-02-18 06:37:00,23.4,15.0,30.02,WSW,240,0.0,5.0,70,0.00,,,0.00,weatherlink.com 1.10,2013-02-18 11:37:00,
2013-02-18 06:38:00,23.2,15.2,29.99,SE,141,3.0,3.0,71,0.00,,---,0.00,VWS V14.01,2013-02-18 11:38:00,
2013-02-18 06:39:00,23.2,14.9,29.99,ESE,121,2.0,3.0,70,0.00,,---,0.00,VWS V14.01,2013-02-18 11:39:00,
2013-02-18 06:40:00,23.2,14.9,29.99,ESE,106,4.0,5.0,70,0.00,,---,0.00,VWS V14.01,2013-02-18 11:40:00,
2013-02-18 06:41:00,23.2,14.9,29.99,ESE,108,2.0,4.0,70,0.00,,---,0.00,VWS V14.01,2013-02-18 11:41:00,
2013-02-18 06:42:00,23.3,15.0,29.99,SSE,152,1.0,4.0,70,0.00,,---,0.00,VWS V14.01,2013-02-18 11:42:00,
2013-02-18 06:43:00,23.2,14.9,29.99,ESE,110,0.0,4.0,70,0.00,,---,0.00,VWS V14.01,2013-02-18 11:43:00,
2013-02-18 06:44:00,23.2,14.9,29.99,East,101,3.0,4.0,70,0.00,,---,0.00,VWS V14.01,2013-02-18 11:44:00,
2013-02-18 06:45:00,23.2,14.9,29.99,East,98,2.0,4.0,70,0.00,,---,0.00,VWS V14.01,2013-02-18 11:45:00,
2013-02-18 06:46:00,23.2,14.9,29.99,East,98,3.0,5.0,70,0.00,,---,0.00,VWS V14.01,2013-02-18 11:46:00,
2013-02-18 06:47:00,23.2,14.9,29.99,SSE,149,3.0,5.0,70,0.00,,---,0.00,VWS V14.01,2013-02-18 11:47:00,
2013-02-18 06:48:00,23.2,14.9,29.99,East,79,3.0,6.0,70,0.00,,---,0.00,VWS V14.01,2013-02-18 11:48:00,
2013-02-18 06:49:00,23.3,15.0,29.99,SE,127,1.0,6.0,70,0.00,,---,0.00,VWS V14.01,2013-02-18 11:49:00,
2013-02-18 06:50:00,23.3,15.0,29.99,SSE,152,0.0,6.0,70,0.00,,---,0.00,VWS V14.01,2013-02-18 11:50:00,
2013-02-18 06:51:00,23.3,15.0,29.99,SW,217,0.0,0.0,70,0.00,,---,0.00,VWS V14.01,2013-02-18 11:51:00,
2013-02-18 06:52:00,23.4,15.0,30.00,SSE,149,1.0,5.0,71,0.00,,,0.00,weatherlink.com 1.10,2013-02-18 11:52:00,
2013-02-18 06:53:00,23.2,14.9,29.99,NE,53,1.0,9.0,70,0.00,,---,0.00,VWS V14.01,2013-02-18 11:53:00,
2013-02-18 06:54:00,23.2,14.9,29.98,East,92,2.0,9.0,70,0.00,,---,0.00,VWS V14.01,2013-02-18 11:54:00,
2013-02-18 06:55:00,23.2,14.9,29.98,NE,50,1.0,9.0,70,0.00,,---,0.00,VWS V14.01,2013-02-18 11:55:00,
2013-02-18 06:56:00,23.2,14.9,29.99,East,84,0.0,4.0,70,0.00,,---,0.00,VWS V14.01,2013-02-18 11:56:00,
2013-02-18 06:57:00,23.2,15.2,29.99,WSW,252,1.0,4.0,71,0.00,,---,0.00,VWS V14.01,2013-02-18 11:57:00,
2013-02-18 06:58:00,23.2,14.9,29.99,ESE,114,0.0,4.0,70,0.00,,---,0.00,VWS V14.01,2013-02-18 11:58:00,
2013-02-18 06:59:00,23.2,14.9,29.99,East,84,4.0,4.0,70,0.00,,---,0.00,VWS V14.01,2013-02-18 11:59:00,
2013-02-18 07:00:00,23.2,14.9,29.99,SSE,152,4.0,6.0,70,0.00,,---,0.00,VWS V14.01,2013-02-18 12:00:00,
2013-02-18 07:01:00,23.2,14.9,29.99,ESE,120,2.0,4.0,70,0.00,,---,0.00,VWS V14.01,2013-02-18 12:01:00,
2013-02-18 07:02:00,23.2,14.9,29.99,ESE,111,0.0,4.0,70,0.00,,---,0.00,VWS V14.01,2013-02-18 12:02:00,
2013-02-18 07:03:00,23.2,15.2,29.99,East,100,4.0,4.0,71,0.00,,---,0.00,VWS V14.01,2013-02-18 12:03:00,
2013-02-18 07:04:00,23.2,15.2,29.98,SE,143,0.0,4.0,71,0.00,,---,0.00,VWS V14.01,2013-02-18 12:04:00,
2013-02-18 07:05:00,23.1,14.8,29.99,ESE,102,4.0,4.0,70,0.00,,---,0.00,VWS V14.01,2013-02-18 12:05:00,
2013-02-18 07:06:00,23.1,15.1,29.99,ESE,107,3.0,6.0,71,0.00,,---,0.00,VWS V14.01,2013-02-18 12:06:00,
2013-02-18 07:07:00,23.1,15.1,29.98,SSE,153,1.0,6.0,71,0.00,,---,0.00,VWS V14.01,2013-02-18 12:07:00,
2013-02-18 07:08:00,23.1,15.1,29.99,SSE,152,0.0,6.0,71,0.00,,---,0.00,VWS V14.01,2013-02-18 12:08:00,
2013-02-18 07:09:00,23.1,15.1,29.98,East,99,3.0,6.0,71,0.00,,---,0.00,VWS V14.01,2013-02-18 12:09:00,
2013-02-18 07:10:00,23.2,15.0,29.99,ESE,106,3.0,4.0,70,0.00,,,0.00,weatherlink.com 1.10,2013-02-18 12:10:00,
2013-02-18 07:11:00,23.1,15.1,29.98,ESE,117,1.0,1.0,71,0.00,,---,0.00,VWS V14.01,2013-02-18 12:11:00,
2013-02-18 07:12:00,23.1,15.1,29.98,East,91,5.0,5.0,71,0.00,,---,0.00,VWS V14.01,2013-02-18 12:12:00,
2013-02-18 07:13:00,23.1,15.1,29.98,East,81,0.0,5.0,71,0.00,,---,0.00,VWS V14.01,2013-02-18 12:13:00,
2013-02-18 07:14:00,23.0,15.0,29.98,SE,143,0.0,5.0,71,0.00,,---,0.00,VWS V14.01,2013-02-18 12:14:00,
2013-02-18 07:15:00,23.0,15.0,29.98,East,87,3.0,5.0,71,0.00,,---,0.00,VWS V14.01,2013-02-18 12:15:00,
2013-02-18 07:16:00,23.0,15.0,29.98,SE,129,2.0,3.0,71,0.00,,---,0.00,VWS V14.01,2013-02-18 12:16:00,
2013-02-18 07:17:00,23.0,15.0,29.98,SW,221,0.0,3.0,71,0.00,,---,0.00,VWS V14.01,2013-02-18 12:17:00,
2013-02-18 07:18:00,23.0,15.0,29.98,SE,124,1.0,3.0,71,0.00,,---,0.00,VWS V14.01,2013-02-18 12:18:00,
2013-02-18 07:19:00,23.0,15.0,29.97,SSE,149,1.0,3.0,71,0.00,,---,0.00,VWS V14.01,2013-02-18 12:19:00,
2013-02-18 07:20:00,23.0,15.0,29.97,ESE,120,2.0,3.0,71,0.00,,---,0.00,VWS V14.01,2013-02-18 12:20:00,
2013-02-18 07:21:00,23.0,15.0,29.97,SE,146,0.0,6.0,71,0.00,,---,0.00,VWS V14.01,2013-02-18 12:21:00,
2013-02-18 07:22:00,23.0,15.0,29.97,East,90,1.0,6.0,71,0.00,,---,0.00,VWS V14.01,2013-02-18 12:22:00,
2013-02-18 07:23:00,23.1,15.1,29.97,ESE,114,1.0,6.0,71,0.00,,---,0.00,VWS V14.01,2013-02-18 12:23:00,
2013-02-18 07:24:00,23.1,15.1,29.97,ESE,110,2.0,8.0,71,0.00,,---,0.00,VWS V14.01,2013-02-18 12:24:00,
2013-02-18 07:25:00,23.1,15.1,29.97,ESE,110,4.0,8.0,71,0.00,,---,0.00,VWS V14.01,2013-02-18 12:25:00,
2013-02-18 07:26:00,23.1,15.1,29.97,East,101,1.0,5.0,71,0.00,,---,0.00,VWS V14.01,2013-02-18 12:26:00,
2013-02-18 07:27:00,23.2,15.0,29.99,ESE,102,2.0,7.0,70,0.00,,,0.00,weatherlink.com 1.10,2013-02-18 12:27:00,
2013-02-18 07:28:00,23.2,15.2,29.97,ESE,116,2.0,5.0,71,0.00,,---,0.00,VWS V14.01,2013-02-18 12:28:00,
2013-02-18 07:29:00,23.2,15.2,29.97,East,79,1.0,5.0,71,0.00,,---,0.00,VWS V14.01,2013-02-18 12:29:00,
2013-02-18 07:30:00,23.3,15.3,29.97,SE,136,1.0,5.0,71,0.00,,---,0.00,VWS V14.01,2013-02-18 12:30:00,
2013-02-18 07:31:00,23.3,15.3,29.97,SE,128,1.0,1.0,71,0.00,,---,0.00,VWS V14.01,2013-02-18 12:31:00,
2013-02-18 07:32:00,23.4,15.4,29.97,ESE,116,0.0,3.0,71,0.00,,---,0.00,VWS V14.01,2013-02-18 12:32:00,
2013-02-18 07:33:00,23.4,15.4,29.97,SE,142,0.0,3.0,71,0.00,,---,0.00,VWS V14.01,2013-02-18 12:33:00,
2013-02-18 07:34:00,23.4,15.4,29.97,East,98,0.0,3.0,71,0.00,,---,0.00,VWS V14.01,2013-02-18 12:34:00,
2013-02-18 07:35:00,23.4,15.4,29.97,South,175,1.0,7.0,71,0.00,,---,0.00,VWS V14.01,2013-02-18 12:35:00,
2013-02-18 07:36:00,23.5,15.5,29.97,SSE,149,0.0,2.0,71,0.00,,---,0.00,VWS V14.01,2013-02-18 12:36:00,
2013-02-18 07:37:00,23.5,15.5,29.97,SE,126,0.0,2.0,71,0.00,,---,0.00,VWS V14.01,2013-02-18 12:37:00,
2013-02-18 07:38:00,23.6,15.3,29.97,SE,127,1.0,2.0,70,0.00,,---,0.00,VWS V14.01,2013-02-18 12:38:00,
2013-02-18 07:39:00,23.6,15.3,29.97,ESE,122,1.0,5.0,70,0.00,,---,0.00,VWS V14.01,2013-02-18 12:39:00,
2013-02-18 07:40:00,23.6,15.3,29.97,ESE,122,2.0,5.0,70,0.00,,---,0.00,VWS V14.01,2013-02-18 12:40:00,
2013-02-18 07:41:00,23.7,15.4,29.97,SE,133,5.0,8.0,70,0.00,,---,0.00,VWS V14.01,2013-02-18 12:41:00,
2013-02-18 07:42:00,23.7,15.4,29.97,ESE,105,4.0,8.0,70,0.00,,---,0.00,VWS V14.01,2013-02-18 12:42:00,
2013-02-18 07:43:00,23.8,15.5,29.97,ESE,122,3.0,8.0,70,0.00,,---,0.00,VWS V14.01,2013-02-18 12:43:00,
2013-02-18 07:44:00,23.8,15.5,29.97,East,95,0.0,8.0,70,0.00,,---,0.00,VWS V14.01,2013-02-18 12:44:00,
2013-02-18 07:45:00,23.0,15.0,29.97,SSE,149,1.0,5.0,71,0.00,,,0.00,weatherlink.com 1.10,2013-02-18 12:45:00,
2013-02-18 07:46:00,23.8,15.5,29.97,ESE,110,1.0,2.0,70,0.00,,---,0.00,VWS V14.01,2013-02-18 12:46:00,
2013-02-18 07:47:00,23.9,15.6,29.96,ESE,103,0.0,2.0,70,0.00,,---,0.00,VWS V14.01,2013-02-18 12:47:00,
2013-02-18 07:48:00,24.0,15.6,29.96,ESE,102,0.0,3.0,70,0.00,,---,0.00,VWS V14.01,2013-02-18 12:48:00,
2013-02-18 07:49:00,24.0,15.6,29.96,SE,124,2.0,6.0,70,0.00,,---,0.00,VWS V14.01,2013-02-18 12:49:00,
2013-02-18 07:50:00,24.0,15.6,29.96,South,170,1.0,6.0,70,0.00,,---,0.00,VWS V14.01,2013-02-18 12:50:00,
2013-02-18 07:51:00,24.0,15.6,29.96,East,98,2.0,3.0,70,0.00,,---,0.00,VWS V14.01,2013-02-18 12:51:00,
2013-02-18 07:52:00,24.0,15.6,29.96,SSE,156,3.0,3.0,70,0.00,,---,0.00,VWS V14.01,2013-02-18 12:52:00,
2013-02-18 07:53:00,24.0,15.3,29.96,SE,135,4.0,5.0,69,0.00,,---,0.00,VWS V14.01,2013-02-18 12:53:00,
2013-02-18 07:54:00,24.0,15.6,29.96,East,82,2.0,5.0,70,0.00,,---,0.00,VWS V14.01,2013-02-18 12:54:00,
2013-02-18 07:55:00,24.1,15.8,29.96,East,96,2.0,5.0,70,0.00,,---,0.00,VWS V14.01,2013-02-18 12:55:00,
2013-02-18 07:56:00,24.1,15.8,29.96,SE,127,4.0,7.0,70,0.00,,---,0.00,VWS V14.01,2013-02-18 12:56:00,
2013-02-18 07:57:00,24.1,15.4,29.96,ESE,111,1.0,7.0,69,0.00,,---,0.00,VWS V14.01,2013-02-18 12:57:00,
2013-02-18 07:58:00,24.1,15.8,29.96,WSW,253,2.0,7.0,70,0.00,,---,0.00,VWS V14.01,2013-02-18 12:58:00,
2013-02-18 07:59:00,24.1,15.8,29.96,SE,124,3.0,7.0,70,0.00,,---,0.00,VWS V14.01,2013-02-18 12:59:00,
2013-02-18 08:00:00,24.2,15.8,29.96,East,98,1.0,7.0,70,0.00,,---,0.00,VWS V14.01,2013-02-18 13:00:00,
2013-02-18 08:01:00,24.2,15.8,29.96,ENE,62,1.0,2.0,70,0.00,,---,0.00,VWS V14.01,2013-02-18 13:01:00,
2013-02-18 08:02:00,23.5,15.0,29.97,ESE,110,1.0,7.0,71,0.00,,,0.00,weatherlink.com 1.10,2013-02-18 13:02:00,
2013-02-18 08:03:00,24.3,15.9,29.96,SW,221,2.0,4.0,70,0.00,,---,0.00,VWS V14.01,2013-02-18 13:03:00,
2013-02-18 08:04:00,24.4,16.0,29.96,ESE,114,0.0,4.0,70,0.00,,---,0.00,VWS V14.01,2013-02-18 13:04:00,
2013-02-18 08:05:00,24.4,16.0,29.96,SE,128,0.0,4.0,70,0.00,,---,0.00,VWS V14.01,2013-02-18 13:05:00,
2013-02-18 08:06:00,24.5,16.1,29.96,East,83,3.0,5.0,70,0.00,,---,0.00,VWS V14.01,2013-02-18 13:06:00,
2013-02-18 08:07:00,24.6,15.9,29.96,ESE,102,1.0,7.0,69,0.00,,---,0.00,VWS V14.01,2013-02-18 13:07:00,
2013-02-18 08:08:00,24.7,16.0,29.96,SE,136,1.0,9.0,69,0.00,,---,0.00,VWS V14.01,2013-02-18 13:08:00,
2013-02-18 08:09:00,24.8,16.1,29.96,SSE,153,0.0,9.0,69,0.00,,---,0.00,VWS V14.01,2013-02-18 13:09:00,
2013-02-18 08:10:00,24.9,16.2,29.96,SE,128,1.0,9.0,69,0.00,,---,0.00,VWS V14.01,2013-02-18 13:10:00,
2013-02-18 08:11:00,25.0,16.3,29.96,ESE,114,0.0,3.0,69,0.00,,---,0.00,VWS V14.01,2013-02-18 13:11:00,
2013-02-18 08:12:00,25.1,16.4,29.96,East,101,2.0,3.0,69,0.00,,---,0.00,VWS V14.01,2013-02-18 13:12:00,
2013-02-18 08:13:00,25.2,16.5,29.96,East,96,5.0,5.0,69,0.00,,---,0.00,VWS V14.01,2013-02-18 13:13:00,
2013-02-18 08:14:00,25.3,16.2,29.96,WSW,252,0.0,5.0,68,0.00,,---,0.00,VWS V14.01,2013-02-18 13:14:00,
2013-02-18 08:15:00,25.4,16.3,29.96,SSW,205,0.0,5.0,68,0.00,,---,0.00,VWS V14.01,2013-02-18 13:15:00,
2013-02-18 08:16:00,25.4,16.3,29.96,SE,141,0.0,8.0,68,0.00,,---,0.00,VWS V14.01,2013-02-18 13:16:00,
2013-02-18 08:17:00,25.5,16.4,29.95,ESE,117,1.0,8.0,68,0.00,,---,0.00,VWS V14.01,2013-02-18 13:17:00,
2013-02-18 08:18:00,25.5,16.4,29.95,SE,137,0.0,8.0,68,0.00,,---,0.00,VWS V14.01,2013-02-18 13:18:00,
2013-02-18 08:19:00,25.5,16.4,29.95,SSW,195,1.0,8.0,68,0.00,,---,0.00,VWS V14.01,2013-02-18 13:19:00,
2013-02-18 08:20:00,24.0,16.0,29.96,SE,131,1.0,6.0,70,0.00,,,0.00,weatherlink.com 1.10,2013-02-18 13:20:00,
2013-02-18 08:21:00,25.6,16.5,29.95,ESE,103,2.0,5.0,68,0.00,,---,0.00,VWS V14.01,2013-02-18 13:21:00,
2013-02-18 08:22:00,25.7,16.6,29.95,SE,146,1.0,6.0,68,0.00,,---,0.00,VWS V14.01,2013-02-18 13:22:00,
2013-02-18 08:23:00,25.7,16.6,29.95,East,89,2.0,7.0,68,0.00,,---,0.00,VWS V14.01,2013-02-18 13:23:00,
2013-02-18 08:24:00,25.8,16.7,29.95,SE,136,1.0,7.0,68,0.00,,---,0.00,VWS V14.01,2013-02-18 13:24:00,
2013-02-18 08:25:00,25.8,16.7,29.96,SW,224,1.0,7.0,68,0.00,,---,0.00,VWS V14.01,2013-02-18 13:25:00,
2013-02-18 08:26:00,25.9,16.8,29.95,ESE,120,2.0,8.0,68,0.00,,---,0.00,VWS V14.01,2013-02-18 13:26:00,
2013-02-18 08:27:00,26.0,16.6,29.95,ESE,112,1.0,8.0,67,0.00,,---,0.00,VWS V14.01,2013-02-18 13:27:00,
2013-02-18 08:28:00,26.1,17.0,29.95,East,100,2.0,8.0,68,0.00,,---,0.00,VWS V14.01,2013-02-18 13:28:00,
2013-02-18 08:29:00,26.2,16.8,29.95,ESE,115,2.0,8.0,67,0.00,,---,0.00,VWS V14.01,2013-02-18 13:29:00,
2013-02-18 08:30:00,26.3,16.9,29.95,SSE,149,0.0,8.0,67,0.00,,---,0.00,VWS V14.01,2013-02-18 13:30:00,
2013-02-18 08:31:00,26.4,16.9,29.95,ESE,115,5.0,5.0,67,0.00,,---,0.00,VWS V14.01,2013-02-18 13:31:00,
2013-02-18 08:32:00,26.4,16.9,29.95,SE,138,1.0,7.0,67,0.00,,---,0.00,VWS V14.01,2013-02-18 13:32:00,
2013-02-18 08:33:00,26.5,17.0,29.95,WSW,238,0.0,7.0,67,0.00,,---,0.00,VWS V14.01,2013-02-18 13:33:00,
2013-02-18 08:34:00,26.6,17.1,29.95,ENE,72,1.0,7.0,67,0.00,,---,0.00,VWS V14.01,2013-02-18 13:34:00,
2013-02-18 08:35:00,26.7,17.2,29.95,ESE,104,5.0,7.0,67,0.00,,---,0.00,VWS V14.01,2013-02-18 13:35:00,
2013-02-18 08:36:00,26.7,17.2,29.95,SE,128,2.0,5.0,67,0.00,,---,0.00,VWS V14.01,2013-02-18 13:36:00,
2013-02-18 08:37:00,25.0,16.0,29.96,ESE,114,0.0,10.0,69,0.00,,,0.00,weatherlink.com 1.10,2013-02-18 13:37:00,
2013-02-18 08:38:00,27.0,17.5,29.95,SE,127,1.0,5.0,67,0.00,,---,0.00,VWS V14.01,2013-02-18 13:38:00,
2013-02-18 08:39:00,27.1,17.3,29.95,East,86,0.0,5.0,66,0.00,,---,0.00,VWS V14.01,2013-02-18 13:39:00,
2013-02-18 08:40:00,27.2,17.4,29.95,SE,129,1.0,5.0,66,0.00,,---,0.00,VWS V14.01,2013-02-18 13:40:00,
2013-02-18 08:41:00,27.3,17.5,29.94,SE,134,2.0,4.0,66,0.00,,---,0.00,VWS V14.01,2013-02-18 13:41:00,
2013-02-18 08:42:00,27.4,17.5,29.94,ESE,109,0.0,4.0,66,0.00,,---,0.00,VWS V14.01,2013-02-18 13:42:00,
2013-02-18 08:43:00,27.5,17.6,29.94,ESE,123,0.0,8.0,66,0.00,,---,0.00,VWS V14.01,2013-02-18 13:43:00,
2013-02-18 08:44:00,27.6,17.4,29.94,ESE,113,1.0,8.0,65,0.00,,---,0.00,VWS V14.01,2013-02-18 13:44:00,
2013-02-18 08:45:00,27.7,17.5,29.94,SSE,160,1.0,8.0,65,0.00,,---,0.00,VWS V14.01,2013-02-18 13:45:00,
2013-02-18 08:46:00,27.7,17.5,29.94,SE,135,1.0,1.0,65,0.00,,---,0.00,VWS V14.01,2013-02-18 13:46:00,
2013-02-18 08:47:00,27.9,17.7,29.94,SE,138,1.0,3.0,65,0.00,,---,0.00,VWS V14.01,2013-02-18 13:47:00,
2013-02-18 08:48:00,27.9,17.7,29.94,SSE,155,2.0,3.0,65,0.00,,---,0.00,VWS V14.01,2013-02-18 13:48:00,
2013-02-18 08:49:00,28.0,17.8,29.94,South,179,3.0,4.0,65,0.00,,---,0.00,VWS V14.01,2013-02-18 13:49:00,
2013-02-18 08:50:00,28.1,17.9,29.94,ESE,118,0.0,4.0,65,0.00,,---,0.00,VWS V14.01,2013-02-18 13:50:00,
2013-02-18 08:51:00,28.1,17.9,29.94,SSE,155,1.0,2.0,65,0.00,,---,0.00,VWS V14.01,2013-02-18 13:51:00,
2013-02-18 08:52:00,28.1,17.5,29.93,ESE,114,0.0,2.0,64,0.00,,---,0.00,VWS V14.01,2013-02-18 13:52:00,
2013-02-18 08:53:00,28.2,17.6,29.93,SSE,165,0.0,2.0,64,0.00,,---,0.00,VWS V14.01,2013-02-18 13:53:00,
2013-02-18 08:54:00,26.0,17.0,29.95,SE,134,0.0,8.0,68,0.00,,,0.00,weatherlink.com 1.10,2013-02-18 13:54:00,
2013-02-18 08:55:00,28.3,17.7,29.93,SSE,159,0.0,7.0,64,0.00,,---,0.00,VWS V14.01,2013-02-18 13:55:00,
2013-02-18 08:56:00,28.3,17.7,29.94,ENE,75,2.0,8.0,64,0.00,,---,0.00,VWS V14.01,2013-02-18 13:56:00,
2013-02-18 08:57:00,28.3,17.7,29.94,SE,146,2.0,8.0,64,0.00,,---,0.00,VWS V14.01,2013-02-18 13:57:00,
2013-02-18 08:58:00,28.3,17.7,29.93,SE,146,1.0,8.0,64,0.00,,---,0.00,VWS V14.01,2013-02-18 13:58:00,
2013-02-18 08:59:00,28.4,17.8,29.93,SSW,205,0.0,8.0,64,0.00,,---,0.00,VWS V14.01,2013-02-18 13:59:00,
2013-02-18 09:00:00,28.4,17.8,29.93,SW,228,1.0,8.0,64,0.00,,---,0.00,VWS V14.01,2013-02-18 14:00:00,
2013-02-18 09:01:00,28.5,17.9,29.93,South,183,0.0,1.0,64,0.00,,---,0.00,VWS V14.01,2013-02-18 14:01:00,
2013-02-18 09:02:00,28.6,18.0,29.93,SSE,152,1.0,4.0,64,0.00,,---,0.00,VWS V14.01,2013-02-18 14:02:00,
2013-02-18 09:03:00,28.6,18.0,29.93,East,95,1.0,5.0,64,0.00,,---,0.00,VWS V14.01,2013-02-18 14:03:00,
2013-02-18 09:04:00,28.8,18.2,29.93,ESE,109,2.0,5.0,64,0.00,,---,0.00,VWS V14.01,2013-02-18 14:04:00,
2013-02-18 09:05:00,28.8,17.8,29.93,ESE,115,1.0,5.0,63,0.00,,---,0.00,VWS V14.01,2013-02-18 14:05:00,
2013-02-18 09:06:00,28.9,17.9,29.93,SE,134,0.0,2.0,63,0.00,,---,0.00,VWS V14.01,2013-02-18 14:06:00,
2013-02-18 09:07:00,29.0,18.0,29.93,West,270,2.0,2.0,63,0.00,,---,0.00,VWS V14.01,2013-02-18 14:07:00,
2013-02-18 09:08:00,29.1,18.1,29.93,South,169,0.0,2.0,63,0.00,,---,0.00,VWS V14.01,2013-02-18 14:08:00,
2013-02-18 09:09:00,29.2,18.5,29.93,SW,224,0.0,2.0,64,0.00,,---,0.00,VWS V14.01,2013-02-18 14:09:00,
2013-02-18 09:10:00,29.3,18.3,29.93,SE,135,0.0,2.0,63,0.00,,---,0.00,VWS V14.01,2013-02-18 14:10:00,
2013-02-18 09:11:00,29.4,18.4,29.93,ESE,102,5.0,5.0,63,0.00,,---,0.00,VWS V14.01,2013-02-18 14:11:00,
2013-02-18 09:12:00,29.4,18.4,29.93,ESE,104,0.0,5.0,63,0.00,,---,0.00,VWS V14.01,2013-02-18 14:12:00,
2013-02-18 09:13:00,29.4,18.4,29.93,SSE,148,0.0,5.0,63,0.00,,---,0.00,VWS V14.01,2013-02-18 14:13:00,
2013-02-18 09:14:00,29.5,18.1,29.93,SE,128,5.0,5.0,62,0.00,,---,0.00,VWS V14.01,2013-02-18 14:14:00,
2013-02-18 09:15:00,29.5,18.1,29.93,ESE,108,3.0,10.0,62,0.00,,---,0.00,VWS V14.01,2013-02-18 14:15:00,
2013-02-18 09:16:00,29.5,18.1,29.92,NNW,342,0.0,6.0,62,0.00,,---,0.00,VWS V14.01,2013-02-18 14:16:00,
2013-02-18 09:17:00,29.6,18.2,29.92,East,89,1.0,6.0,62,0.00,,---,0.00,VWS V14.01,2013-02-18 14:17:00,
2013-02-18 09:18:00,29.6,18.2,29.93,South,169,3.0,6.0,62,0.00,,---,0.00,VWS V14.01,2013-02-18 14:18:00,
2013-02-18 09:19:00,29.6,18.6,29.92,SE,146,0.0,6.0,63,0.00,,---,0.00,VWS V14.01,2013-02-18 14:19:00,
2013-02-18 09:20:00,29.7,18.7,29.92,ESE,120,0.0,6.0,63,0.00,,---,0.00,VWS V14.01,2013-02-18 14:20:00,
2013-02-18 09:21:00,29.7,18.3,29.92,ESE,123,0.0,3.0,62,0.00,,---,0.00,VWS V14.01,2013-02-18 14:21:00,
2013-02-18 09:22:00,29.8,18.4,29.92,East,82,3.0,6.0,62,0.00,,---,0.00,VWS V14.01,2013-02-18 14:22:00,
2013-02-18 09:23:00,29.8,18.4,29.92,WSW,253,0.0,6.0,62,0.00,,---,0.00,VWS V14.01,2013-02-18 14:23:00,
2013-02-18 09:24:00,29.8,18.8,29.92,SE,146,0.0,6.0,63,0.00,,---,0.00,VWS V14.01,2013-02-18 14:24:00,
2013-02-18 09:25:00,29.9,18.9,29.92,ESE,115,2.0,6.0,63,0.00,,---,0.00,VWS V14.01,2013-02-18 14:25:00,
2013-02-18 09:26:00,30.0,19.0,29.92,NE,53,1.0,2.0,63,0.00,,---,0.00,VWS V14.01,2013-02-18 14:26:00,
2013-02-18 09:27:00,30.1,18.7,29.92,SE,146,1.0,3.0,62,0.00,,---,0.00,VWS V14.01,2013-02-18 14:27:00,
2013-02-18 09:28:00,28.6,18.0,29.93,SE,146,1.0,7.0,64,0.00,,,0.00,weatherlink.com 1.10,2013-02-18 14:28:00,
2013-02-18 09:29:00,30.2,18.8,29.92,SSW,203,0.0,3.0,62,0.00,,---,0.00,VWS V14.01,2013-02-18 14:29:00,
2013-02-18 09:30:00,30.3,18.9,29.92,SE,129,0.0,3.0,62,0.00,,---,0.00,VWS V14.01,2013-02-18 14:30:00,
2013-02-18 09:31:00,30.4,19.3,29.92,ESE,104,4.0,7.0,63,0.00,,---,0.00,VWS V14.01,2013-02-18 14:31:00,
2013-02-18 09:32:00,30.5,19.0,29.92,SSE,163,1.0,7.0,62,0.00,,---,0.00,VWS V14.01,2013-02-18 14:32:00,
2013-02-18 09:33:00,30.5,19.0,29.92,ESE,118,1.0,7.0,62,0.00,,---,0.00,VWS V14.01,2013-02-18 14:33:00,
2013-02-18 09:34:00,30.5,18.7,29.91,ESE,110,1.0,7.0,61,0.00,,---,0.00,VWS V14.01,2013-02-18 14:34:00,
2013-02-18 09:35:00,30.5,19.0,29.92,SSW,193,1.0,7.0,62,0.00,,---,0.00,VWS V14.01,2013-02-18 14:35:00,
2013-02-18 09:36:00,30.5,19.0,29.91,SE,136,1.0,1.0,62,0.00,,---,0.00,VWS V14.01,2013-02-18 14:36:00,
2013-02-18 09:37:00,30.6,19.1,29.91,East,91,0.0,1.0,62,0.00,,---,0.00,VWS V14.01,2013-02-18 14:37:00,
2013-02-18 09:38:00,30.6,19.1,29.91,SSW,197,0.0,1.0,62,0.00,,---,0.00,VWS V14.01,2013-02-18 14:38:00,
2013-02-18 09:39:00,30.7,19.2,29.91,SE,145,0.0,1.0,62,0.00,,---,0.00,VWS V14.01,2013-02-18 14:39:00,
2013-02-18 09:40:00,30.7,19.2,29.91,SW,226,0.0,2.0,62,0.00,,---,0.00,VWS V14.01,2013-02-18 14:40:00,
2013-02-18 09:41:00,30.8,19.3,29.91,ESE,108,1.0,3.0,62,0.00,,---,0.00,VWS V14.01,2013-02-18 14:41:00,
2013-02-18 09:42:00,30.9,19.4,29.91,SE,135,0.0,3.0,62,0.00,,---,0.00,VWS V14.01,2013-02-18 14:42:00,
2013-02-18 09:43:00,31.0,19.5,29.91,ESE,108,0.0,3.0,62,0.00,,---,0.00,VWS V14.01,2013-02-18 14:43:00,
2013-02-18 09:44:00,31.0,19.5,29.91,WNW,286,0.0,4.0,62,0.00,,---,0.00,VWS V14.01,2013-02-18 14:44:00,
2013-02-18 09:45:00,31.1,19.6,29.91,SSW,201,1.0,4.0,62,0.00,,---,0.00,VWS V14.01,2013-02-18 14:45:00,
2013-02-18 09:46:00,29.7,18.0,29.92,East,100,1.0,10.0,63,0.00,,,0.00,weatherlink.com 1.10,2013-02-18 14:46:00,
2013-02-18 09:47:00,31.3,19.4,29.91,NW,309,0.0,3.0,61,0.00,,---,0.00,VWS V14.01,2013-02-18 14:47:00,
2013-02-18 09:48:00,31.4,19.5,29.91,ENE,74,0.0,4.0,61,0.00,,---,0.00,VWS V14.01,2013-02-18 14:48:00,
2013-02-18 09:49:00,31.4,19.5,29.91,SSW,194,0.0,4.0,61,0.00,,---,0.00,VWS V14.01,2013-02-18 14:49:00,
2013-02-18 09:50:00,31.5,19.6,29.91,East,87,1.0,4.0,61,0.00,,---,0.00,VWS V14.01,2013-02-18 14:50:00,
2013-02-18 09:51:00,31.6,19.7,29.91,SSW,198,0.0,6.0,61,0.00,,---,0.00,VWS V14.01,2013-02-18 14:51:00,
2013-02-18 09:52:00,31.7,19.8,29.91,ESE,115,0.0,6.0,61,0.00,,---,0.00,VWS V14.01,2013-02-18 14:52:00,
2013-02-18 09:53:00,31.8,19.5,29.91,East,96,1.0,6.0,60,0.00,,---,0.00,VWS V14.01,2013-02-18 14:53:00,
2013-02-18 09:54:00,31.9,20.0,29.91,SSW,213,1.0,6.0,61,0.00,,---,0.00,VWS V14.01,2013-02-18 14:54:00,
2013-02-18 09:55:00,32.0,20.1,29.90,SSE,150,1.0,6.0,61,0.00,,---,0.00,VWS V14.01,2013-02-18 14:55:00,
2013-02-18 09:56:00,32.1,19.8,29.91,SE,126,0.0,2.0,60,0.00,,---,0.00,VWS V14.01,2013-02-18 14:56:00,
2013-02-18 09:57:00,32.1,20.2,29.90,ESE,108,0.0,2.0,61,0.00,,---,0.00,VWS V14.01,2013-02-18 14:57:00,
2013-02-18 09:58:00,32.2,20.3,29.90,ESE,113,1.0,2.0,61,0.00,,---,0.00,VWS V14.01,2013-02-18 14:58:00,
2013-02-18 09:59:00,32.3,20.0,29.90,WSW,238,2.0,6.0,60,0.00,,---,0.00,VWS V14.01,2013-02-18 14:59:00,
2013-02-18 10:00:00,32.3,20.0,29.90,SSW,203,2.0,6.0,60,0.00,,---,0.00,VWS V14.01,2013-02-18 15:00:00,
2013-02-18 10:01:00,32.3,20.0,29.90,SE,133,0.0,1.0,60,0.00,,---,0.00,VWS V14.01,2013-02-18 15:01:00,
2013-02-18 10:02:00,32.3,20.0,29.90,ENE,61,1.0,3.0,60,0.00,,---,0.00,VWS V14.01,2013-02-18 15:02:00,
2013-02-18 10:03:00,30.6,19.0,29.91,ENE,76,0.0,7.0,62,0.00,,,0.00,weatherlink.com 1.10,2013-02-18 15:03:00,
2013-02-18 10:04:00,32.5,20.2,29.90,ESE,120,0.0,3.0,60,0.00,,---,0.00,VWS V14.01,2013-02-18 15:04:00,
2013-02-18 10:05:00,32.5,19.8,29.90,SSW,211,0.0,5.0,59,0.00,,---,0.00,VWS V14.01,2013-02-18 15:05:00,
2013-02-18 10:06:00,32.6,20.3,29.90,ESE,105,1.0,1.0,60,0.00,,---,0.00,VWS V14.01,2013-02-18 15:06:00,
2013-02-18 10:07:00,32.7,20.4,29.90,SSE,153,0.0,3.0,60,0.00,,---,0.00,VWS V14.01,2013-02-18 15:07:00,
2013-02-18 10:08:00,32.8,20.1,29.90,South,191,1.0,3.0,59,0.00,,---,0.00,VWS V14.01,2013-02-18 15:08:00,
2013-02-18 10:09:00,32.8,20.1,29.90,SSW,205,3.0,3.0,59,0.00,,---,0.00,VWS V14.01,2013-02-18 15:09:00,
2013-02-18 10:10:00,32.9,20.2,29.90,SSW,198,0.0,3.0,59,0.00,,---,0.00,VWS V14.01,2013-02-18 15:10:00,
2013-02-18 10:11:00,32.9,20.2,29.90,SE,124,0.0,1.0,59,0.00,,---,0.00,VWS V14.01,2013-02-18 15:11:00,
2013-02-18 10:12:00,33.0,20.2,29.90,SE,131,2.0,2.0,59,0.00,,---,0.00,VWS V14.01,2013-02-18 15:12:00,
2013-02-18 10:13:00,33.1,20.4,29.90,ESE,114,1.0,3.0,59,0.00,,---,0.00,VWS V14.01,2013-02-18 15:13:00,
2013-02-18 10:14:00,33.1,20.4,29.90,SE,146,1.0,5.0,59,0.00,,---,0.00,VWS V14.01,2013-02-18 15:14:00,
2013-02-18 10:15:00,33.2,20.4,29.90,ESE,105,6.0,6.0,59,0.00,,---,0.00,VWS V14.01,2013-02-18 15:15:00,
2013-02-18 10:16:00,33.2,20.4,29.89,ESE,104,1.0,2.0,59,0.00,,---,0.00,VWS V14.01,2013-02-18 15:16:00,
2013-02-18 10:17:00,33.2,20.4,29.90,SSW,194,2.0,6.0,59,0.00,,---,0.00,VWS V14.01,2013-02-18 15:17:00,
2013-02-18 10:18:00,33.2,20.4,29.89,East,81,3.0,6.0,59,0.00,,---,0.00,VWS V14.01,2013-02-18 15:18:00,
2013-02-18 10:19:00,33.2,20.4,29.89,East,82,1.0,6.0,59,0.00,,---,0.00,VWS V14.01,2013-02-18 15:19:00,
2013-02-18 10:20:00,33.3,20.5,29.89,SW,222,3.0,6.0,59,0.00,,---,0.00,VWS V14.01,2013-02-18 15:20:00,
2013-02-18 10:21:00,32.0,20.0,29.90,ESE,118,0.0,6.0,61,0.00,,,0.00,weatherlink.com 1.10,2013-02-18 15:21:00,
2013-02-18 10:22:00,33.4,20.6,29.89,SE,131,2.0,2.0,59,0.00,,---,0.00,VWS V14.01,2013-02-18 15:22:00,
2013-02-18 10:23:00,33.5,20.7,29.89,SE,131,1.0,3.0,59,0.00,,---,0.00,VWS V14.01,2013-02-18 15:23:00,
2013-02-18 10:24:00,33.6,20.8,29.89,SW,218,0.0,3.0,59,0.00,,---,0.00,VWS V14.01,2013-02-18 15:24:00,
2013-02-18 10:25:00,33.6,20.8,29.89,ESE,114,1.0,3.0,59,0.00,,---,0.00,VWS V14.01,2013-02-18 15:25:00,
2013-02-18 10:26:00,33.7,20.9,29.89,SE,129,3.0,5.0,59,0.00,,---,0.00,VWS V14.01,2013-02-18 15:26:00,
2013-02-18 10:27:00,33.7,20.9,29.89,SSE,148,0.0,5.0,59,0.00,,---,0.00,VWS V14.01,2013-02-18 15:27:00,
2013-02-18 10:28:00,33.7,20.9,29.89,SE,129,0.0,5.0,59,0.00,,---,0.00,VWS V14.01,2013-02-18 15:28:00,
2013-02-18 10:29:00,33.7,20.9,29.89,SSE,162,0.0,5.0,59,0.00,,---,0.00,VWS V14.01,2013-02-18 15:29:00,
2013-02-18 10:30:00,33.7,20.9,29.89,ESE,120,1.0,5.0,59,0.00,,---,0.00,VWS V14.01,2013-02-18 15:30:00,
2013-02-18 10:31:00,33.6,20.4,29.88,South,172,1.0,4.0,58,0.00,,---,0.00,VWS V14.01,2013-02-18 15:31:00,
2013-02-18 10:32:00,33.6,20.8,29.89,SE,129,1.0,6.0,59,0.00,,---,0.00,VWS V14.01,2013-02-18 15:32:00,
2013-02-18 10:33:00,33.6,20.8,29.89,SSW,205,3.0,6.0,59,0.00,,---,0.00,VWS V14.01,2013-02-18 15:33:00,
2013-02-18 10:34:00,33.5,20.3,29.89,South,182,1.0,6.0,58,0.00,,---,0.00,VWS V14.01,2013-02-18 15:34:00,
2013-02-18 10:35:00,33.6,20.8,29.89,ESE,121,1.0,6.0,59,0.00,,---,0.00,VWS V14.01,2013-02-18 15:35:00,
2013-02-18 10:36:00,33.6,20.8,29.89,SE,131,2.0,3.0,59,0.00,,---,0.00,VWS V14.01,2013-02-18 15:36:00,
2013-02-18 10:37:00,32.9,20.0,29.90,SE,124,0.0,5.0,59,0.00,,,0.00,weatherlink.com 1.10,2013-02-18 15:37:00,
2013-02-18 10:38:00,33.6,20.8,29.89,SW,224,0.0,3.0,59,0.00,,---,0.00,VWS V14.01,2013-02-18 15:38:00,
2013-02-18 10:39:00,33.6,20.8,29.89,SE,129,0.0,3.0,59,0.00,,---,0.00,VWS V14.01,2013-02-18 15:39:00,
2013-02-18 10:40:00,33.6,20.8,29.89,SSE,149,0.0,3.0,59,0.00,,---,0.00,VWS V14.01,2013-02-18 15:40:00,
2013-02-18 10:41:00,33.7,20.9,29.89,SW,221,1.0,2.0,59,0.00,,---,0.00,VWS V14.01,2013-02-18 15:41:00,
2013-02-18 10:42:00,33.7,20.9,29.88,SSW,193,0.0,2.0,59,0.00,,---,0.00,VWS V14.01,2013-02-18 15:42:00,
2013-02-18 10:43:00,33.8,21.0,29.89,East,80,7.0,8.0,59,0.00,,---,0.00,VWS V14.01,2013-02-18 15:43:00,
2013-02-18 10:44:00,33.8,21.0,29.89,ESE,105,0.0,8.0,59,0.00,,---,0.00,VWS V14.01,2013-02-18 15:44:00,
2013-02-18 10:45:00,33.8,21.0,29.88,SSE,150,1.0,8.0,59,0.00,,---,0.00,VWS V14.01,2013-02-18 15:45:00,
2013-02-18 10:46:00,33.8,21.0,29.89,SSW,204,4.0,6.0,59,0.00,,---,0.00,VWS V14.01,2013-02-18 15:46:00,
2013-02-18 10:47:00,33.9,21.1,29.88,SSW,201,0.0,6.0,59,0.00,,---,0.00,VWS V14.01,2013-02-18 15:47:00,
2013-02-18 10:48:00,33.9,21.1,29.88,ESE,117,2.0,6.0,59,0.00,,---,0.00,VWS V14.01,2013-02-18 15:48:00,
2013-02-18 10:49:00,34.0,21.2,29.88,SW,222,1.0,6.0,59,0.00,,---,0.00,VWS V14.01,2013-02-18 15:49:00,
2013-02-18 10:50:00,34.1,21.3,29.88,West,267,0.0,7.0,59,0.00,,---,0.00,VWS V14.01,2013-02-18 15:50:00,
2013-02-18 10:51:00,34.2,21.4,29.88,ESE,102,0.0,2.0,59,0.00,,---,0.00,VWS V14.01,2013-02-18 15:51:00,
2013-02-18 10:52:00,34.3,21.5,29.88,WSW,241,3.0,7.0,59,0.00,,---,0.00,VWS V14.01,2013-02-18 15:52:00,
2013-02-18 10:53:00,34.4,21.6,29.88,South,184,4.0,7.0,59,0.00,,---,0.00,VWS V14.01,2013-02-18 15:53:00,
2013-02-18 10:54:00,34.4,21.6,29.88,SE,138,2.0,7.0,59,0.00,,---,0.00,VWS V14.01,2013-02-18 15:54:00,
2013-02-18 10:55:00,33.7,21.0,29.89,SSE,162,0.0,5.0,59,0.00,,,0.00,weatherlink.com 1.10,2013-02-18 15:55:00,
2013-02-18 10:56:00,34.6,21.8,29.88,SSE,166,2.0,2.0,59,0.00,,---,0.00,VWS V14.01,2013-02-18 15:56:00,
2013-02-18 10:57:00,34.7,21.5,29.88,SSE,152,2.0,3.0,58,0.00,,---,0.00,VWS V14.01,2013-02-18 15:57:00,
2013-02-18 10:58:00,34.8,21.5,29.88,WSW,238,0.0,3.0,58,0.00,,---,0.00,VWS V14.01,2013-02-18 15:58:00,
2013-02-18 10:59:00,34.9,22.0,29.88,SSE,166,1.0,3.0,59,0.00,,---,0.00,VWS V14.01,2013-02-18 15:59:00,
2013-02-18 11:00:00,35.0,22.1,29.88,SE,136,1.0,3.0,59,0.00,,---,0.00,VWS V14.01,2013-02-18 16:00:00,
2013-02-18 11:01:00,35.1,21.8,29.88,SE,146,0.0,3.0,58,0.00,,---,0.00,VWS V14.01,2013-02-18 16:01:00,
2013-02-18 11:02:00,35.1,22.2,29.88,SSE,162,0.0,3.0,59,0.00,,---,0.00,VWS V14.01,2013-02-18 16:02:00,
2013-02-18 11:03:00,35.2,21.9,29.87,SSW,197,1.0,3.0,58,0.00,,---,0.00,VWS V14.01,2013-02-18 16:03:00,
2013-02-18 11:04:00,35.3,22.4,29.87,ENE,65,2.0,3.0,59,0.00,,---,0.00,VWS V14.01,2013-02-18 16:04:00,
2013-02-18 11:05:00,35.4,22.1,29.87,SSE,162,1.0,3.0,58,0.00,,---,0.00,VWS V14.01,2013-02-18 16:05:00,
2013-02-18 11:06:00,35.5,22.2,29.87,ENE,74,0.0,1.0,58,0.00,,---,0.00,VWS V14.01,2013-02-18 16:06:00,
2013-02-18 11:07:00,35.6,22.3,29.87,SE,133,0.0,2.0,58,0.00,,---,0.00,VWS V14.01,2013-02-18 16:07:00,
2013-02-18 11:08:00,35.6,22.3,29.87,ENE,74,2.0,4.0,58,0.00,,---,0.00,VWS V14.01,2013-02-18 16:08:00,
2013-02-18 11:09:00,35.6,22.3,29.87,ESE,108,1.0,4.0,58,0.00,,---,0.00,VWS V14.01,2013-02-18 16:09:00,
2013-02-18 11:10:00,35.6,22.3,29.87,SSW,204,1.0,6.0,58,0.00,,---,0.00,VWS V14.01,2013-02-18 16:10:00,
2013-02-18 11:11:00,35.6,22.3,29.87,SE,146,1.0,2.0,58,0.00,,---,0.00,VWS V14.01,2013-02-18 16:11:00,
2013-02-18 11:12:00,33.9,21.0,29.88,ESE,117,0.0,7.0,59,0.00,,,0.00,weatherlink.com 1.10,2013-02-18 16:12:00,
2013-02-18 11:13:00,35.6,22.7,29.87,East,91,1.0,2.0,59,0.00,,---,0.00,VWS V14.01,2013-02-18 16:13:00,
2013-02-18 11:14:00,35.7,22.4,29.87,WSW,239,1.0,5.0,58,0.00,,---,0.00,VWS V14.01,2013-02-18 16:14:00,
2013-02-18 11:15:00,35.7,22.4,29.87,South,169,1.0,5.0,58,0.00,,---,0.00,VWS V14.01,2013-02-18 16:15:00,
2013-02-18 11:16:00,35.8,22.5,29.87,SSE,162,1.0,3.0,58,0.00,,---,0.00,VWS V14.01,2013-02-18 16:16:00,
2013-02-18 11:17:00,35.8,22.5,29.87,SSE,162,0.0,3.0,58,0.00,,---,0.00,VWS V14.01,2013-02-18 16:17:00,
2013-02-18 11:18:00,35.9,22.6,29.86,SSE,158,0.0,3.0,58,0.00,,---,0.00,VWS V14.01,2013-02-18 16:18:00,
2013-02-18 11:19:00,36.0,22.7,29.86,South,177,0.0,3.0,58,0.00,,---,0.00,VWS V14.01,2013-02-18 16:19:00,
2013-02-18 11:20:00,36.1,22.8,29.86,South,186,0.0,3.0,58,0.00,,---,0.00,VWS V14.01,2013-02-18 16:20:00,
2013-02-18 11:21:00,36.2,23.3,29.86,East,90,0.0,6.0,59,0.00,,---,0.00,VWS V14.01,2013-02-18 16:21:00,
2013-02-18 11:22:00,36.3,23.4,29.86,SSE,159,1.0,6.0,59,0.00,,---,0.00,VWS V14.01,2013-02-18 16:22:00,
2013-02-18 11:23:00,36.4,23.5,29.86,South,177,1.0,6.0,59,0.00,,---,0.00,VWS V14.01,2013-02-18 16:23:00,
2013-02-18 11:24:00,36.5,23.5,29.86,ESE,108,3.0,6.0,59,0.00,,---,0.00,VWS V14.01,2013-02-18 16:24:00,
2013-02-18 11:25:00,36.7,23.3,29.86,SSE,163,0.0,6.0,58,0.00,,---,0.00,VWS V14.01,2013-02-18 16:25:00,
2013-02-18 11:26:00,36.8,23.4,29.86,SE,127,0.0,1.0,58,0.00,,---,0.00,VWS V14.01,2013-02-18 16:26:00,
2013-02-18 11:27:00,36.9,23.5,29.86,SSE,156,2.0,2.0,58,0.00,,---,0.00,VWS V14.01,2013-02-18 16:27:00,
2013-02-18 11:28:00,37.0,23.6,29.86,WSW,256,0.0,2.0,58,0.00,,---,0.00,VWS V14.01,2013-02-18 16:28:00,
2013-02-18 11:29:00,35.2,22.0,29.87,SSW,200,0.0,4.0,58,0.00,,,0.00,weatherlink.com 1.10,2013-02-18 16:29:00,
2013-02-18 11:30:00,37.2,23.4,29.86,West,278,1.0,3.0,57,0.00,,---,0.00,VWS V14.01,2013-02-18 16:30:00,
2013-02-18 11:31:00,37.2,23.4,29.86,South,174,1.0,3.0,57,0.00,,---,0.00,VWS V14.01,2013-02-18 16:31:00,
2013-02-18 11:32:00,37.3,23.5,29.86,SE,136,2.0,5.0,57,0.00,,---,0.00,VWS V14.01,2013-02-18 16:32:00,
2013-02-18 11:33:00,37.3,23.9,29.86,South,169,1.0,5.0,58,0.00,,---,0.00,VWS V14.01,2013-02-18 16:33:00,
2013-02-18 11:34:00,37.3,23.9,29.86,ESE,114,2.0,5.0,58,0.00,,---,0.00,VWS V14.01,2013-02-18 16:34:00,
2013-02-18 11:35:00,37.3,23.5,29.85,SE,136,0.0,5.0,57,0.00,,---,0.00,VWS V14.01,2013-02-18 16:35:00,
2013-02-18 11:36:00,37.3,23.5,29.85,SSW,200,0.0,1.0,57,0.00,,---,0.00,VWS V14.01,2013-02-18 16:36:00,
2013-02-18 11:37:00,37.3,23.9,29.86,WSW,243,0.0,1.0,58,0.00,,---,0.00,VWS V14.01,2013-02-18 16:37:00,
2013-02-18 11:38:00,37.5,24.1,29.85,East,95,2.0,3.0,58,0.00,,---,0.00,VWS V14.01,2013-02-18 16:38:00,
2013-02-18 11:39:00,37.5,24.1,29.85,SE,130,1.0,3.0,58,0.00,,---,0.00,VWS V14.01,2013-02-18 16:39:00,
2013-02-18 11:40:00,37.6,24.2,29.85,SE,136,2.0,3.0,58,0.00,,---,0.00,VWS V14.01,2013-02-18 16:40:00,
2013-02-18 11:41:00,37.6,24.2,29.85,WSW,252,2.0,3.0,58,0.00,,---,0.00,VWS V14.01,2013-02-18 16:41:00,
2013-02-18 11:42:00,37.7,23.9,29.85,SE,138,0.0,5.0,57,0.00,,---,0.00,VWS V14.01,2013-02-18 16:42:00,
2013-02-18 11:43:00,37.7,24.3,29.85,ESE,107,2.0,5.0,58,0.00,,---,0.00,VWS V14.01,2013-02-18 16:43:00,
2013-02-18 11:44:00,37.8,24.4,29.85,East,91,0.0,5.0,58,0.00,,---,0.00,VWS V14.01,2013-02-18 16:44:00,
2013-02-18 11:45:00,37.8,24.4,29.85,SW,226,1.0,5.0,58,0.00,,---,0.00,VWS V14.01,2013-02-18 16:45:00,
2013-02-18 11:46:00,37.9,24.5,29.85,SSE,160,2.0,3.0,58,0.00,,---,0.00,VWS V14.01,2013-02-18 16:46:00,
2013-02-18 11:47:00,36.2,23.0,29.86,ESE,117,0.0,6.0,59,0.00,,,0.00,weatherlink.com 1.10,2013-02-18 16:47:00,
2013-02-18 11:48:00,37.9,24.0,29.85,SW,231,5.0,5.0,57,0.00,,---,0.00,VWS V14.01,2013-02-18 16:48:00,
2013-02-18 11:49:00,37.9,24.0,29.85,ESE,113,2.0,5.0,57,0.00,,---,0.00,VWS V14.01,2013-02-18 16:49:00,
2013-02-18 11:50:00,37.9,24.0,29.85,SW,229,3.0,5.0,57,0.00,,---,0.00,VWS V14.01,2013-02-18 16:50:00,
2013-02-18 11:51:00,37.9,24.0,29.84,SSE,162,2.0,8.0,57,0.00,,---,0.00,VWS V14.01,2013-02-18 16:51:00,
2013-02-18 11:52:00,37.9,24.0,29.84,SSE,155,0.0,8.0,57,0.00,,---,0.00,VWS V14.01,2013-02-18 16:52:00,
2013-02-18 11:53:00,37.9,24.0,29.84,WSW,240,3.0,8.0,57,0.00,,---,0.00,VWS V14.01,2013-02-18 16:53:00,
2013-02-18 11:54:00,37.9,24.5,29.84,SE,141,0.0,8.0,58,0.00,,---,0.00,VWS V14.01,2013-02-18 16:54:00,
2013-02-18 11:55:00,37.9,24.5,29.84,SSE,153,1.0,8.0,58,0.00,,---,0.00,VWS V14.01,2013-02-18 16:55:00,
2013-02-18 11:56:00,37.9,24.5,29.84,East,101,2.0,4.0,58,0.00,,---,0.00,VWS V14.01,2013-02-18 16:56:00,
2013-02-18 11:57:00,37.8,24.4,29.84,SSW,201,3.0,4.0,58,0.00,,---,0.00,VWS V14.01,2013-02-18 16:57:00,
2013-02-18 11:58:00,37.8,24.4,29.84,East,91,3.0,4.0,58,0.00,,---,0.00,VWS V14.01,2013-02-18 16:58:00,
2013-02-18 11:59:00,37.8,24.4,29.84,SSW,213,0.0,4.0,58,0.00,,---,0.00,VWS V14.01,2013-02-18 16:59:00,
2013-02-18 12:00:00,37.9,24.5,29.84,ESE,107,0.0,4.0,58,0.00,,---,0.00,VWS V14.01,2013-02-18 17:00:00,
2013-02-18 12:01:00,38.0,24.5,29.84,West,275,1.0,1.0,58,0.00,,---,0.00,VWS V14.01,2013-02-18 17:01:00,
2013-02-18 12:02:00,38.1,25.1,29.84,NE,54,2.0,5.0,59,0.00,,---,0.00,VWS V14.01,2013-02-18 17:02:00,
2013-02-18 12:03:00,38.1,24.6,29.84,West,267,0.0,5.0,58,0.00,,---,0.00,VWS V14.01,2013-02-18 17:03:00,
2013-02-18 12:04:00,38.1,24.6,29.84,SE,143,0.0,5.0,58,0.00,,---,0.00,VWS V14.01,2013-02-18 17:04:00,
2013-02-18 12:05:00,37.5,24.0,29.85,ESE,107,1.0,5.0,58,0.00,,,0.00,weatherlink.com 1.10,2013-02-18 17:05:00,
2013-02-18 12:06:00,38.3,24.8,29.84,SE,129,0.0,2.0,58,0.00,,---,0.00,VWS V14.01,2013-02-18 17:06:00,
2013-02-18 12:07:00,38.4,24.9,29.84,SE,136,2.0,2.0,58,0.00,,---,0.00,VWS V14.01,2013-02-18 17:07:00,
2013-02-18 12:08:00,38.4,24.9,29.84,WSW,249,1.0,2.0,58,0.00,,---,0.00,VWS V14.01,2013-02-18 17:08:00,
2013-02-18 12:09:00,38.5,25.0,29.84,SE,136,1.0,5.0,58,0.00,,---,0.00,VWS V14.01,2013-02-18 17:09:00,
2013-02-18 12:10:00,38.6,25.1,29.84,East,99,0.0,5.0,58,0.00,,---,0.00,VWS V14.01,2013-02-18 17:10:00,
2013-02-18 12:11:00,38.6,25.1,29.84,SSE,159,3.0,3.0,58,0.00,,---,0.00,VWS V14.01,2013-02-18 17:11:00,
2013-02-18 12:12:00,38.7,25.2,29.83,SW,224,1.0,4.0,58,0.00,,---,0.00,VWS V14.01,2013-02-18 17:12:00,
2013-02-18 12:13:00,38.7,25.2,29.83,East,91,1.0,4.0,58,0.00,,---,0.00,VWS V14.01,2013-02-18 17:13:00,
2013-02-18 12:14:00,38.8,25.3,29.83,SSE,148,5.0,5.0,58,0.00,,---,0.00,VWS V14.01,2013-02-18 17:14:00,
2013-02-18 12:15:00,38.8,24.9,29.83,SSE,152,0.0,5.0,57,0.00,,---,0.00,VWS V14.01,2013-02-18 17:15:00,
2013-02-18 12:16:00,38.8,25.3,29.83,WSW,239,0.0,4.0,58,0.00,,---,0.00,VWS V14.01,2013-02-18 17:16:00,
2013-02-18 12:17:00,38.9,25.0,29.83,SE,127,0.0,4.0,57,0.00,,---,0.00,VWS V14.01,2013-02-18 17:17:00,
2013-02-18 12:18:00,38.9,25.4,29.83,WNW,295,2.0,4.0,58,0.00,,---,0.00,VWS V14.01,2013-02-18 17:18:00,
2013-02-18 12:19:00,39.0,25.5,29.83,SSW,196,0.0,4.0,58,0.00,,---,0.00,VWS V14.01,2013-02-18 17:19:00,
2013-02-18 12:20:00,39.2,25.7,29.83,SSW,193,0.0,4.0,58,0.00,,---,0.00,VWS V14.01,2013-02-18 17:20:00,
2013-02-18 12:21:00,37.9,24.0,29.84,SSE,155,0.0,7.0,58,0.00,,,0.00,weatherlink.com 1.10,2013-02-18 17:21:00,
2013-02-18 12:22:00,39.5,26.0,29.83,SSE,151,0.0,3.0,58,0.00,,---,0.00,VWS V14.01,2013-02-18 17:22:00,
2013-02-18 12:23:00,39.6,26.1,29.83,SE,139,1.0,3.0,58,0.00,,---,0.00,VWS V14.01,2013-02-18 17:23:00,
2013-02-18 12:24:00,39.7,26.1,29.83,SW,233,1.0,3.0,58,0.00,,---,0.00,VWS V14.01,2013-02-18 17:24:00,
2013-02-18 12:25:00,39.8,25.8,29.83,ESE,116,0.0,3.0,57,0.00,,---,0.00,VWS V14.01,2013-02-18 17:25:00,
2013-02-18 12:26:00,39.9,25.9,29.83,ENE,71,0.0,1.0,57,0.00,,---,0.00,VWS V14.01,2013-02-18 17:26:00,
2013-02-18 12:27:00,40.0,26.0,29.83,ESE,115,1.0,2.0,57,0.00,,---,0.00,VWS V14.01,2013-02-18 17:27:00,
2013-02-18 12:28:00,40.1,25.7,29.82,ESE,103,6.0,6.0,56,0.00,,---,0.00,VWS V14.01,2013-02-18 17:28:00,
2013-02-18 12:29:00,40.1,25.7,29.82,East,91,4.0,6.0,56,0.00,,---,0.00,VWS V14.01,2013-02-18 17:29:00,
2013-02-18 12:30:00,40.1,25.7,29.82,SSW,195,2.0,6.0,56,0.00,,---,0.00,VWS V14.01,2013-02-18 17:30:00,
2013-02-18 12:31:00,40.0,26.0,29.82,South,184,0.0,3.0,57,0.00,,---,0.00,VWS V14.01,2013-02-18 17:31:00,
2013-02-18 12:32:00,40.1,26.1,29.82,SE,131,0.0,3.0,57,0.00,,---,0.00,VWS V14.01,2013-02-18 17:32:00,
2013-02-18 12:33:00,40.1,26.1,29.82,ESE,121,5.0,9.0,57,0.00,,---,0.00,VWS V14.01,2013-02-18 17:33:00,
2013-02-18 12:34:00,40.1,26.1,29.82,ENE,62,1.0,9.0,57,0.00,,---,0.00,VWS V14.01,2013-02-18 17:34:00,
2013-02-18 12:35:00,40.1,26.1,29.82,SW,226,1.0,9.0,57,0.00,,---,0.00,VWS V14.01,2013-02-18 17:35:00,
2013-02-18 12:36:00,40.1,25.7,29.82,SSW,200,0.0,2.0,56,0.00,,---,0.00,VWS V14.01,2013-02-18 17:36:00,
2013-02-18 12:37:00,40.1,25.7,29.82,South,185,0.0,2.0,56,0.00,,---,0.00,VWS V14.01,2013-02-18 17:37:00,
2013-02-18 12:38:00,40.2,26.2,29.82,ESE,115,1.0,3.0,57,0.00,,---,0.00,VWS V14.01,2013-02-18 17:38:00,
2013-02-18 12:39:00,38.7,25.0,29.84,East,91,1.0,5.0,58,0.00,,,0.00,weatherlink.com 1.10,2013-02-18 17:39:00,
2013-02-18 12:40:00,40.3,26.3,29.82,SE,145,2.0,5.0,57,0.00,,---,0.00,VWS V14.01,2013-02-18 17:40:00,
2013-02-18 12:41:00,40.3,26.3,29.82,SSW,195,5.0,5.0,57,0.00,,---,0.00,VWS V14.01,2013-02-18 17:41:00,
2013-02-18 12:42:00,40.3,26.3,29.82,ESE,116,1.0,5.0,57,0.00,,---,0.00,VWS V14.01,2013-02-18 17:42:00,
2013-02-18 12:43:00,40.3,26.3,29.81,SSW,194,1.0,5.0,57,0.00,,---,0.00,VWS V14.01,2013-02-18 17:43:00,
2013-02-18 12:44:00,40.3,26.3,29.81,East,87,2.0,5.0,57,0.00,,---,0.00,VWS V14.01,2013-02-18 17:44:00,
2013-02-18 12:45:00,40.4,26.4,29.81,SSE,155,1.0,5.0,57,0.00,,---,0.00,VWS V14.01,2013-02-18 17:45:00,
2013-02-18 12:46:00,40.5,26.5,29.81,ENE,74,1.0,2.0,57,0.00,,---,0.00,VWS V14.01,2013-02-18 17:46:00,
2013-02-18 12:47:00,40.6,26.6,29.81,SSW,194,0.0,2.0,57,0.00,,---,0.00,VWS V14.01,2013-02-18 17:47:00,
2013-02-18 12:48:00,40.7,26.7,29.81,ESE,105,3.0,7.0,57,0.00,,---,0.00,VWS V14.01,2013-02-18 17:48:00,
2013-02-18 12:49:00,40.9,26.9,29.81,SSE,148,2.0,7.0,57,0.00,,---,0.00,VWS V14.01,2013-02-18 17:49:00,
2013-02-18 12:50:00,40.9,26.9,29.81,SSE,150,1.0,7.0,57,0.00,,---,0.00,VWS V14.01,2013-02-18 17:50:00,
2013-02-18 12:51:00,41.0,27.0,29.81,WSW,242,1.0,2.0,57,0.00,,---,0.00,VWS V14.01,2013-02-18 17:51:00,
2013-02-18 12:52:00,41.1,27.0,29.80,ESE,102,1.0,3.0,57,0.00,,---,0.00,VWS V14.01,2013-02-18 17:52:00,
2013-02-18 12:53:00,41.1,27.0,29.80,SSE,162,0.0,3.0,57,0.00,,---,0.00,VWS V14.01,2013-02-18 17:53:00,
2013-02-18 12:54:00,41.2,26.7,29.80,SE,130,2.0,5.0,56,0.00,,---,0.00,VWS V14.01,2013-02-18 17:54:00,
2013-02-18 12:55:00,40.1,25.0,29.82,SE,142,0.0,5.0,56,0.00,,,0.00,weatherlink.com 1.10,2013-02-18 17:55:00,
2013-02-18 12:56:00,41.3,26.8,29.80,SE,129,1.0,3.0,56,0.00,,---,0.00,VWS V14.01,2013-02-18 17:56:00,
2013-02-18 12:57:00,41.3,26.8,29.80,South,171,0.0,3.0,56,0.00,,---,0.00,VWS V14.01,2013-02-18 17:57:00,
2013-02-18 12:58:00,41.3,26.8,29.80,SE,135,2.0,3.0,56,0.00,,---,0.00,VWS V14.01,2013-02-18 17:58:00,
2013-02-18 12:59:00,41.3,26.8,29.80,East,98,2.0,3.0,56,0.00,,---,0.00,VWS V14.01,2013-02-18 17:59:00,
2013-02-18 13:00:00,41.3,26.8,29.80,SSE,161,1.0,3.0,56,0.00,,---,0.00,VWS V14.01,2013-02-18 18:00:00,
2013-02-18 13:01:00,41.3,27.2,29.80,SW,222,2.0,3.0,57,0.00,,---,0.00,VWS V14.01,2013-02-18 18:01:00,
2013-02-18 13:02:00,41.3,27.2,29.80,SE,131,4.0,4.0,57,0.00,,---,0.00,VWS V14.01,2013-02-18 18:02:00,
2013-02-18 13:03:00,41.3,27.2,29.80,NE,34,2.0,4.0,57,0.00,,---,0.00,VWS V14.01,2013-02-18 18:03:00,
2013-02-18 13:04:00,41.2,27.1,29.80,ESE,115,2.0,9.0,57,0.00,,---,0.00,VWS V14.01,2013-02-18 18:04:00,
2013-02-18 13:05:00,41.2,27.1,29.80,ESE,113,1.0,9.0,57,0.00,,---,0.00,VWS V14.01,2013-02-18 18:05:00,
2013-02-18 13:06:00,41.1,27.0,29.80,SSW,212,1.0,1.0,57,0.00,,---,0.00,VWS V14.01,2013-02-18 18:06:00,
2013-02-18 13:07:00,41.1,27.0,29.80,East,97,1.0,7.0,57,0.00,,---,0.00,VWS V14.01,2013-02-18 18:07:00,
2013-02-18 13:08:00,41.1,27.5,29.80,SE,131,0.0,7.0,58,0.00,,---,0.00,VWS V14.01,2013-02-18 18:08:00,
2013-02-18 13:09:00,41.2,27.6,29.79,ESE,110,3.0,7.0,58,0.00,,---,0.00,VWS V14.01,2013-02-18 18:09:00,
2013-02-18 13:10:00,41.2,27.6,29.79,East,84,4.0,7.0,58,0.00,,---,0.00,VWS V14.01,2013-02-18 18:10:00,
2013-02-18 13:11:00,41.1,27.5,29.79,SSW,210,2.0,6.0,58,0.00,,---,0.00,VWS V14.01,2013-02-18 18:11:00,
2013-02-18 13:12:00,41.2,27.6,29.79,SE,131,0.0,6.0,58,0.00,,---,0.00,VWS V14.01,2013-02-18 18:12:00,
2013-02-18 13:13:00,40.7,26.0,29.81,SSW,194,0.0,5.0,57,0.00,,,0.00,weatherlink.com 1.10,2013-02-18 18:13:00,
2013-02-18 13:14:00,41.2,27.6,29.79,SW,221,0.0,6.0,58,0.00,,---,0.00,VWS V14.01,2013-02-18 18:14:00,
2013-02-18 13:15:00,41.3,27.6,29.79,SE,130,0.0,6.0,58,0.00,,---,0.00,VWS V14.01,2013-02-18 18:15:00,
2013-02-18 13:16:00,41.5,27.8,29.79,ESE,118,2.0,2.0,58,0.00,,---,0.00,VWS V14.01,2013-02-18 18:16:00,
2013-02-18 13:17:00,41.5,27.8,29.79,SE,142,1.0,2.0,58,0.00,,---,0.00,VWS V14.01,2013-02-18 18:17:00,
2013-02-18 13:18:00,41.5,27.8,29.78,SE,127,1.0,2.0,58,0.00,,---,0.00,VWS V14.01,2013-02-18 18:18:00,
2013-02-18 13:19:00,41.6,27.9,29.78,South,191,0.0,4.0,58,0.00,,---,0.00,VWS V14.01,2013-02-18 18:19:00,
2013-02-18 13:20:00,41.6,28.4,29.78,South,170,0.0,4.0,59,0.00,,---,0.00,VWS V14.01,2013-02-18 18:20:00,
2013-02-18 13:21:00,41.7,28.0,29.78,East,79,2.0,3.0,58,0.00,,---,0.00,VWS V14.01,2013-02-18 18:21:00,
2013-02-18 13:22:00,41.8,28.1,29.78,SSW,201,1.0,3.0,58,0.00,,---,0.00,VWS V14.01,2013-02-18 18:22:00,
2013-02-18 13:23:00,41.8,28.1,29.78,SE,128,0.0,3.0,58,0.00,,---,0.00,VWS V14.01,2013-02-18 18:23:00,
2013-02-18 13:24:00,41.8,28.1,29.77,SSW,211,0.0,3.0,58,0.00,,---,0.00,VWS V14.01,2013-02-18 18:24:00,
2013-02-18 13:25:00,41.9,28.2,29.77,SW,235,4.0,4.0,58,0.00,,---,0.00,VWS V14.01,2013-02-18 18:25:00,
2013-02-18 13:26:00,41.9,28.2,29.77,SE,127,0.0,3.0,58,0.00,,---,0.00,VWS V14.01,2013-02-18 18:26:00,
2013-02-18 13:27:00,42.0,28.3,29.77,East,96,3.0,3.0,58,0.00,,---,0.00,VWS V14.01,2013-02-18 18:27:00,
2013-02-18 13:28:00,41.9,28.2,29.77,WSW,256,2.0,4.0,58,0.00,,---,0.00,VWS V14.01,2013-02-18 18:28:00,
2013-02-18 13:29:00,42.0,28.3,29.77,ESE,105,3.0,4.0,58,0.00,,---,0.00,VWS V14.01,2013-02-18 18:29:00,
2013-02-18 13:30:00,41.3,27.0,29.80,East,94,3.0,8.0,57,0.00,,,0.00,weatherlink.com 1.10,2013-02-18 18:30:00,
2013-02-18 13:31:00,41.9,28.2,29.76,ESE,108,2.0,2.0,58,0.00,,---,0.00,VWS V14.01,2013-02-18 18:31:00,
2013-02-18 13:32:00,41.9,28.6,29.76,SE,129,0.0,2.0,59,0.00,,---,0.00,VWS V14.01,2013-02-18 18:32:00,
2013-02-18 13:33:00,41.9,28.6,29.76,SE,146,0.0,2.0,59,0.00,,---,0.00,VWS V14.01,2013-02-18 18:33:00,
2013-02-18 13:34:00,42.0,28.7,29.76,ESE,113,2.0,3.0,59,0.00,,---,0.00,VWS V14.01,2013-02-18 18:34:00,
2013-02-18 13:35:00,42.0,28.7,29.76,ESE,113,2.0,5.0,59,0.00,,---,0.00,VWS V14.01,2013-02-18 18:35:00,
2013-02-18 13:36:00,42.0,28.7,29.76,ESE,117,1.0,6.0,59,0.00,,---,0.00,VWS V14.01,2013-02-18 18:36:00,
2013-02-18 13:37:00,42.0,28.7,29.76,South,186,0.0,6.0,59,0.00,,---,0.00,VWS V14.01,2013-02-18 18:37:00,
2013-02-18 13:38:00,42.1,28.8,29.75,ESE,106,2.0,6.0,59,0.00,,---,0.00,VWS V14.01,2013-02-18 18:38:00,
2013-02-18 13:39:00,42.1,28.8,29.75,SSW,197,1.0,6.0,59,0.00,,---,0.00,VWS V14.01,2013-02-18 18:39:00,
2013-02-18 13:40:00,42.2,28.9,29.75,SE,141,1.0,6.0,59,0.00,,---,0.00,VWS V14.01,2013-02-18 18:40:00,
2013-02-18 13:41:00,42.3,29.0,29.75,WSW,248,1.0,1.0,59,0.00,,---,0.00,VWS V14.01,2013-02-18 18:41:00,
2013-02-18 13:42:00,42.3,29.0,29.75,SSE,148,2.0,2.0,59,0.00,,---,0.00,VWS V14.01,2013-02-18 18:42:00,
2013-02-18 13:43:00,42.4,29.1,29.75,SE,143,1.0,2.0,59,0.00,,---,0.00,VWS V14.01,2013-02-18 18:43:00,
2013-02-18 13:44:00,42.5,29.2,29.75,East,86,2.0,3.0,59,0.00,,---,0.00,VWS V14.01,2013-02-18 18:44:00,
2013-02-18 13:45:00,42.5,29.6,29.75,SE,132,3.0,3.0,60,0.00,,---,0.00,VWS V14.01,2013-02-18 18:45:00,
2013-02-18 13:46:00,42.6,29.3,29.75,East,89,2.0,5.0,59,0.00,,---,0.00,VWS V14.01,2013-02-18 18:46:00,
2013-02-18 13:47:00,42.6,29.3,29.75,ESE,113,2.0,5.0,59,0.00,,---,0.00,VWS V14.01,2013-02-18 18:47:00,
2013-02-18 13:48:00,41.8,28.0,29.78,WNW,287,2.0,6.0,58,0.00,,,0.00,weatherlink.com 1.10,2013-02-18 18:48:00,
2013-02-18 13:49:00,42.6,29.3,29.75,ESE,121,1.0,6.0,59,0.00,,---,0.00,VWS V14.01,2013-02-18 18:49:00,
2013-02-18 13:50:00,42.5,29.2,29.75,SE,124,0.0,6.0,59,0.00,,---,0.00,VWS V14.01,2013-02-18 18:50:00,
2013-02-18 13:51:00,42.5,29.2,29.75,SE,135,1.0,7.0,59,0.00,,---,0.00,VWS V14.01,2013-02-18 18:51:00,
2013-02-18 13:52:00,42.6,29.3,29.75,ESE,118,4.0,7.0,59,0.00,,---,0.00,VWS V14.01,2013-02-18 18:52:00,
2013-02-18 13:53:00,42.7,29.4,29.75,SSE,162,0.0,7.0,59,0.00,,---,0.00,VWS V14.01,2013-02-18 18:53:00,
2013-02-18 13:54:00,42.7,29.4,29.75,WSW,250,1.0,7.0,59,0.00,,---,0.00,VWS V14.01,2013-02-18 18:54:00,
2013-02-18 13:55:00,42.8,29.5,29.75,SE,145,1.0,7.0,59,0.00,,---,0.00,VWS V14.01,2013-02-18 18:55:00,
2013-02-18 13:56:00,42.9,29.6,29.75,SSE,165,0.0,7.0,59,0.00,,---,0.00,VWS V14.01,2013-02-18 18:56:00,
2013-02-18 13:57:00,42.9,29.2,29.75,East,99,2.0,7.0,58,0.00,,---,0.00,VWS V14.01,2013-02-18 18:57:00,
2013-02-18 13:58:00,42.8,29.5,29.75,SSE,149,1.0,7.0,59,0.00,,---,0.00,VWS V14.01,2013-02-18 18:58:00,
2013-02-18 13:59:00,42.8,29.5,29.75,SE,134,0.0,7.0,59,0.00,,---,0.00,VWS V14.01,2013-02-18 18:59:00,
2013-02-18 14:00:00,42.8,29.5,29.75,SSW,210,2.0,7.0,59,0.00,,---,0.00,VWS V14.01,2013-02-18 19:00:00,
2013-02-18 14:01:00,42.9,29.6,29.75,ESE,121,0.0,2.0,59,0.00,,---,0.00,VWS V14.01,2013-02-18 19:01:00,
2013-02-18 14:02:00,42.9,29.6,29.75,ENE,73,2.0,2.0,59,0.00,,---,0.00,VWS V14.01,2013-02-18 19:02:00,
2013-02-18 14:03:00,43.0,29.7,29.75,SW,235,6.0,6.0,59,0.00,,---,0.00,VWS V14.01,2013-02-18 19:03:00,
2013-02-18 14:04:00,43.0,29.7,29.75,ENE,65,1.0,6.0,59,0.00,,---,0.00,VWS V14.01,2013-02-18 19:04:00,
2013-02-18 14:05:00,43.1,29.8,29.75,West,280,1.0,6.0,59,0.00,,---,0.00,VWS V14.01,2013-02-18 19:05:00,
2013-02-18 14:06:00,42.2,29.0,29.75,East,100,0.0,6.0,59,0.00,,,0.00,weatherlink.com 1.10,2013-02-18 19:06:00,
2013-02-18 14:07:00,43.0,29.2,29.75,ESE,123,1.0,6.0,58,0.00,,---,0.00,VWS V14.01,2013-02-18 19:07:00,
2013-02-18 14:08:00,43.0,29.7,29.75,East,101,0.0,6.0,59,0.00,,---,0.00,VWS V14.01,2013-02-18 19:08:00,
2013-02-18 14:09:00,43.1,29.8,29.74,SSE,162,0.0,6.0,59,0.00,,---,0.00,VWS V14.01,2013-02-18 19:09:00,
2013-02-18 14:10:00,43.2,29.9,29.74,ESE,121,0.0,6.0,59,0.00,,---,0.00,VWS V14.01,2013-02-18 19:10:00,
2013-02-18 14:11:00,43.2,29.9,29.74,SSE,159,2.0,4.0,59,0.00,,---,0.00,VWS V14.01,2013-02-18 19:11:00,
2013-02-18 14:12:00,43.3,30.0,29.74,ENE,68,1.0,4.0,59,0.00,,---,0.00,VWS V14.01,2013-02-18 19:12:00,
2013-02-18 14:13:00,43.4,30.0,29.74,WSW,246,1.0,4.0,59,0.00,,---,0.00,VWS V14.01,2013-02-18 19:13:00,
2013-02-18 14:14:00,43.5,30.1,29.74,West,260,0.0,4.0,59,0.00,,---,0.00,VWS V14.01,2013-02-18 19:14:00,
2013-02-18 14:15:00,43.6,30.2,29.75,SSW,203,1.0,4.0,59,0.00,,---,0.00,VWS V14.01,2013-02-18 19:15:00,
2013-02-18 14:16:00,43.7,29.9,29.74,SSW,195,1.0,2.0,58,0.00,,---,0.00,VWS V14.01,2013-02-18 19:16:00,
2013-02-18 14:17:00,43.7,29.9,29.74,ESE,121,1.0,2.0,58,0.00,,---,0.00,VWS V14.01,2013-02-18 19:17:00,
2013-02-18 14:18:00,43.8,30.0,29.74,East,81,1.0,2.0,58,0.00,,---,0.00,VWS V14.01,2013-02-18 19:18:00,
2013-02-18 14:19:00,43.9,30.1,29.74,East,101,0.0,2.0,58,0.00,,---,0.00,VWS V14.01,2013-02-18 19:19:00,
2013-02-18 14:20:00,44.0,30.2,29.74,SE,136,0.0,2.0,58,0.00,,---,0.00,VWS V14.01,2013-02-18 19:20:00,
2013-02-18 14:21:00,44.0,30.2,29.74,WSW,257,1.0,2.0,58,0.00,,---,0.00,VWS V14.01,2013-02-18 19:21:00,
2013-02-18 14:22:00,44.1,30.3,29.74,South,179,0.0,2.0,58,0.00,,---,0.00,VWS V14.01,2013-02-18 19:22:00,
2013-02-18 14:23:00,42.9,29.0,29.75,ESE,103,4.0,6.0,58,0.00,,,0.00,weatherlink.com 1.10,2013-02-18 19:23:00,
2013-02-18 14:24:00,44.3,30.0,29.74,SE,124,2.0,5.0,57,0.00,,---,0.00,VWS V14.01,2013-02-18 19:24:00,
2013-02-18 14:25:00,44.3,30.0,29.74,NNE,32,2.0,5.0,57,0.00,,---,0.00,VWS V14.01,2013-02-18 19:25:00,
2013-02-18 14:26:00,44.2,30.0,29.74,NNE,15,0.0,1.0,57,0.00,,---,0.00,VWS V14.01,2013-02-18 19:26:00,
2013-02-18 14:27:00,44.1,29.9,29.74,SE,127,1.0,3.0,57,0.00,,---,0.00,VWS V14.01,2013-02-18 19:27:00,
2013-02-18 14:28:00,44.1,29.9,29.74,ESE,119,1.0,8.0,57,0.00,,---,0.00,VWS V14.01,2013-02-18 19:28:00,
2013-02-18 14:29:00,44.0,29.8,29.74,SE,133,1.0,8.0,57,0.00,,---,0.00,VWS V14.01,2013-02-18 19:29:00,
2013-02-18 14:30:00,44.0,30.2,29.74,East,101,2.0,8.0,58,0.00,,---,0.00,VWS V14.01,2013-02-18 19:30:00,
2013-02-18 14:31:00,44.0,30.2,29.74,SE,136,1.0,3.0,58,0.00,,---,0.00,VWS V14.01,2013-02-18 19:31:00,
2013-02-18 14:32:00,44.0,30.2,29.74,SW,236,1.0,3.0,58,0.00,,---,0.00,VWS V14.01,2013-02-18 19:32:00,
2013-02-18 14:33:00,44.0,30.2,29.74,SW,235,0.0,3.0,58,0.00,,---,0.00,VWS V14.01,2013-02-18 19:33:00,
2013-02-18 14:34:00,44.1,30.3,29.74,SW,235,0.0,3.0,58,0.00,,---,0.00,VWS V14.01,2013-02-18 19:34:00,
2013-02-18 14:35:00,44.2,30.4,29.73,ESE,111,1.0,3.0,58,0.00,,---,0.00,VWS V14.01,2013-02-18 19:35:00,
2013-02-18 14:36:00,44.3,30.5,29.73,ESE,108,2.0,5.0,58,0.00,,---,0.00,VWS V14.01,2013-02-18 19:36:00,
2013-02-18 14:37:00,44.3,30.5,29.73,East,91,1.0,5.0,58,0.00,,---,0.00,VWS V14.01,2013-02-18 19:37:00,
2013-02-18 14:38:00,44.3,30.5,29.73,ESE,114,1.0,5.0,58,0.00,,---,0.00,VWS V14.01,2013-02-18 19:38:00,
2013-02-18 14:39:00,44.4,30.6,29.73,East,91,0.0,5.0,58,0.00,,---,0.00,VWS V14.01,2013-02-18 19:39:00,
2013-02-18 14:40:00,43.5,30.0,29.74,West,260,0.0,5.0,59,0.00,,,0.00,weatherlink.com 1.10,2013-02-18 19:40:00,
2013-02-18 14:41:00,44.5,30.2,29.73,East,87,2.0,4.0,57,0.00,,---,0.00,VWS V14.01,2013-02-18 19:41:00,
2013-02-18 14:42:00,44.6,30.3,29.73,East,96,2.0,5.0,57,0.00,,---,0.00,VWS V14.01,2013-02-18 19:42:00,
2013-02-18 14:43:00,44.6,30.3,29.73,SSW,206,3.0,5.0,57,0.00,,---,0.00,VWS V14.01,2013-02-18 19:43:00,
2013-02-18 14:44:00,44.6,30.3,29.73,SSE,155,0.0,5.0,57,0.00,,---,0.00,VWS V14.01,2013-02-18 19:44:00,
2013-02-18 14:45:00,44.6,30.8,29.73,SSW,212,0.0,5.0,58,0.00,,---,0.00,VWS V14.01,2013-02-18 19:45:00,
2013-02-18 14:46:00,44.7,30.9,29.73,East,98,10.0,10.0,58,0.00,,---,0.00,VWS V14.01,2013-02-18 19:46:00,
2013-02-18 14:47:00,44.7,30.4,29.72,ENE,61,3.0,10.0,57,0.00,,---,0.00,VWS V14.01,2013-02-18 19:47:00,
2013-02-18 14:48:00,44.7,30.4,29.72,SW,228,0.0,10.0,57,0.00,,---,0.00,VWS V14.01,2013-02-18 19:48:00,
2013-02-18 14:49:00,44.7,30.9,29.73,SE,129,1.0,10.0,58,0.00,,---,0.00,VWS V14.01,2013-02-18 19:49:00,
2013-02-18 14:50:00,44.7,30.9,29.72,SSW,201,0.0,10.0,58,0.00,,---,0.00,VWS V14.01,2013-02-18 19:50:00,
2013-02-18 14:51:00,44.8,30.9,29.72,SSE,152,0.0,2.0,58,0.00,,---,0.00,VWS V14.01,2013-02-18 19:51:00,
2013-02-18 14:52:00,44.9,30.6,29.72,SW,226,0.0,5.0,57,0.00,,---,0.00,VWS V14.01,2013-02-18 19:52:00,
2013-02-18 14:53:00,45.0,30.7,29.72,SSE,163,1.0,5.0,57,0.00,,---,0.00,VWS V14.01,2013-02-18 19:53:00,
2013-02-18 14:54:00,45.1,30.8,29.72,SSW,205,0.0,5.0,57,0.00,,---,0.00,VWS V14.01,2013-02-18 19:54:00,
2013-02-18 14:55:00,45.1,30.8,29.72,SSE,160,2.0,5.0,57,0.00,,---,0.00,VWS V14.01,2013-02-18 19:55:00,
2013-02-18 14:56:00,45.1,30.8,29.72,SSW,201,1.0,2.0,57,0.00,,---,0.00,VWS V14.01,2013-02-18 19:56:00,
2013-02-18 14:57:00,43.9,30.0,29.74,SE,135,0.0,8.0,58,0.00,,,0.00,weatherlink.com 1.10,2013-02-18 19:57:00,
2013-02-18 14:58:00,45.2,30.9,29.72,SSE,152,0.0,4.0,57,0.00,,---,0.00,VWS V14.01,2013-02-18 19:58:00,
2013-02-18 14:59:00,45.2,30.9,29.72,SSE,162,0.0,4.0,57,0.00,,---,0.00,VWS V14.01,2013-02-18 19:59:00,
2013-02-18 15:00:00,45.3,31.0,29.72,WSW,243,0.0,4.0,57,0.00,,---,0.00,VWS V14.01,2013-02-18 20:00:00,
2013-02-18 15:01:00,45.3,31.0,29.72,ESE,110,1.0,2.0,57,0.00,,---,0.00,VWS V14.01,2013-02-18 20:01:00,
2013-02-18 15:02:00,45.2,30.9,29.72,SSE,163,0.0,2.0,57,0.00,,---,0.00,VWS V14.01,2013-02-18 20:02:00,
2013-02-18 15:03:00,45.2,30.9,29.72,SW,225,3.0,3.0,57,0.00,,---,0.00,VWS V14.01,2013-02-18 20:03:00,
2013-02-18 15:04:00,45.1,30.8,29.72,SSW,205,1.0,3.0,57,0.00,,---,0.00,VWS V14.01,2013-02-18 20:04:00,
2013-02-18 15:05:00,45.1,31.2,29.72,South,186,0.0,3.0,58,0.00,,---,0.00,VWS V14.01,2013-02-18 20:05:00,
2013-02-18 15:06:00,45.1,30.8,29.72,SSE,152,0.0,1.0,57,0.00,,---,0.00,VWS V14.01,2013-02-18 20:06:00,
2013-02-18 15:07:00,45.1,31.2,29.72,SSE,152,0.0,1.0,58,0.00,,---,0.00,VWS V14.01,2013-02-18 20:07:00,
2013-02-18 15:08:00,45.1,31.2,29.72,ESE,121,0.0,1.0,58,0.00,,---,0.00,VWS V14.01,2013-02-18 20:08:00,
2013-02-18 15:09:00,45.1,31.2,29.72,SW,222,2.0,2.0,58,0.00,,---,0.00,VWS V14.01,2013-02-18 20:09:00,
2013-02-18 15:10:00,45.1,31.2,29.72,SE,127,1.0,4.0,58,0.00,,---,0.00,VWS V14.01,2013-02-18 20:10:00,
2013-02-18 15:11:00,45.1,31.2,29.72,SE,130,1.0,2.0,58,0.00,,---,0.00,VWS V14.01,2013-02-18 20:11:00,
2013-02-18 15:12:00,45.0,31.1,29.72,East,82,3.0,3.0,58,0.00,,---,0.00,VWS V14.01,2013-02-18 20:12:00,
2013-02-18 15:13:00,44.9,31.0,29.72,SW,226,0.0,3.0,58,0.00,,---,0.00,VWS V14.01,2013-02-18 20:13:00,
2013-02-18 15:14:00,44.9,31.0,29.72,SSW,204,0.0,3.0,58,0.00,,---,0.00,VWS V14.01,2013-02-18 20:14:00,
2013-02-18 15:15:00,44.7,31.0,29.73,SSE,149,1.0,9.0,58,0.00,,,0.00,weatherlink.com 1.10,2013-02-18 20:15:00,
2013-02-18 15:16:00,44.8,30.9,29.72,East,100,0.0,4.0,58,0.00,,---,0.00,VWS V14.01,2013-02-18 20:16:00,
2013-02-18 15:17:00,44.8,30.9,29.72,SSE,155,0.0,4.0,58,0.00,,---,0.00,VWS V14.01,2013-02-18 20:17:00,
2013-02-18 15:18:00,44.8,31.4,29.73,South,169,0.0,4.0,59,0.00,,---,0.00,VWS V14.01,2013-02-18 20:18:00,
2013-02-18 15:19:00,44.8,31.4,29.73,ESE,106,1.0,4.0,59,0.00,,---,0.00,VWS V14.01,2013-02-18 20:19:00,
2013-02-18 15:20:00,44.9,31.5,29.72,ESE,108,0.0,4.0,59,0.00,,---,0.00,VWS V14.01,2013-02-18 20:20:00,
2013-02-18 15:21:00,44.9,31.5,29.73,SE,136,0.0,0.0,59,0.00,,---,0.00,VWS V14.01,2013-02-18 20:21:00,
2013-02-18 15:22:00,45.0,31.5,29.72,SW,225,1.0,2.0,59,0.00,,---,0.00,VWS V14.01,2013-02-18 20:22:00,
2013-02-18 15:23:00,45.0,31.1,29.72,East,101,3.0,3.0,58,0.00,,---,0.00,VWS V14.01,2013-02-18 20:23:00,
2013-02-18 15:24:00,45.0,31.5,29.72,SE,136,1.0,4.0,59,0.00,,---,0.00,VWS V14.01,2013-02-18 20:24:00,
2013-02-18 15:25:00,45.0,31.5,29.72,East,99,4.0,4.0,59,0.00,,---,0.00,VWS V14.01,2013-02-18 20:25:00,
2013-02-18 15:26:00,45.0,31.5,29.72,South,183,0.0,3.0,59,0.00,,---,0.00,VWS V14.01,2013-02-18 20:26:00,
2013-02-18 15:27:00,45.0,31.5,29.72,SE,136,0.0,3.0,59,0.00,,---,0.00,VWS V14.01,2013-02-18 20:27:00,
2013-02-18 15:28:00,45.0,31.5,29.72,SSW,194,1.0,3.0,59,0.00,,---,0.00,VWS V14.01,2013-02-18 20:28:00,
2013-02-18 15:29:00,45.0,31.5,29.72,SSE,166,1.0,4.0,59,0.00,,---,0.00,VWS V14.01,2013-02-18 20:29:00,
2013-02-18 15:30:00,45.0,31.5,29.72,SSW,212,1.0,4.0,59,0.00,,---,0.00,VWS V14.01,2013-02-18 20:30:00,
2013-02-18 15:31:00,45.1,31.0,29.72,ESE,121,1.0,4.0,58,0.00,,,0.00,weatherlink.com 1.10,2013-02-18 20:31:00,
2013-02-18 15:32:00,45.1,31.6,29.72,ESE,117,2.0,3.0,59,0.00,,---,0.00,VWS V14.01,2013-02-18 20:32:00,
2013-02-18 15:33:00,45.1,31.6,29.72,SE,126,1.0,3.0,59,0.00,,---,0.00,VWS V14.01,2013-02-18 20:33:00,
2013-02-18 15:34:00,45.2,31.7,29.72,ESE,106,2.0,6.0,59,0.00,,---,0.00,VWS V14.01,2013-02-18 20:34:00,
2013-02-18 15:35:00,45.1,31.6,29.72,ESE,110,4.0,6.0,59,0.00,,---,0.00,VWS V14.01,2013-02-18 20:35:00,
2013-02-18 15:36:00,45.0,31.5,29.72,SW,231,2.0,4.0,59,0.00,,---,0.00,VWS V14.01,2013-02-18 20:36:00,
2013-02-18 15:37:00,45.0,31.5,29.72,South,177,1.0,4.0,59,0.00,,---,0.00,VWS V14.01,2013-02-18 20:37:00,
2013-02-18 15:38:00,45.0,31.5,29.72,ESE,116,0.0,4.0,59,0.00,,---,0.00,VWS V14.01,2013-02-18 20:38:00,
2013-02-18 15:39:00,44.9,31.9,29.72,ESE,114,0.0,4.0,60,0.00,,---,0.00,VWS V14.01,2013-02-18 20:39:00,
2013-02-18 15:40:00,44.9,31.9,29.72,SE,143,1.0,4.0,60,0.00,,---,0.00,VWS V14.01,2013-02-18 20:40:00,
2013-02-18 15:41:00,45.0,32.0,29.72,SSE,154,0.0,1.0,60,0.00,,---,0.00,VWS V14.01,2013-02-18 20:41:00,
2013-02-18 15:42:00,45.0,32.0,29.72,SW,221,0.0,2.0,60,0.00,,---,0.00,VWS V14.01,2013-02-18 20:42:00,
2013-02-18 15:43:00,45.0,32.0,29.72,South,172,2.0,2.0,60,0.00,,---,0.00,VWS V14.01,2013-02-18 20:43:00,
2013-02-18 15:44:00,45.0,32.0,29.72,SSE,150,0.0,2.0,60,0.00,,---,0.00,VWS V14.01,2013-02-18 20:44:00,
2013-02-18 15:45:00,45.0,32.0,29.72,West,273,1.0,3.0,60,0.00,,---,0.00,VWS V14.01,2013-02-18 20:45:00,
2013-02-18 15:46:00,45.0,32.0,29.72,SW,236,1.0,2.0,60,0.00,,---,0.00,VWS V14.01,2013-02-18 20:46:00,
2013-02-18 15:47:00,45.0,32.0,29.72,WSW,239,1.0,2.0,60,0.00,,---,0.00,VWS V14.01,2013-02-18 20:47:00,
2013-02-18 15:48:00,45.0,32.0,29.72,WSW,239,0.0,3.0,60,0.00,,---,0.00,VWS V14.01,2013-02-18 20:48:00,
2013-02-18 15:49:00,45.0,31.0,29.72,SE,142,1.0,4.0,58,0.00,,,0.00,weatherlink.com 1.10,2013-02-18 20:49:00,
2013-02-18 15:50:00,44.9,31.9,29.72,ESE,120,0.0,3.0,60,0.00,,---,0.00,VWS V14.01,2013-02-18 20:50:00,
2013-02-18 15:51:00,44.9,31.9,29.72,East,94,0.0,1.0,60,0.00,,---,0.00,VWS V14.01,2013-02-18 20:51:00,
2013-02-18 15:52:00,44.9,31.9,29.72,SSW,210,0.0,1.0,60,0.00,,---,0.00,VWS V14.01,2013-02-18 20:52:00,
2013-02-18 15:53:00,45.0,32.0,29.72,South,181,0.0,3.0,60,0.00,,---,0.00,VWS V14.01,2013-02-18 20:53:00,
2013-02-18 15:54:00,45.0,32.0,29.71,WSW,245,0.0,3.0,60,0.00,,---,0.00,VWS V14.01,2013-02-18 20:54:00,
2013-02-18 15:55:00,45.0,32.0,29.71,WSW,238,0.0,3.0,60,0.00,,---,0.00,VWS V14.01,2013-02-18 20:55:00,
2013-02-18 15:56:00,45.0,32.0,29.71,SE,139,0.0,1.0,60,0.00,,---,0.00,VWS V14.01,2013-02-18 20:56:00,
2013-02-18 15:57:00,44.9,32.3,29.71,SSE,158,1.0,5.0,61,0.00,,---,0.00,VWS V14.01,2013-02-18 20:57:00,
2013-02-18 15:58:00,44.8,32.2,29.71,SSW,200,1.0,5.0,61,0.00,,---,0.00,VWS V14.01,2013-02-18 20:58:00,
2013-02-18 15:59:00,44.8,32.2,29.71,SW,232,0.0,5.0,61,0.00,,---,0.00,VWS V14.01,2013-02-18 20:59:00,
2013-02-18 16:00:00,44.7,32.1,29.71,WSW,239,1.0,5.0,61,0.00,,---,0.00,VWS V14.01,2013-02-18 21:00:00,
2013-02-18 16:01:00,44.6,32.0,29.71,WSW,246,0.0,1.0,61,0.00,,---,0.00,VWS V14.01,2013-02-18 21:01:00,
2013-02-18 16:02:00,44.5,31.9,29.71,SW,225,1.0,3.0,61,0.00,,---,0.00,VWS V14.01,2013-02-18 21:02:00,
2013-02-18 16:03:00,44.5,32.3,29.71,SW,236,1.0,3.0,62,0.00,,---,0.00,VWS V14.01,2013-02-18 21:03:00,
2013-02-18 16:04:00,44.4,32.2,29.71,ESE,105,0.0,3.0,62,0.00,,---,0.00,VWS V14.01,2013-02-18 21:04:00,
2013-02-18 16:05:00,44.9,32.0,29.72,ESE,114,0.0,6.0,60,0.00,,,0.00,weatherlink.com 1.10,2013-02-18 21:05:00,
2013-02-18 16:06:00,44.3,32.1,29.70,SE,133,1.0,1.0,62,0.00,,---,0.00,VWS V14.01,2013-02-18 21:06:00,
2013-02-18 16:07:00,44.3,32.1,29.70,SSW,194,1.0,1.0,62,0.00,,---,0.00,VWS V14.01,2013-02-18 21:07:00,
2013-02-18 16:08:00,44.2,32.4,29.70,SSE,155,0.0,2.0,63,0.00,,---,0.00,VWS V14.01,2013-02-18 21:08:00,
2013-02-18 16:09:00,44.1,32.3,29.70,SSW,201,0.0,4.0,63,0.00,,---,0.00,VWS V14.01,2013-02-18 21:09:00,
2013-02-18 16:10:00,44.1,32.3,29.70,SW,229,1.0,4.0,63,0.00,,---,0.00,VWS V14.01,2013-02-18 21:10:00,
2013-02-18 16:11:00,44.0,32.2,29.70,SW,229,0.0,1.0,63,0.00,,---,0.00,VWS V14.01,2013-02-18 21:11:00,
2013-02-18 16:12:00,44.0,32.2,29.70,SW,228,0.0,1.0,63,0.00,,---,0.00,VWS V14.01,2013-02-18 21:12:00,
2013-02-18 16:13:00,43.9,32.1,29.70,SW,228,0.0,1.0,63,0.00,,---,0.00,VWS V14.01,2013-02-18 21:13:00,
2013-02-18 16:14:00,43.9,32.1,29.70,SW,229,0.0,1.0,63,0.00,,---,0.00,VWS V14.01,2013-02-18 21:14:00,
2013-02-18 16:15:00,43.9,32.1,29.70,SE,127,0.0,1.0,63,0.00,,---,0.00,VWS V14.01,2013-02-18 21:15:00,
2013-02-18 16:16:00,43.8,32.4,29.70,SSE,155,0.0,0.0,64,0.00,,---,0.00,VWS V14.01,2013-02-18 21:16:00,
2013-02-18 16:17:00,43.8,32.4,29.70,SSE,150,0.0,0.0,64,0.00,,---,0.00,VWS V14.01,2013-02-18 21:17:00,
2013-02-18 16:18:00,43.8,32.4,29.70,SW,215,3.0,3.0,64,0.00,,---,0.00,VWS V14.01,2013-02-18 21:18:00,
2013-02-18 16:19:00,43.7,32.3,29.70,East,81,0.0,3.0,64,0.00,,---,0.00,VWS V14.01,2013-02-18 21:19:00,
2013-02-18 16:20:00,43.7,32.3,29.70,SSW,211,0.0,3.0,64,0.00,,---,0.00,VWS V14.01,2013-02-18 21:20:00,
2013-02-18 16:21:00,43.7,32.3,29.70,ESE,120,0.0,0.0,64,0.00,,---,0.00,VWS V14.01,2013-02-18 21:21:00,
2013-02-18 16:22:00,43.6,32.2,29.70,ESE,120,0.0,0.0,64,0.00,,---,0.00,VWS V14.01,2013-02-18 21:22:00,
2013-02-18 16:23:00,44.9,32.0,29.71,East,82,1.0,5.0,61,0.00,,,0.00,weatherlink.com 1.10,2013-02-18 21:23:00,
2013-02-18 16:24:00,43.6,32.2,29.70,SSE,159,0.0,0.0,64,0.00,,---,0.00,VWS V14.01,2013-02-18 21:24:00,
2013-02-18 16:25:00,43.6,32.6,29.70,SW,224,0.0,1.0,65,0.00,,---,0.00,VWS V14.01,2013-02-18 21:25:00,
2013-02-18 16:26:00,43.5,32.5,29.69,SW,224,0.0,0.0,65,0.00,,---,0.00,VWS V14.01,2013-02-18 21:26:00,
2013-02-18 16:27:00,43.5,32.5,29.70,East,98,0.0,1.0,65,0.00,,---,0.00,VWS V14.01,2013-02-18 21:27:00,
2013-02-18 16:28:00,43.5,32.5,29.69,South,171,0.0,1.0,65,0.00,,---,0.00,VWS V14.01,2013-02-18 21:28:00,
2013-02-18 16:29:00,43.5,32.5,29.69,South,171,0.0,1.0,65,0.00,,---,0.00,VWS V14.01,2013-02-18 21:29:00,
2013-02-18 16:30:00,43.5,32.5,29.69,SSE,162,0.0,1.0,65,0.00,,---,0.00,VWS V14.01,2013-02-18 21:30:00,
2013-02-18 16:31:00,43.5,32.5,29.69,East,101,1.0,2.0,65,0.00,,---,0.00,VWS V14.01,2013-02-18 21:31:00,
2013-02-18 16:32:00,43.4,32.4,29.69,ENE,64,0.0,2.0,65,0.00,,---,0.00,VWS V14.01,2013-02-18 21:32:00,
2013-02-18 16:33:00,43.4,32.4,29.69,East,99,0.0,2.0,65,0.00,,---,0.00,VWS V14.01,2013-02-18 21:33:00,
2013-02-18 16:34:00,43.4,32.8,29.69,ESE,104,0.0,2.0,66,0.00,,---,0.00,VWS V14.01,2013-02-18 21:34:00,
2013-02-18 16:35:00,43.3,32.7,29.69,ESE,105,0.0,2.0,66,0.00,,---,0.00,VWS V14.01,2013-02-18 21:35:00,
2013-02-18 16:36:00,43.3,32.7,29.69,ESE,109,0.0,1.0,66,0.00,,---,0.00,VWS V14.01,2013-02-18 21:36:00,
2013-02-18 16:37:00,43.3,32.7,29.69,ESE,109,0.0,1.0,66,0.00,,---,0.00,VWS V14.01,2013-02-18 21:37:00,
2013-02-18 16:38:00,43.3,32.7,29.69,ESE,114,0.0,1.0,66,0.00,,---,0.00,VWS V14.01,2013-02-18 21:38:00,
2013-02-18 16:39:00,43.2,32.6,29.69,ESE,114,0.0,1.0,66,0.00,,---,0.00,VWS V14.01,2013-02-18 21:39:00,
2013-02-18 16:40:00,43.2,32.6,29.69,ESE,117,0.0,1.0,66,0.00,,---,0.00,VWS V14.01,2013-02-18 21:40:00,
2013-02-18 16:41:00,43.8,32.0,29.70,SE,127,0.0,5.0,63,0.00,,,0.00,weatherlink.com 1.10,2013-02-18 21:41:00,
2013-02-18 16:42:00,43.2,32.6,29.69,SE,130,0.0,1.0,66,0.00,,---,0.00,VWS V14.01,2013-02-18 21:42:00,
2013-02-18 16:43:00,43.2,32.6,29.69,East,86,0.0,2.0,66,0.00,,---,0.00,VWS V14.01,2013-02-18 21:43:00,
2013-02-18 16:44:00,43.2,33.0,29.68,ESE,120,0.0,2.0,67,0.00,,---,0.00,VWS V14.01,2013-02-18 21:44:00,
2013-02-18 16:45:00,43.1,32.9,29.68,SE,146,1.0,2.0,67,0.00,,---,0.00,VWS V14.01,2013-02-18 21:45:00,
2013-02-18 16:46:00,43.1,32.9,29.68,SSW,210,0.0,3.0,67,0.00,,---,0.00,VWS V14.01,2013-02-18 21:46:00,
2013-02-18 16:47:00,43.1,32.9,29.68,ESE,108,2.0,3.0,67,0.00,,---,0.00,VWS V14.01,2013-02-18 21:47:00,
2013-02-18 16:48:00,43.1,32.9,29.68,SE,136,0.0,3.0,67,0.00,,---,0.00,VWS V14.01,2013-02-18 21:48:00,
2013-02-18 16:49:00,43.1,32.9,29.68,SSE,162,0.0,3.0,67,0.00,,---,0.00,VWS V14.01,2013-02-18 21:49:00,
2013-02-18 16:50:00,43.1,32.9,29.68,SE,145,0.0,3.0,67,0.00,,---,0.00,VWS V14.01,2013-02-18 21:50:00,
2013-02-18 16:51:00,43.1,32.9,29.68,ESE,110,1.0,1.0,67,0.00,,---,0.00,VWS V14.01,2013-02-18 21:51:00,
2013-02-18 16:52:00,43.1,32.9,29.68,SSE,152,0.0,1.0,67,0.00,,---,0.00,VWS V14.01,2013-02-18 21:52:00,
2013-02-18 16:53:00,43.1,32.9,29.68,SSE,152,0.0,2.0,67,0.00,,---,0.00,VWS V14.01,2013-02-18 21:53:00,
2013-02-18 16:54:00,43.1,32.9,29.68,SSW,210,0.0,2.0,67,0.00,,---,0.00,VWS V14.01,2013-02-18 21:54:00,
2013-02-18 16:55:00,43.0,33.2,29.68,SSW,210,0.0,2.0,68,0.00,,---,0.00,VWS V14.01,2013-02-18 21:55:00,
2013-02-18 16:56:00,43.0,33.2,29.68,SSW,209,0.0,0.0,68,0.00,,---,0.00,VWS V14.01,2013-02-18 21:56:00,
2013-02-18 16:57:00,43.0,33.2,29.68,SSW,211,0.0,0.0,68,0.00,,---,0.00,VWS V14.01,2013-02-18 21:57:00,
2013-02-18 16:58:00,43.4,32.0,29.69,South,174,1.0,2.0,65,0.00,,,0.00,weatherlink.com 1.10,2013-02-18 21:58:00,
2013-02-18 16:59:00,42.9,33.1,29.68,SSW,211,0.0,0.0,68,0.00,,---,0.00,VWS V14.01,2013-02-18 21:59:00,
2013-02-18 17:00:00,42.9,33.1,29.68,SSW,211,0.0,0.0,68,0.00,,---,0.00,VWS V14.01,2013-02-18 22:00:00,
2013-02-18 17:01:00,42.9,33.1,29.68,SSW,210,0.0,0.0,68,0.00,,---,0.00,VWS V14.01,2013-02-18 22:01:00,
2013-02-18 17:02:00,42.9,33.1,29.68,SSW,210,0.0,0.0,68,0.00,,---,0.00,VWS V14.01,2013-02-18 22:02:00,
2013-02-18 17:03:00,42.8,33.0,29.68,SSW,210,0.0,0.0,68,0.00,,---,0.00,VWS V14.01,2013-02-18 22:03:00,
2013-02-18 17:04:00,42.8,33.0,29.68,SSE,150,0.0,1.0,68,0.00,,---,0.00,VWS V14.01,2013-02-18 22:04:00,
2013-02-18 17:05:00,42.8,33.3,29.68,SSE,151,0.0,1.0,69,0.00,,---,0.00,VWS V14.01,2013-02-18 22:05:00,
2013-02-18 17:06:00,42.8,33.3,29.67,SSE,150,0.0,0.0,69,0.00,,---,0.00,VWS V14.01,2013-02-18 22:06:00,
2013-02-18 17:07:00,42.8,33.3,29.67,SSE,151,0.0,0.0,69,0.00,,---,0.00,VWS V14.01,2013-02-18 22:07:00,
2013-02-18 17:08:00,42.7,33.2,29.67,SE,126,0.0,0.0,69,0.00,,---,0.00,VWS V14.01,2013-02-18 22:08:00,
2013-02-18 17:09:00,42.7,33.2,29.67,ESE,107,0.0,0.0,69,0.00,,---,0.00,VWS V14.01,2013-02-18 22:09:00,
2013-02-18 17:10:00,42.7,33.2,29.67,East,101,1.0,1.0,69,0.00,,---,0.00,VWS V14.01,2013-02-18 22:10:00,
2013-02-18 17:11:00,42.7,33.2,29.67,ESE,102,0.0,1.0,69,0.00,,---,0.00,VWS V14.01,2013-02-18 22:11:00,
2013-02-18 17:12:00,42.7,33.2,29.67,East,101,0.0,1.0,69,0.00,,---,0.00,VWS V14.01,2013-02-18 22:12:00,
2013-02-18 17:13:00,42.7,33.2,29.67,East,101,0.0,1.0,69,0.00,,---,0.00,VWS V14.01,2013-02-18 22:13:00,
2013-02-18 17:14:00,42.7,33.2,29.67,SW,233,1.0,1.0,69,0.00,,---,0.00,VWS V14.01,2013-02-18 22:14:00,
2013-02-18 17:15:00,43.1,33.0,29.68,SE,145,0.0,3.0,67,0.00,,,0.00,weatherlink.com 1.10,2013-02-18 22:15:00,
2013-02-18 17:16:00,42.7,33.2,29.67,East,79,1.0,1.0,69,0.00,,---,0.00,VWS V14.01,2013-02-18 22:16:00,
2013-02-18 17:17:00,42.7,33.2,29.67,East,100,0.0,1.0,69,0.00,,---,0.00,VWS V14.01,2013-02-18 22:17:00,
2013-02-18 17:18:00,42.6,33.5,29.67,SW,225,0.0,2.0,70,0.00,,---,0.00,VWS V14.01,2013-02-18 22:18:00,
2013-02-18 17:19:00,42.6,33.5,29.67,SW,225,0.0,2.0,70,0.00,,---,0.00,VWS V14.01,2013-02-18 22:19:00,
2013-02-18 17:20:00,42.6,33.5,29.67,SSW,209,0.0,2.0,70,0.00,,---,0.00,VWS V14.01,2013-02-18 22:20:00,
2013-02-18 17:21:00,42.6,33.5,29.67,SSW,210,0.0,0.0,70,0.00,,---,0.00,VWS V14.01,2013-02-18 22:21:00,
2013-02-18 17:22:00,42.6,33.5,29.67,SE,127,0.0,0.0,70,0.00,,---,0.00,VWS V14.01,2013-02-18 22:22:00,
2013-02-18 17:23:00,42.7,33.6,29.67,SSW,210,0.0,1.0,70,0.00,,---,0.00,VWS V14.01,2013-02-18 22:23:00,
2013-02-18 17:24:00,42.7,33.6,29.67,SSW,210,0.0,1.0,70,0.00,,---,0.00,VWS V14.01,2013-02-18 22:24:00,
2013-02-18 17:25:00,42.7,33.6,29.67,SW,229,0.0,1.0,70,0.00,,---,0.00,VWS V14.01,2013-02-18 22:25:00,
2013-02-18 17:26:00,42.7,33.6,29.67,SW,229,0.0,0.0,70,0.00,,---,0.00,VWS V14.01,2013-02-18 22:26:00,
2013-02-18 17:27:00,42.7,34.0,29.67,SSE,152,0.0,1.0,71,0.00,,---,0.00,VWS V14.01,2013-02-18 22:27:00,
2013-02-18 17:28:00,42.8,34.1,29.67,South,176,0.0,1.0,71,0.00,,---,0.00,VWS V14.01,2013-02-18 22:28:00,
2013-02-18 17:29:00,42.8,34.1,29.67,West,269,0.0,2.0,71,0.00,,---,0.00,VWS V14.01,2013-02-18 22:29:00,
2013-02-18 17:30:00,42.9,34.2,29.67,WSW,238,0.0,2.0,71,0.00,,---,0.00,VWS V14.01,2013-02-18 22:30:00,
2013-02-18 17:31:00,42.9,34.2,29.67,ESE,104,1.0,1.0,71,0.00,,---,0.00,VWS V14.01,2013-02-18 22:31:00,
2013-02-18 17:32:00,42.8,33.0,29.67,SSE,151,0.0,1.0,69,0.00,,,0.00,weatherlink.com 1.10,2013-02-18 22:32:00,
2013-02-18 17:33:00,43.0,34.2,29.67,SSE,159,0.0,2.0,71,0.00,,---,0.00,VWS V14.01,2013-02-18 22:33:00,
2013-02-18 17:34:00,43.0,34.2,29.67,SSW,195,0.0,4.0,71,0.00,,---,0.00,VWS V14.01,2013-02-18 22:34:00,
2013-02-18 17:35:00,43.1,34.3,29.67,SSE,149,0.0,4.0,71,0.00,,---,0.00,VWS V14.01,2013-02-18 22:35:00,
2013-02-18 17:36:00,43.1,34.3,29.67,SE,136,0.0,0.0,71,0.00,,---,0.00,VWS V14.01,2013-02-18 22:36:00,
2013-02-18 17:37:00,43.1,34.3,29.67,SE,136,0.0,0.0,71,0.00,,---,0.00,VWS V14.01,2013-02-18 22:37:00,
2013-02-18 17:38:00,43.1,34.3,29.67,SE,136,0.0,0.0,71,0.00,,---,0.00,VWS V14.01,2013-02-18 22:38:00,
2013-02-18 17:39:00,43.1,34.3,29.66,ESE,119,3.0,3.0,71,0.00,,---,0.00,VWS V14.01,2013-02-18 22:39:00,
2013-02-18 17:40:00,43.2,34.5,29.66,East,89,4.0,4.0,71,0.00,,---,0.00,VWS V14.01,2013-02-18 22:40:00,
2013-02-18 17:41:00,43.3,34.9,29.66,SW,221,0.0,2.0,72,0.00,,---,0.00,VWS V14.01,2013-02-18 22:41:00,
2013-02-18 17:42:00,43.3,34.5,29.67,SW,214,0.0,2.0,71,0.00,,---,0.00,VWS V14.01,2013-02-18 22:42:00,
2013-02-18 17:43:00,43.4,34.6,29.67,SW,225,0.0,2.0,71,0.00,,---,0.00,VWS V14.01,2013-02-18 22:43:00,
2013-02-18 17:44:00,43.4,34.6,29.67,SSE,162,0.0,2.0,71,0.00,,---,0.00,VWS V14.01,2013-02-18 22:44:00,
2013-02-18 17:45:00,43.5,35.1,29.66,North,11,0.0,4.0,72,0.00,,---,0.00,VWS V14.01,2013-02-18 22:45:00,
2013-02-18 17:46:00,43.5,35.4,29.67,SE,139,2.0,2.0,73,0.00,,---,0.00,VWS V14.01,2013-02-18 22:46:00,
2013-02-18 17:47:00,43.5,35.8,29.67,WSW,239,0.0,2.0,74,0.00,,---,0.00,VWS V14.01,2013-02-18 22:47:00,
2013-02-18 17:48:00,43.4,35.7,29.67,SW,222,0.0,2.0,74,0.00,,---,0.00,VWS V14.01,2013-02-18 22:48:00,
2013-02-18 17:49:00,43.4,36.0,29.67,SW,215,0.0,2.0,75,0.00,,---,0.00,VWS V14.01,2013-02-18 22:49:00,
2013-02-18 17:50:00,42.7,34.0,29.67,SSW,210,0.0,1.0,70,0.00,,,0.00,weatherlink.com 1.10,2013-02-18 22:50:00,
2013-02-18 17:51:00,43.3,36.3,29.66,South,174,0.0,1.0,76,0.00,,---,0.00,VWS V14.01,2013-02-18 22:51:00,
2013-02-18 17:52:00,43.2,36.2,29.66,SSW,195,0.0,1.0,76,0.00,,---,0.00,VWS V14.01,2013-02-18 22:52:00,
2013-02-18 17:53:00,43.1,36.1,29.67,SSW,195,1.0,1.0,76,0.00,,---,0.00,VWS V14.01,2013-02-18 22:53:00,
2013-02-18 17:54:00,43.1,36.4,29.66,SSW,196,0.0,1.0,77,0.00,,---,0.00,VWS V14.01,2013-02-18 22:54:00,
2013-02-18 17:55:00,43.1,36.4,29.67,North,351,1.0,1.0,77,0.00,,---,0.00,VWS V14.01,2013-02-18 22:55:00,
2013-02-18 17:56:00,43.0,36.3,29.66,WSW,251,0.0,1.0,77,0.00,,---,0.00,VWS V14.01,2013-02-18 22:56:00,
2013-02-18 17:57:00,43.0,36.3,29.66,WSW,252,0.0,1.0,77,0.00,,---,0.00,VWS V14.01,2013-02-18 22:57:00,
2013-02-18 17:58:00,42.9,36.2,29.66,WSW,245,0.0,1.0,77,0.00,,---,0.00,VWS V14.01,2013-02-18 22:58:00,
2013-02-18 17:59:00,42.9,36.2,29.66,SW,222,0.0,1.0,77,0.00,,---,0.00,VWS V14.01,2013-02-18 22:59:00,
2013-02-18 18:00:00,42.9,36.2,29.66,SE,126,0.0,1.0,77,0.00,,---,0.00,VWS V14.01,2013-02-18 23:00:00,
2013-02-18 18:01:00,42.8,36.1,29.66,SE,125,0.0,0.0,77,0.00,,---,0.00,VWS V14.01,2013-02-18 23:01:00,
2013-02-18 18:02:00,42.8,36.4,29.66,SW,229,0.0,1.0,78,0.00,,---,0.00,VWS V14.01,2013-02-18 23:02:00,
2013-02-18 18:03:00,42.8,36.4,29.66,SE,135,0.0,2.0,78,0.00,,---,0.00,VWS V14.01,2013-02-18 23:03:00,
2013-02-18 18:04:00,42.8,36.4,29.66,SSW,208,1.0,2.0,78,0.00,,---,0.00,VWS V14.01,2013-02-18 23:04:00,
2013-02-18 18:05:00,42.8,36.4,29.66,SSW,210,0.0,2.0,78,0.00,,---,0.00,VWS V14.01,2013-02-18 23:05:00,
2013-02-18 18:06:00,42.8,36.4,29.66,East,79,0.0,1.0,78,0.00,,---,0.00,VWS V14.01,2013-02-18 23:06:00,
2013-02-18 18:07:00,43.2,34.0,29.66,SSE,153,0.0,5.0,71,0.00,,,0.00,weatherlink.com 1.10,2013-02-18 23:07:00,
2013-02-18 18:08:00,42.8,36.4,29.66,ESE,103,0.0,1.0,78,0.00,,---,0.00,VWS V14.01,2013-02-18 23:08:00,
2013-02-18 18:09:00,42.8,36.4,29.66,West,267,0.0,1.0,78,0.00,,---,0.00,VWS V14.01,2013-02-18 23:09:00,
2013-02-18 18:10:00,42.8,36.4,29.66,West,264,0.0,1.0,78,0.00,,---,0.00,VWS V14.01,2013-02-18 23:10:00,
2013-02-18 18:11:00,42.8,36.4,29.66,East,91,0.0,1.0,78,0.00,,---,0.00,VWS V14.01,2013-02-18 23:11:00,
2013-02-18 18:12:00,42.8,36.4,29.66,SE,128,0.0,2.0,78,0.00,,---,0.00,VWS V14.01,2013-02-18 23:12:00,
2013-02-18 18:13:00,42.8,36.1,29.66,SE,128,0.0,2.0,77,0.00,,---,0.00,VWS V14.01,2013-02-18 23:13:00,
2013-02-18 18:14:00,42.9,36.2,29.66,SE,146,2.0,2.0,77,0.00,,---,0.00,VWS V14.01,2013-02-18 23:14:00,
2013-02-18 18:15:00,42.8,36.1,29.66,SSE,163,0.0,2.0,77,0.00,,---,0.00,VWS V14.01,2013-02-18 23:15:00,
2013-02-18 18:16:00,42.9,36.2,29.66,SW,215,0.0,2.0,77,0.00,,---,0.00,VWS V14.01,2013-02-18 23:16:00,
2013-02-18 18:17:00,42.9,36.2,29.66,SE,135,0.0,2.0,77,0.00,,---,0.00,VWS V14.01,2013-02-18 23:17:00,
2013-02-18 18:18:00,42.8,36.1,29.66,SE,131,2.0,2.0,77,0.00,,---,0.00,VWS V14.01,2013-02-18 23:18:00,
2013-02-18 18:19:00,42.9,36.2,29.66,ESE,117,0.0,2.0,77,0.00,,---,0.00,VWS V14.01,2013-02-18 23:19:00,
2013-02-18 18:20:00,42.9,36.2,29.66,ESE,112,1.0,2.0,77,0.00,,---,0.00,VWS V14.01,2013-02-18 23:20:00,
2013-02-18 18:21:00,42.9,36.2,29.66,SE,130,0.0,1.0,77,0.00,,---,0.00,VWS V14.01,2013-02-18 23:21:00,
2013-02-18 18:22:00,42.9,36.2,29.65,ESE,110,0.0,2.0,77,0.00,,---,0.00,VWS V14.01,2013-02-18 23:22:00,
2013-02-18 18:23:00,42.9,36.2,29.65,SE,132,0.0,2.0,77,0.00,,---,0.00,VWS V14.01,2013-02-18 23:23:00,
2013-02-18 18:24:00,42.9,36.2,29.65,East,96,0.0,2.0,77,0.00,,---,0.00,VWS V14.01,2013-02-18 23:24:00,
2013-02-18 18:25:00,42.9,36.0,29.66,WSW,245,0.0,3.0,77,0.00,,,0.00,weatherlink.com 1.10,2013-02-18 23:25:00,
2013-02-18 18:26:00,42.9,36.2,29.65,SE,131,1.0,2.0,77,0.00,,---,0.00,VWS V14.01,2013-02-18 23:26:00,
2013-02-18 18:27:00,42.9,36.2,29.65,SE,129,0.0,2.0,77,0.00,,---,0.00,VWS V14.01,2013-02-18 23:27:00,
2013-02-18 18:28:00,42.9,36.2,29.65,South,188,0.0,2.0,77,0.00,,---,0.00,VWS V14.01,2013-02-18 23:28:00,
2013-02-18 18:29:00,42.9,36.2,29.65,SW,229,0.0,2.0,77,0.00,,---,0.00,VWS V14.01,2013-02-18 23:29:00,
2013-02-18 18:30:00,42.9,36.2,29.65,East,96,0.0,2.0,77,0.00,,---,0.00,VWS V14.01,2013-02-18 23:30:00,
2013-02-18 18:31:00,42.9,36.2,29.65,ESE,121,0.0,1.0,77,0.00,,---,0.00,VWS V14.01,2013-02-18 23:31:00,
2013-02-18 18:32:00,42.9,36.5,29.65,ESE,114,1.0,3.0,78,0.00,,---,0.00,VWS V14.01,2013-02-18 23:32:00,
2013-02-18 18:33:00,42.9,36.5,29.65,ESE,114,0.0,3.0,78,0.00,,---,0.00,VWS V14.01,2013-02-18 23:33:00,
2013-02-18 18:34:00,42.8,36.1,29.65,SE,142,1.0,3.0,77,0.00,,---,0.00,VWS V14.01,2013-02-18 23:34:00,
2013-02-18 18:35:00,42.8,36.1,29.65,SE,138,0.0,3.0,77,0.00,,---,0.00,VWS V14.01,2013-02-18 23:35:00,
2013-02-18 18:36:00,42.8,36.1,29.65,SE,131,0.0,1.0,77,0.00,,---,0.00,VWS V14.01,2013-02-18 23:36:00,
2013-02-18 18:37:00,42.8,36.1,29.65,SSE,163,0.0,1.0,77,0.00,,---,0.00,VWS V14.01,2013-02-18 23:37:00,
2013-02-18 18:38:00,42.8,36.1,29.65,ESE,106,0.0,1.0,77,0.00,,---,0.00,VWS V14.01,2013-02-18 23:38:00,
2013-02-18 18:39:00,42.8,36.1,29.65,ESE,105,0.0,1.0,77,0.00,,---,0.00,VWS V14.01,2013-02-18 23:39:00,
2013-02-18 18:40:00,42.7,36.0,29.65,SE,146,1.0,2.0,77,0.00,,---,0.00,VWS V14.01,2013-02-18 23:40:00,
2013-02-18 18:41:00,42.9,36.0,29.66,SE,146,1.0,3.0,77,0.00,,,0.00,weatherlink.com 1.10,2013-02-18 23:41:00,
2013-02-18 18:42:00,42.7,36.3,29.64,East,98,0.0,3.0,78,0.00,,---,0.00,VWS V14.01,2013-02-18 23:42:00,
2013-02-18 18:43:00,42.7,36.3,29.64,SE,142,0.0,3.0,78,0.00,,---,0.00,VWS V14.01,2013-02-18 23:43:00,
2013-02-18 18:44:00,42.7,36.3,29.64,ESE,117,0.0,3.0,78,0.00,,---,0.00,VWS V14.01,2013-02-18 23:44:00,
2013-02-18 18:45:00,42.7,36.7,29.64,East,101,1.0,3.0,79,0.00,,---,0.00,VWS V14.01,2013-02-18 23:45:00,
2013-02-18 18:46:00,42.8,36.8,29.64,SSW,209,0.0,1.0,79,0.00,,---,0.00,VWS V14.01,2013-02-18 23:46:00,
2013-02-18 18:47:00,42.8,36.8,29.64,SW,222,0.0,2.0,79,0.00,,---,0.00,VWS V14.01,2013-02-18 23:47:00,
2013-02-18 18:48:00,42.8,36.8,29.64,ENE,63,0.0,4.0,79,0.00,,---,0.00,VWS V14.01,2013-02-18 23:48:00,
2013-02-18 18:49:00,42.8,36.8,29.64,East,90,0.0,4.0,79,0.00,,---,0.00,VWS V14.01,2013-02-18 23:49:00,
2013-02-18 18:50:00,42.8,36.8,29.64,East,85,1.0,4.0,79,0.00,,---,0.00,VWS V14.01,2013-02-18 23:50:00,
2013-02-18 18:51:00,42.8,37.1,29.64,SE,146,0.0,1.0,80,0.00,,---,0.00,VWS V14.01,2013-02-18 23:51:00,
2013-02-18 18:52:00,42.9,37.2,29.64,SW,216,2.0,2.0,80,0.00,,---,0.00,VWS V14.01,2013-02-18 23:52:00,
2013-02-18 18:53:00,42.9,37.2,29.64,SE,146,0.0,2.0,80,0.00,,---,0.00,VWS V14.01,2013-02-18 23:53:00,
2013-02-18 18:54:00,42.9,37.2,29.64,SW,221,0.0,3.0,80,0.00,,---,0.00,VWS V14.01,2013-02-18 23:54:00,
2013-02-18 18:55:00,42.9,37.5,29.64,ESE,115,0.0,3.0,81,0.00,,---,0.00,VWS V14.01,2013-02-18 23:55:00,
2013-02-18 18:56:00,42.9,37.5,29.64,SE,129,1.0,3.0,81,0.00,,---,0.00,VWS V14.01,2013-02-18 23:56:00,
2013-02-18 18:57:00,43.0,37.6,29.64,SW,233,0.0,3.0,81,0.00,,---,0.00,VWS V14.01,2013-02-18 23:57:00,
2013-02-18 18:58:00,43.0,37.9,29.64,SSW,208,2.0,3.0,82,0.00,,---,0.00,VWS V14.01,2013-02-18 23:58:00,
2013-02-18 18:59:00,42.9,36.0,29.65,ESE,115,0.0,4.0,78,0.00,,,0.00,weatherlink.com 1.10,2013-02-18 23:59:00,
2013-02-18 19:00:00,43.0,37.9,29.64,ESE,122,0.0,3.0,82,0.00,,---,0.00,VWS V14.01,2013-02-19 00:00:00,
2013-02-18 19:01:00,43.1,38.0,29.64,SSW,210,0.0,2.0,82,0.00,,---,0.00,VWS V14.01,2013-02-19 00:01:00,
2013-02-18 19:02:00,43.1,38.3,29.64,ESE,109,1.0,6.0,83,0.00,,---,0.00,VWS V14.01,2013-02-19 00:02:00,
2013-02-18 19:03:00,43.1,38.6,29.64,SSE,167,0.0,6.0,84,0.00,,---,0.00,VWS V14.01,2013-02-19 00:03:00,
2013-02-18 19:04:00,43.1,38.6,29.64,SSW,208,2.0,6.0,84,0.00,,---,0.00,VWS V14.01,2013-02-19 00:04:00,
2013-02-18 19:05:00,43.1,38.6,29.64,SW,233,1.0,6.0,84,0.00,,---,0.00,VWS V14.01,2013-02-19 00:05:00,
2013-02-18 19:06:00,43.2,39.0,29.64,SSE,161,1.0,1.0,85,0.00,,---,0.00,VWS V14.01,2013-02-19 00:06:00,
2013-02-18 19:07:00,43.2,39.0,29.63,South,190,0.0,1.0,85,0.00,,---,0.00,VWS V14.01,2013-02-19 00:07:00,
2013-02-18 19:08:00,43.2,39.3,29.63,WSW,258,0.0,3.0,86,0.00,,---,0.00,VWS V14.01,2013-02-19 00:08:00,
2013-02-18 19:09:00,43.2,39.3,29.63,SSE,166,1.0,3.0,86,0.00,,---,0.00,VWS V14.01,2013-02-19 00:09:00,
2013-02-18 19:10:00,43.3,39.7,29.63,SE,138,1.0,3.0,87,0.00,,---,0.00,VWS V14.01,2013-02-19 00:10:00,
2013-02-18 19:11:00,43.3,39.7,29.63,SW,218,0.0,3.0,87,0.00,,---,0.00,VWS V14.01,2013-02-19 00:11:00,
2013-02-18 19:12:00,43.3,39.7,29.63,SW,233,0.0,3.0,87,0.00,,---,0.00,VWS V14.01,2013-02-19 00:12:00,
2013-02-18 19:13:00,43.3,40.0,29.63,South,183,0.0,3.0,88,0.00,,---,0.00,VWS V14.01,2013-02-19 00:13:00,
2013-02-18 19:14:00,43.3,40.0,29.63,ESE,108,2.0,3.0,88,0.00,,---,0.00,VWS V14.01,2013-02-19 00:14:00,
2013-02-18 19:15:00,42.8,37.0,29.64,East,91,0.0,3.0,79,0.00,,,0.00,weatherlink.com 1.10,2013-02-19 00:15:00,
2013-02-18 19:16:00,43.4,40.4,29.63,SW,228,0.0,2.0,89,0.00,,---,0.00,VWS V14.01,2013-02-19 00:16:00,
2013-02-18 19:17:00,43.4,40.4,29.63,SSW,203,0.0,2.0,89,0.00,,---,0.00,VWS V14.01,2013-02-19 00:17:00,
2013-02-18 19:18:00,43.4,40.4,29.63,SW,225,1.0,5.0,89,0.00,,---,0.00,VWS V14.01,2013-02-19 00:18:00,
2013-02-18 19:19:00,43.4,40.4,29.63,SE,127,0.0,5.0,89,0.00,,---,0.00,VWS V14.01,2013-02-19 00:19:00,
2013-02-18 19:20:00,43.4,40.7,29.63,SE,141,2.0,5.0,90,0.00,,---,0.00,VWS V14.01,2013-02-19 00:20:00,
2013-02-18 19:21:00,43.4,40.7,29.63,ENE,78,1.0,2.0,90,0.00,,---,0.00,VWS V14.01,2013-02-19 00:21:00,
2013-02-18 19:22:00,43.4,40.7,29.63,SE,130,1.0,2.0,90,0.00,,---,0.00,VWS V14.01,2013-02-19 00:22:00,
2013-02-18 19:23:00,43.4,40.7,29.63,SE,129,0.0,2.0,90,0.00,,---,0.00,VWS V14.01,2013-02-19 00:23:00,
2013-02-18 19:24:00,43.4,40.7,29.63,SE,146,1.0,3.0,90,0.00,,---,0.00,VWS V14.01,2013-02-19 00:24:00,
2013-02-18 19:25:00,43.4,41.0,29.63,SW,217,1.0,3.0,91,0.00,,---,0.00,VWS V14.01,2013-02-19 00:25:00,
2013-02-18 19:26:00,43.5,41.0,29.63,SE,136,3.0,6.0,91,0.00,,---,0.00,VWS V14.01,2013-02-19 00:26:00,
2013-02-18 19:27:00,43.5,41.3,29.63,SW,217,3.0,6.0,92,0.00,,---,0.00,VWS V14.01,2013-02-19 00:27:00,
2013-02-18 19:28:00,43.4,41.0,29.63,SW,217,0.0,6.0,91,0.00,,---,0.00,VWS V14.01,2013-02-19 00:28:00,
2013-02-18 19:29:00,43.4,41.0,29.63,SW,219,0.0,6.0,91,0.00,,---,0.00,VWS V14.01,2013-02-19 00:29:00,
2013-02-18 19:30:00,43.4,41.2,29.63,ENE,66,3.0,6.0,92,0.00,,---,0.00,VWS V14.01,2013-02-19 00:30:00,
2013-02-18 19:31:00,43.4,41.2,29.62,ESE,104,0.0,3.0,92,0.00,,---,0.00,VWS V14.01,2013-02-19 00:31:00,
2013-02-18 19:32:00,43.4,41.2,29.62,SSW,212,0.0,3.0,92,0.01,,---,0.01,VWS V14.01,2013-02-19 00:32:00,
2013-02-18 19:33:00,43.2,39.0,29.63,South,188,0.0,5.0,86,0.00,,,0.00,weatherlink.com 1.10,2013-02-19 00:33:00,
2013-02-18 19:34:00,43.3,41.1,29.62,East,82,0.0,3.0,92,0.01,,---,0.01,VWS V14.01,2013-02-19 00:34:00,
2013-02-18 19:35:00,43.3,41.4,29.62,SSW,193,1.0,3.0,93,0.01,,---,0.01,VWS V14.01,2013-02-19 00:35:00,
2013-02-18 19:36:00,43.3,41.4,29.62,SSE,148,2.0,6.0,93,0.01,,---,0.01,VWS V14.01,2013-02-19 00:36:00,
2013-02-18 19:37:00,43.3,41.4,29.62,SSE,148,0.0,6.0,93,0.01,,---,0.01,VWS V14.01,2013-02-19 00:37:00,
2013-02-18 19:38:00,43.2,41.3,29.62,SSW,208,1.0,6.0,93,0.01,,---,0.01,VWS V14.01,2013-02-19 00:38:00,
2013-02-18 19:39:00,43.2,41.3,29.62,SSE,163,1.0,6.0,93,0.01,,---,0.01,VWS V14.01,2013-02-19 00:39:00,
2013-02-18 19:40:00,43.2,41.3,29.62,ESE,121,1.0,6.0,93,0.01,,---,0.01,VWS V14.01,2013-02-19 00:40:00,
2013-02-18 19:41:00,43.1,41.2,29.62,SE,127,0.0,1.0,93,0.01,,---,0.01,VWS V14.01,2013-02-19 00:41:00,
2013-02-18 19:42:00,43.1,41.2,29.62,SW,233,0.0,1.0,93,0.01,,---,0.01,VWS V14.01,2013-02-19 00:42:00,
2013-02-18 19:43:00,43.1,41.2,29.61,SE,140,0.0,2.0,93,0.02,,---,0.02,VWS V14.01,2013-02-19 00:43:00,
2013-02-18 19:44:00,43.0,41.1,29.61,SE,146,0.0,2.0,93,0.02,,---,0.02,VWS V14.01,2013-02-19 00:44:00,
2013-02-18 19:45:00,43.0,41.1,29.61,ESE,115,0.0,2.0,93,0.02,,---,0.02,VWS V14.01,2013-02-19 00:45:00,
2013-02-18 19:46:00,43.0,41.1,29.61,NE,51,3.0,4.0,93,0.02,,---,0.02,VWS V14.01,2013-02-19 00:46:00,
2013-02-18 19:47:00,42.9,41.3,29.61,East,99,0.0,4.0,94,0.02,,---,0.02,VWS V14.01,2013-02-19 00:47:00,
2013-02-18 19:48:00,42.9,41.3,29.61,East,98,0.0,4.0,94,0.02,,---,0.02,VWS V14.01,2013-02-19 00:48:00,
2013-02-18 19:49:00,42.9,41.3,29.61,SE,131,0.0,4.0,94,0.02,,---,0.02,VWS V14.01,2013-02-19 00:49:00,
2013-02-18 19:50:00,42.9,41.3,29.61,SSW,194,1.0,4.0,94,0.02,,---,0.02,VWS V14.01,2013-02-19 00:50:00,
2013-02-18 19:51:00,43.4,41.0,29.63,SW,216,1.0,5.0,91,0.00,,,0.00,weatherlink.com 1.10,2013-02-19 00:51:00,
2013-02-18 19:52:00,42.9,41.3,29.61,ESE,107,0.0,2.0,94,0.02,,---,0.02,VWS V14.01,2013-02-19 00:52:00,
2013-02-18 19:53:00,42.9,41.3,29.60,SE,127,0.0,2.0,94,0.02,,---,0.02,VWS V14.01,2013-02-19 00:53:00,
2013-02-18 19:54:00,42.8,41.2,29.60,SE,127,0.0,2.0,94,0.02,,---,0.02,VWS V14.01,2013-02-19 00:54:00,
2013-02-18 19:55:00,42.8,41.2,29.60,SE,132,2.0,2.0,94,0.02,,---,0.02,VWS V14.01,2013-02-19 00:55:00,
2013-02-18 19:56:00,42.8,41.2,29.61,SSW,204,1.0,3.0,94,0.02,,---,0.02,VWS V14.01,2013-02-19 00:56:00,
2013-02-18 19:57:00,42.8,41.2,29.61,SE,133,1.0,3.0,94,0.02,,---,0.02,VWS V14.01,2013-02-19 00:57:00,
2013-02-18 19:58:00,42.8,41.2,29.60,SSE,159,1.0,3.0,94,0.02,,---,0.02,VWS V14.01,2013-02-19 00:58:00,
2013-02-18 19:59:00,42.8,41.2,29.60,South,176,1.0,3.0,94,0.02,,---,0.02,VWS V14.01,2013-02-19 00:59:00,
2013-02-18 20:00:00,42.8,41.2,29.60,SSW,209,3.0,3.0,94,0.02,,---,0.02,VWS V14.01,2013-02-19 01:00:00,
2013-02-18 20:01:00,42.8,41.2,29.60,South,174,0.0,3.0,94,0.02,,---,0.02,VWS V14.01,2013-02-19 01:01:00,
2013-02-18 20:02:00,42.9,41.3,29.60,South,186,0.0,3.0,94,0.02,,---,0.02,VWS V14.01,2013-02-19 01:02:00,
2013-02-18 20:03:00,42.8,41.2,29.60,SSE,149,0.0,3.0,94,0.02,,---,0.02,VWS V14.01,2013-02-19 01:03:00,
2013-02-18 20:04:00,42.8,41.2,29.60,SW,221,0.0,3.0,94,0.02,,---,0.02,VWS V14.01,2013-02-19 01:04:00,
2013-02-18 20:05:00,42.8,41.2,29.60,SSE,149,0.0,3.0,94,0.02,,---,0.02,VWS V14.01,2013-02-19 01:05:00,
2013-02-18 20:06:00,42.8,41.2,29.60,ESE,117,0.0,2.0,94,0.02,,---,0.02,VWS V14.01,2013-02-19 01:06:00,
2013-02-18 20:07:00,42.8,41.2,29.60,SE,138,1.0,3.0,94,0.02,,---,0.02,VWS V14.01,2013-02-19 01:07:00,
2013-02-18 20:08:00,43.1,41.0,29.62,SSW,198,1.0,7.0,93,0.01,,,0.01,weatherlink.com 1.10,2013-02-19 01:08:00,
2013-02-18 20:09:00,42.8,41.5,29.59,SSW,211,0.0,4.0,95,0.02,,---,0.02,VWS V14.01,2013-02-19 01:09:00,
2013-02-18 20:10:00,42.9,41.6,29.59,WSW,240,1.0,4.0,95,0.02,,---,0.02,VWS V14.01,2013-02-19 01:10:00,
2013-02-18 20:11:00,42.9,41.6,29.59,SE,124,0.0,2.0,95,0.02,,---,0.02,VWS V14.01,2013-02-19 01:11:00,
2013-02-18 20:12:00,42.9,41.6,29.59,East,96,3.0,3.0,95,0.02,,---,0.02,VWS V14.01,2013-02-19 01:12:00,
2013-02-18 20:13:00,42.9,41.6,29.59,SE,136,1.0,3.0,95,0.02,,---,0.02,VWS V14.01,2013-02-19 01:13:00,
2013-02-18 20:14:00,42.9,41.6,29.59,WSW,252,0.0,3.0,95,0.02,,---,0.02,VWS V14.01,2013-02-19 01:14:00,
2013-02-18 20:15:00,43.0,41.7,29.59,South,170,1.0,3.0,95,0.02,,---,0.02,VWS V14.01,2013-02-19 01:15:00,
2013-02-18 20:16:00,42.9,41.6,29.59,SSE,150,0.0,1.0,95,0.02,,---,0.02,VWS V14.01,2013-02-19 01:16:00,
2013-02-18 20:17:00,43.0,41.4,29.59,SE,126,6.0,6.0,94,0.02,,---,0.02,VWS V14.01,2013-02-19 01:17:00,
2013-02-18 20:18:00,43.0,41.4,29.59,South,177,0.0,6.0,94,0.02,,---,0.02,VWS V14.01,2013-02-19 01:18:00,
2013-02-18 20:19:00,42.9,41.3,29.59,SSW,210,0.0,6.0,94,0.02,,---,0.02,VWS V14.01,2013-02-19 01:19:00,
2013-02-18 20:20:00,42.9,41.3,29.59,NNE,29,1.0,6.0,94,0.02,,---,0.02,VWS V14.01,2013-02-19 01:20:00,
2013-02-18 20:21:00,42.9,41.3,29.59,SW,214,1.0,2.0,94,0.02,,---,0.02,VWS V14.01,2013-02-19 01:21:00,
2013-02-18 20:22:00,42.9,41.3,29.59,WSW,252,2.0,3.0,94,0.02,,---,0.02,VWS V14.01,2013-02-19 01:22:00,
2013-02-18 20:23:00,42.9,41.3,29.58,SE,131,1.0,4.0,94,0.02,,---,0.02,VWS V14.01,2013-02-19 01:23:00,
2013-02-18 20:24:00,42.9,41.3,29.58,South,191,0.0,4.0,94,0.02,,---,0.02,VWS V14.01,2013-02-19 01:24:00,
2013-02-18 20:25:00,42.8,41.0,29.60,South,174,0.0,3.0,94,0.02,,,0.02,weatherlink.com 1.10,2013-02-19 01:25:00,
2013-02-18 20:26:00,42.9,41.3,29.58,West,260,0.0,1.0,94,0.02,,---,0.02,VWS V14.01,2013-02-19 01:26:00,
2013-02-18 20:27:00,42.9,41.3,29.58,SSW,211,2.0,2.0,94,0.02,,---,0.02,VWS V14.01,2013-02-19 01:27:00,
2013-02-18 20:28:00,42.9,41.3,29.58,SSW,209,0.0,2.0,94,0.02,,---,0.02,VWS V14.01,2013-02-19 01:28:00,
2013-02-18 20:29:00,42.9,41.3,29.58,SSE,150,0.0,2.0,94,0.02,,---,0.02,VWS V14.01,2013-02-19 01:29:00,
2013-02-18 20:30:00,42.9,41.3,29.58,SSE,152,0.0,2.0,94,0.02,,---,0.02,VWS V14.01,2013-02-19 01:30:00,
2013-02-18 20:31:00,42.9,41.3,29.58,SE,136,0.0,0.0,94,0.02,,---,0.02,VWS V14.01,2013-02-19 01:31:00,
2013-02-18 20:32:00,42.9,41.3,29.58,SE,134,0.0,1.0,94,0.02,,---,0.02,VWS V14.01,2013-02-19 01:32:00,
2013-02-18 20:33:00,42.9,41.3,29.58,NNW,328,0.0,1.0,94,0.02,,---,0.02,VWS V14.01,2013-02-19 01:33:00,
2013-02-18 20:34:00,42.8,41.2,29.58,South,171,0.0,1.0,94,0.02,,---,0.02,VWS V14.01,2013-02-19 01:34:00,
2013-02-18 20:35:00,42.8,41.2,29.58,NNE,13,1.0,1.0,94,0.02,,---,0.02,VWS V14.01,2013-02-19 01:35:00,
2013-02-18 20:36:00,42.8,41.2,29.58,NNE,13,0.0,1.0,94,0.01,,---,0.02,VWS V14.01,2013-02-19 01:36:00,
2013-02-18 20:37:00,42.8,41.2,29.58,ESE,108,1.0,1.0,94,0.01,,---,0.02,VWS V14.01,2013-02-19 01:37:00,
2013-02-18 20:38:00,42.7,41.1,29.58,SE,136,0.0,1.0,94,0.01,,---,0.02,VWS V14.01,2013-02-19 01:38:00,
2013-02-18 20:39:00,42.7,41.1,29.58,SSW,199,1.0,3.0,94,0.01,,---,0.02,VWS V14.01,2013-02-19 01:39:00,
2013-02-18 20:40:00,42.7,41.1,29.58,SSW,195,1.0,3.0,94,0.01,,---,0.02,VWS V14.01,2013-02-19 01:40:00,
2013-02-18 20:41:00,42.8,41.2,29.58,SW,228,0.0,1.0,94,0.01,,---,0.02,VWS V14.01,2013-02-19 01:41:00,
2013-02-18 20:42:00,43.0,42.0,29.59,SSE,149,0.0,4.0,95,0.02,,,0.02,weatherlink.com 1.10,2013-02-19 01:42:00,
2013-02-18 20:43:00,42.8,41.2,29.57,South,191,0.0,3.0,94,0.01,,---,0.02,VWS V14.01,2013-02-19 01:43:00,
2013-02-18 20:44:00,42.8,41.2,29.57,East,82,1.0,3.0,94,0.01,,---,0.02,VWS V14.01,2013-02-19 01:44:00,
2013-02-18 20:45:00,42.8,41.2,29.57,South,170,0.0,3.0,94,0.02,,---,0.03,VWS V14.01,2013-02-19 01:45:00,
2013-02-18 20:46:00,42.8,41.2,29.57,SE,127,1.0,1.0,94,0.01,,---,0.03,VWS V14.01,2013-02-19 01:46:00,
2013-02-18 20:47:00,42.8,41.2,29.58,SW,215,0.0,2.0,94,0.01,,---,0.03,VWS V14.01,2013-02-19 01:47:00,
2013-02-18 20:48:00,42.7,41.1,29.57,SSE,149,1.0,2.0,94,0.01,,---,0.03,VWS V14.01,2013-02-19 01:48:00,
2013-02-18 20:49:00,42.7,41.1,29.57,WSW,256,0.0,3.0,94,0.01,,---,0.03,VWS V14.01,2013-02-19 01:49:00,
2013-02-18 20:50:00,42.7,41.1,29.57,SE,136,2.0,3.0,94,0.01,,---,0.03,VWS V14.01,2013-02-19 01:50:00,
2013-02-18 20:51:00,42.7,41.1,29.57,SE,146,0.0,2.0,94,0.01,,---,0.03,VWS V14.01,2013-02-19 01:51:00,
2013-02-18 20:52:00,42.7,41.1,29.57,SW,215,0.0,2.0,94,0.01,,---,0.03,VWS V14.01,2013-02-19 01:52:00,
2013-02-18 20:53:00,42.7,41.1,29.57,SE,132,1.0,2.0,94,0.01,,---,0.03,VWS V14.01,2013-02-19 01:53:00,
2013-02-18 20:54:00,42.7,41.1,29.57,SE,133,2.0,2.0,94,0.01,,---,0.03,VWS V14.01,2013-02-19 01:54:00,
2013-02-18 20:55:00,42.7,41.1,29.57,SE,136,0.0,2.0,94,0.01,,---,0.03,VWS V14.01,2013-02-19 01:55:00,
2013-02-18 20:56:00,42.7,41.1,29.57,SSE,162,0.0,1.0,94,0.01,,---,0.03,VWS V14.01,2013-02-19 01:56:00,
2013-02-18 20:57:00,42.7,41.1,29.57,SSE,161,2.0,2.0,94,0.01,,---,0.03,VWS V14.01,2013-02-19 01:57:00,
2013-02-18 20:58:00,42.8,41.2,29.57,SE,140,1.0,4.0,94,0.01,,---,0.03,VWS V14.01,2013-02-19 01:58:00,
2013-02-18 20:59:00,42.8,41.2,29.57,West,264,0.0,5.0,94,0.01,,---,0.03,VWS V14.01,2013-02-19 01:59:00,
2013-02-18 21:00:00,42.8,41.0,29.58,SSE,158,0.0,2.0,94,0.01,,,0.02,weatherlink.com 1.10,2013-02-19 02:00:00,
2013-02-18 21:01:00,42.9,41.3,29.57,SSE,162,1.0,3.0,94,0.01,,---,0.03,VWS V14.01,2013-02-19 02:01:00,
2013-02-18 21:02:00,42.9,41.3,29.57,SSE,156,0.0,3.0,94,0.01,,---,0.03,VWS V14.01,2013-02-19 02:02:00,
2013-02-18 21:03:00,42.9,41.3,29.57,NE,38,2.0,3.0,94,0.01,,---,0.03,VWS V14.01,2013-02-19 02:03:00,
2013-02-18 21:04:00,43.0,41.4,29.56,SW,215,0.0,5.0,94,0.01,,---,0.03,VWS V14.01,2013-02-19 02:04:00,
2013-02-18 21:05:00,43.0,41.4,29.57,SE,136,0.0,5.0,94,0.01,,---,0.03,VWS V14.01,2013-02-19 02:05:00,
2013-02-18 21:06:00,43.0,41.4,29.56,South,190,0.0,2.0,94,0.01,,---,0.03,VWS V14.01,2013-02-19 02:06:00,
2013-02-18 21:07:00,43.0,41.4,29.56,SE,128,1.0,2.0,94,0.01,,---,0.03,VWS V14.01,2013-02-19 02:07:00,
2013-02-18 21:08:00,43.0,41.1,29.56,WSW,251,6.0,6.0,93,0.01,,---,0.03,VWS V14.01,2013-02-19 02:08:00,
2013-02-18 21:09:00,43.0,41.1,29.56,SE,135,0.0,6.0,93,0.01,,---,0.03,VWS V14.01,2013-02-19 02:09:00,
2013-02-18 21:10:00,43.0,41.1,29.56,SE,146,1.0,6.0,93,0.01,,---,0.03,VWS V14.01,2013-02-19 02:10:00,
2013-02-18 21:11:00,43.0,41.1,29.56,ENE,64,1.0,4.0,93,0.01,,---,0.03,VWS V14.01,2013-02-19 02:11:00,
2013-02-18 21:12:00,43.0,41.1,29.56,SSE,156,1.0,4.0,93,0.01,,---,0.03,VWS V14.01,2013-02-19 02:12:00,
2013-02-18 21:13:00,43.0,41.1,29.56,SSE,167,1.0,4.0,93,0.01,,---,0.03,VWS V14.01,2013-02-19 02:13:00,
2013-02-18 21:14:00,43.0,41.1,29.56,SSE,166,0.0,4.0,93,0.01,,---,0.03,VWS V14.01,2013-02-19 02:14:00,
2013-02-18 21:15:00,43.0,41.1,29.56,SSE,149,0.0,4.0,93,0.01,,---,0.03,VWS V14.01,2013-02-19 02:15:00,
2013-02-18 21:16:00,43.0,41.1,29.56,WNW,285,1.0,1.0,93,0.01,,---,0.03,VWS V14.01,2013-02-19 02:16:00,
2013-02-18 21:17:00,42.7,41.0,29.57,SSE,159,0.0,4.0,94,0.01,,,0.03,weatherlink.com 1.10,2013-02-19 02:17:00,
2013-02-18 21:18:00,43.0,41.1,29.56,SE,133,0.0,5.0,93,0.01,,---,0.03,VWS V14.01,2013-02-19 02:18:00,
2013-02-18 21:19:00,43.0,41.1,29.56,South,186,0.0,5.0,93,0.01,,---,0.03,VWS V14.01,2013-02-19 02:19:00,
2013-02-18 21:20:00,43.0,41.1,29.56,SE,139,0.0,5.0,93,0.01,,---,0.03,VWS V14.01,2013-02-19 02:20:00,
2013-02-18 21:21:00,43.0,41.1,29.56,South,188,0.0,2.0,93,0.01,,---,0.03,VWS V14.01,2013-02-19 02:21:00,
2013-02-18 21:22:00,43.0,41.1,29.56,South,184,2.0,4.0,93,0.01,,---,0.03,VWS V14.01,2013-02-19 02:22:00,
2013-02-18 21:23:00,43.1,41.2,29.56,SSE,161,0.0,4.0,93,0.01,,---,0.03,VWS V14.01,2013-02-19 02:23:00,
2013-02-18 21:24:00,43.1,41.2,29.55,SE,143,2.0,4.0,93,0.01,,---,0.03,VWS V14.01,2013-02-19 02:24:00,
2013-02-18 21:25:00,43.1,40.9,29.55,ESE,115,2.0,4.0,92,0.01,,---,0.03,VWS V14.01,2013-02-19 02:25:00,
2013-02-18 21:26:00,43.2,41.0,29.55,WSW,257,1.0,5.0,92,0.01,,---,0.03,VWS V14.01,2013-02-19 02:26:00,
2013-02-18 21:27:00,43.2,41.0,29.55,SE,125,1.0,5.0,92,0.01,,---,0.03,VWS V14.01,2013-02-19 02:27:00,
2013-02-18 21:28:00,43.2,41.0,29.55,SSW,208,0.0,5.0,92,0.01,,---,0.03,VWS V14.01,2013-02-19 02:28:00,
2013-02-18 21:29:00,43.2,41.0,29.55,SE,142,2.0,5.0,92,0.01,,---,0.03,VWS V14.01,2013-02-19 02:29:00,
2013-02-18 21:30:00,43.2,41.0,29.55,South,184,0.0,5.0,92,0.01,,---,0.03,VWS V14.01,2013-02-19 02:30:00,
2013-02-18 21:31:00,43.2,41.0,29.55,SW,229,5.0,5.0,92,0.01,,---,0.03,VWS V14.01,2013-02-19 02:31:00,
2013-02-18 21:32:00,43.2,41.0,29.55,ESE,122,0.0,5.0,92,0.01,,---,0.03,VWS V14.01,2013-02-19 02:32:00,
2013-02-18 21:33:00,43.2,41.0,29.55,SSW,198,1.0,5.0,92,0.01,,---,0.03,VWS V14.01,2013-02-19 02:33:00,
2013-02-18 21:34:00,43.2,41.0,29.55,WSW,250,1.0,5.0,92,0.01,,---,0.03,VWS V14.01,2013-02-19 02:34:00,
2013-02-18 21:35:00,43.2,40.8,29.55,SSE,161,0.0,5.0,91,0.01,,---,0.03,VWS V14.01,2013-02-19 02:35:00,
2013-02-18 21:36:00,43.2,40.8,29.55,SSE,150,2.0,4.0,91,0.01,,---,0.03,VWS V14.01,2013-02-19 02:36:00,
2013-02-18 21:37:00,43.2,40.8,29.55,SE,142,0.0,4.0,91,0.01,,---,0.03,VWS V14.01,2013-02-19 02:37:00,
2013-02-18 21:38:00,43.3,40.8,29.55,South,179,0.0,6.0,91,0.01,,---,0.03,VWS V14.01,2013-02-19 02:38:00,
2013-02-18 21:39:00,43.3,40.8,29.55,SSE,161,1.0,6.0,91,0.01,,---,0.03,VWS V14.01,2013-02-19 02:39:00,
2013-02-18 21:40:00,43.4,41.0,29.55,SE,143,0.0,6.0,91,0.01,,---,0.03,VWS V14.01,2013-02-19 02:40:00,
2013-02-18 21:41:00,43.4,41.0,29.55,SW,222,0.0,1.0,91,0.01,,---,0.03,VWS V14.01,2013-02-19 02:41:00,
2013-02-18 21:42:00,43.4,41.0,29.54,SW,228,0.0,1.0,91,0.01,,---,0.03,VWS V14.01,2013-02-19 02:42:00,
2013-02-18 21:43:00,43.4,41.0,29.54,South,174,0.0,1.0,91,0.01,,---,0.03,VWS V14.01,2013-02-19 02:43:00,
2013-02-18 21:44:00,43.4,41.0,29.54,SSE,157,0.0,1.0,91,0.01,,---,0.03,VWS V14.01,2013-02-19 02:44:00,
2013-02-18 21:45:00,43.5,41.0,29.54,SE,138,0.0,3.0,91,0.01,,---,0.03,VWS V14.01,2013-02-19 02:45:00,
2013-02-18 21:46:00,43.4,41.0,29.54,SE,146,0.0,0.0,91,0.00,,---,0.03,VWS V14.01,2013-02-19 02:46:00,
2013-02-18 21:47:00,43.4,40.7,29.54,SW,229,0.0,1.0,90,0.00,,---,0.03,VWS V14.01,2013-02-19 02:47:00,
2013-02-18 21:48:00,43.4,40.7,29.54,SSW,208,0.0,2.0,90,0.00,,---,0.03,VWS V14.01,2013-02-19 02:48:00,
2013-02-18 21:49:00,43.4,40.7,29.54,SW,231,0.0,6.0,90,0.00,,---,0.03,VWS V14.01,2013-02-19 02:49:00,
2013-02-18 21:50:00,43.4,40.7,29.54,SSW,197,2.0,6.0,90,0.00,,---,0.03,VWS V14.01,2013-02-19 02:50:00,
2013-02-18 21:51:00,43.4,40.7,29.54,SE,128,1.0,1.0,90,0.00,,---,0.03,VWS V14.01,2013-02-19 02:51:00,
2013-02-18 21:52:00,43.2,41.0,29.55,South,174,1.0,6.0,92,0.01,,,0.03,weatherlink.com 1.10,2013-02-19 02:52:00,
2013-02-18 21:53:00,43.3,40.6,29.54,SE,129,0.0,1.0,90,0.00,,---,0.03,VWS V14.01,2013-02-19 02:53:00,
2013-02-18 21:54:00,43.3,40.6,29.54,SW,215,0.0,3.0,90,0.00,,---,0.03,VWS V14.01,2013-02-19 02:54:00,
2013-02-18 21:55:00,43.3,40.6,29.54,SW,233,2.0,3.0,90,0.00,,---,0.03,VWS V14.01,2013-02-19 02:55:00,
2013-02-18 21:56:00,43.3,40.8,29.54,South,174,0.0,4.0,91,0.00,,---,0.03,VWS V14.01,2013-02-19 02:56:00,
2013-02-18 21:57:00,43.3,40.8,29.54,South,174,0.0,4.0,91,0.00,,---,0.03,VWS V14.01,2013-02-19 02:57:00,
2013-02-18 21:58:00,43.3,40.8,29.54,SSE,149,1.0,4.0,91,0.00,,---,0.03,VWS V14.01,2013-02-19 02:58:00,
2013-02-18 21:59:00,43.2,40.8,29.53,SW,231,1.0,4.0,91,0.00,,---,0.03,VWS V14.01,2013-02-19 02:59:00,
2013-02-18 22:00:00,43.2,40.8,29.53,SE,138,6.0,6.0,91,0.00,,---,0.03,VWS V14.01,2013-02-19 03:00:00,
2013-02-18 22:01:00,43.2,40.8,29.53,SW,228,1.0,6.0,91,0.00,,---,0.03,VWS V14.01,2013-02-19 03:01:00,
2013-02-18 22:02:00,43.2,40.8,29.53,SSW,205,1.0,6.0,91,0.00,,---,0.03,VWS V14.01,2013-02-19 03:02:00,
2013-02-18 22:03:00,43.2,40.8,29.53,SSW,205,1.0,6.0,91,0.00,,---,0.03,VWS V14.01,2013-02-19 03:03:00,
2013-02-18 22:04:00,43.1,40.7,29.53,ESE,103,1.0,6.0,91,0.00,,---,0.03,VWS V14.01,2013-02-19 03:04:00,
2013-02-18 22:05:00,43.1,40.7,29.53,SE,146,1.0,6.0,91,0.00,,---,0.03,VWS V14.01,2013-02-19 03:05:00,
2013-02-18 22:06:00,43.1,40.7,29.53,SW,226,4.0,4.0,91,0.01,,---,0.04,VWS V14.01,2013-02-19 03:06:00,
2013-02-18 22:07:00,43.1,40.7,29.53,SW,236,1.0,4.0,91,0.01,,---,0.04,VWS V14.01,2013-02-19 03:07:00,
2013-02-18 22:08:00,43.1,40.7,29.53,SSE,152,2.0,4.0,91,0.01,,---,0.04,VWS V14.01,2013-02-19 03:08:00,
2013-02-18 22:09:00,43.1,40.7,29.52,SE,129,1.0,4.0,91,0.01,,---,0.04,VWS V14.01,2013-02-19 03:09:00,
2013-02-18 22:10:00,43.1,40.7,29.53,South,173,0.0,4.0,91,0.01,,---,0.04,VWS V14.01,2013-02-19 03:10:00,
2013-02-18 22:11:00,43.1,40.7,29.53,ESE,122,1.0,1.0,91,0.01,,---,0.04,VWS V14.01,2013-02-19 03:11:00,
2013-02-18 22:12:00,43.0,40.6,29.52,SE,128,0.0,1.0,91,0.01,,---,0.04,VWS V14.01,2013-02-19 03:12:00,
2013-02-18 22:13:00,43.0,40.6,29.52,SSW,201,0.0,1.0,91,0.01,,---,0.04,VWS V14.01,2013-02-19 03:13:00,
2013-02-18 22:14:00,43.0,40.6,29.52,SSE,155,0.0,3.0,91,0.01,,---,0.04,VWS V14.01,2013-02-19 03:14:00,
2013-02-18 22:15:00,43.0,40.8,29.52,South,172,0.0,3.0,92,0.01,,---,0.04,VWS V14.01,2013-02-19 03:15:00,
2013-02-18 22:16:00,42.9,40.7,29.52,SSW,198,0.0,1.0,92,0.01,,---,0.04,VWS V14.01,2013-02-19 03:16:00,
2013-02-18 22:17:00,42.9,40.7,29.52,WSW,243,2.0,3.0,92,0.01,,---,0.04,VWS V14.01,2013-02-19 03:17:00,
2013-02-18 22:18:00,42.9,40.7,29.52,SSE,160,1.0,4.0,92,0.01,,---,0.04,VWS V14.01,2013-02-19 03:18:00,
2013-02-18 22:19:00,42.9,40.7,29.52,SE,128,0.0,4.0,92,0.01,,---,0.04,VWS V14.01,2013-02-19 03:19:00,
2013-02-18 22:20:00,42.9,40.7,29.52,SE,146,0.0,4.0,92,0.01,,---,0.04,VWS V14.01,2013-02-19 03:20:00,
2013-02-18 22:21:00,42.9,40.7,29.52,South,174,1.0,6.0,92,0.01,,---,0.04,VWS V14.01,2013-02-19 03:21:00,
2013-02-18 22:22:00,42.9,40.7,29.52,SSE,149,3.0,8.0,92,0.01,,---,0.04,VWS V14.01,2013-02-19 03:22:00,
2013-02-18 22:23:00,42.9,40.7,29.51,West,281,2.0,8.0,92,0.01,,---,0.04,VWS V14.01,2013-02-19 03:23:00,
2013-02-18 22:24:00,42.9,40.7,29.51,SSE,148,2.0,8.0,92,0.01,,---,0.04,VWS V14.01,2013-02-19 03:24:00,
2013-02-18 22:25:00,42.8,40.6,29.51,SE,134,0.0,8.0,92,0.01,,---,0.04,VWS V14.01,2013-02-19 03:25:00,
2013-02-18 22:26:00,42.9,40.7,29.51,SSW,210,2.0,5.0,92,0.01,,---,0.04,VWS V14.01,2013-02-19 03:26:00,
2013-02-18 22:27:00,43.2,41.0,29.53,SW,236,3.0,6.0,91,0.00,,,0.03,weatherlink.com 1.10,2013-02-19 03:27:00,
2013-02-18 22:28:00,42.8,40.6,29.51,SW,218,3.0,5.0,92,0.01,,---,0.04,VWS V14.01,2013-02-19 03:28:00,
2013-02-18 22:29:00,42.9,40.7,29.51,SE,127,0.0,5.0,92,0.01,,---,0.04,VWS V14.01,2013-02-19 03:29:00,
2013-02-18 22:30:00,42.9,40.7,29.51,SE,129,0.0,5.0,92,0.01,,---,0.04,VWS V14.01,2013-02-19 03:30:00,
2013-02-18 22:31:00,42.9,40.7,29.51,SW,231,0.0,1.0,92,0.01,,---,0.04,VWS V14.01,2013-02-19 03:31:00,
2013-02-18 22:32:00,42.8,40.6,29.51,ESE,111,1.0,2.0,92,0.01,,---,0.04,VWS V14.01,2013-02-19 03:32:00,
2013-02-18 22:33:00,42.8,40.6,29.51,SE,138,0.0,2.0,92,0.01,,---,0.04,VWS V14.01,2013-02-19 03:33:00,
2013-02-18 22:34:00,42.8,40.6,29.51,SSE,156,0.0,2.0,92,0.01,,---,0.04,VWS V14.01,2013-02-19 03:34:00,
2013-02-18 22:35:00,42.8,40.6,29.51,SSW,197,2.0,2.0,92,0.01,,---,0.04,VWS V14.01,2013-02-19 03:35:00,
2013-02-18 22:36:00,42.8,40.6,29.50,SSW,198,1.0,3.0,92,0.01,,---,0.04,VWS V14.01,2013-02-19 03:36:00,
2013-02-18 22:37:00,42.8,40.6,29.50,SSW,211,0.0,3.0,92,0.01,,---,0.04,VWS V14.01,2013-02-19 03:37:00,
2013-02-18 22:38:00,42.8,40.6,29.50,South,190,0.0,3.0,92,0.01,,---,0.04,VWS V14.01,2013-02-19 03:38:00,
2013-02-18 22:39:00,42.7,40.5,29.50,SSW,204,0.0,3.0,92,0.01,,---,0.04,VWS V14.01,2013-02-19 03:39:00,
2013-02-18 22:40:00,42.7,40.5,29.50,SE,127,0.0,3.0,92,0.01,,---,0.04,VWS V14.01,2013-02-19 03:40:00,
2013-02-18 22:41:00,42.7,40.5,29.50,ENE,63,5.0,5.0,92,0.01,,---,0.04,VWS V14.01,2013-02-19 03:41:00,
2013-02-18 22:42:00,42.8,40.6,29.50,NNE,29,2.0,5.0,92,0.01,,---,0.04,VWS V14.01,2013-02-19 03:42:00,
2013-02-18 22:43:00,42.9,41.0,29.52,South,170,0.0,4.0,92,0.01,,,0.04,weatherlink.com 1.10,2013-02-19 03:43:00,
2013-02-18 22:44:00,42.8,40.6,29.50,SW,229,1.0,5.0,92,0.01,,---,0.04,VWS V14.01,2013-02-19 03:44:00,
2013-02-18 22:45:00,42.9,40.7,29.50,SW,215,1.0,5.0,92,0.01,,---,0.04,VWS V14.01,2013-02-19 03:45:00,
2013-02-18 22:46:00,42.9,40.7,29.50,SSW,197,6.0,6.0,92,0.01,,---,0.04,VWS V14.01,2013-02-19 03:46:00,
2013-02-18 22:47:00,42.9,40.7,29.50,SSW,195,3.0,6.0,92,0.02,,---,0.05,VWS V14.01,2013-02-19 03:47:00,
2013-02-18 22:48:00,42.9,40.7,29.50,South,172,0.0,6.0,92,0.02,,---,0.05,VWS V14.01,2013-02-19 03:48:00,
2013-02-18 22:49:00,43.0,40.8,29.50,WSW,249,0.0,6.0,92,0.02,,---,0.05,VWS V14.01,2013-02-19 03:49:00,
2013-02-18 22:50:00,43.0,40.8,29.50,WSW,248,3.0,6.0,92,0.02,,---,0.05,VWS V14.01,2013-02-19 03:50:00,
2013-02-18 22:51:00,42.9,40.7,29.50,SSE,162,2.0,6.0,92,0.02,,---,0.05,VWS V14.01,2013-02-19 03:51:00,
2013-02-18 22:52:00,42.9,40.7,29.50,South,172,0.0,6.0,92,0.02,,---,0.05,VWS V14.01,2013-02-19 03:52:00,
2013-02-18 22:53:00,42.9,40.7,29.49,SSW,211,0.0,6.0,92,0.02,,---,0.05,VWS V14.01,2013-02-19 03:53:00,
2013-02-18 22:54:00,42.9,40.7,29.50,South,172,1.0,6.0,92,0.02,,---,0.05,VWS V14.01,2013-02-19 03:54:00,
2013-02-18 22:55:00,42.9,40.7,29.49,ESE,114,0.0,6.0,92,0.02,,---,0.05,VWS V14.01,2013-02-19 03:55:00,
2013-02-18 22:56:00,42.9,40.7,29.50,West,263,0.0,0.0,92,0.02,,---,0.05,VWS V14.01,2013-02-19 03:56:00,
2013-02-18 22:57:00,42.9,40.7,29.49,SW,218,8.0,8.0,92,0.02,,---,0.05,VWS V14.01,2013-02-19 03:57:00,
2013-02-18 22:58:00,42.8,40.6,29.49,West,259,3.0,8.0,92,0.03,,---,0.06,VWS V14.01,2013-02-19 03:58:00,
2013-02-18 22:59:00,42.8,40.6,29.49,East,86,2.0,8.0,92,0.03,,---,0.06,VWS V14.01,2013-02-19 03:59:00,
2013-02-18 23:00:00,42.7,40.5,29.49,South,181,2.0,8.0,92,0.03,,---,0.06,VWS V14.01,2013-02-19 04:00:00,
2013-02-18 23:01:00,42.8,41.0,29.51,SSE,156,0.0,5.0,92,0.01,,,0.04,weatherlink.com 1.10,2013-02-19 04:01:00,
2013-02-18 23:02:00,42.7,40.8,29.49,SSW,211,0.0,5.0,93,0.03,,---,0.06,VWS V14.01,2013-02-19 04:02:00,
2013-02-18 23:03:00,42.7,40.8,29.49,SW,221,0.0,5.0,93,0.03,,---,0.06,VWS V14.01,2013-02-19 04:03:00,
2013-02-18 23:04:00,42.7,40.8,29.49,SW,215,0.0,5.0,93,0.04,,---,0.07,VWS V14.01,2013-02-19 04:04:00,
2013-02-18 23:05:00,42.7,40.8,29.49,SSE,156,0.0,5.0,93,0.04,,---,0.07,VWS V14.01,2013-02-19 04:05:00,
2013-02-18 23:06:00,42.7,40.8,29.49,SSE,167,0.0,1.0,93,0.04,,---,0.07,VWS V14.01,2013-02-19 04:06:00,
2013-02-18 23:07:00,42.6,40.7,29.49,ESE,122,1.0,3.0,93,0.04,,---,0.07,VWS V14.01,2013-02-19 04:07:00,
2013-02-18 23:08:00,42.6,40.7,29.48,SE,138,0.0,3.0,93,0.04,,---,0.07,VWS V14.01,2013-02-19 04:08:00,
2013-02-18 23:09:00,42.6,40.7,29.48,SE,145,1.0,3.0,93,0.04,,---,0.07,VWS V14.01,2013-02-19 04:09:00,
2013-02-18 23:10:00,42.5,40.6,29.48,NE,46,1.0,3.0,93,0.05,,---,0.08,VWS V14.01,2013-02-19 04:10:00,
2013-02-18 23:11:00,42.5,40.6,29.48,South,174,1.0,2.0,93,0.04,,---,0.08,VWS V14.01,2013-02-19 04:11:00,
2013-02-18 23:12:00,42.5,40.6,29.48,SSW,197,2.0,2.0,93,0.04,,---,0.08,VWS V14.01,2013-02-19 04:12:00,
2013-02-18 23:13:00,42.5,40.9,29.48,SSE,166,2.0,2.0,94,0.04,,---,0.08,VWS V14.01,2013-02-19 04:13:00,
2013-02-18 23:14:00,42.5,40.9,29.48,SSE,149,0.0,2.0,94,0.04,,---,0.08,VWS V14.01,2013-02-19 04:14:00,
2013-02-18 23:15:00,42.5,40.9,29.48,SSE,153,0.0,2.0,94,0.04,,---,0.08,VWS V14.01,2013-02-19 04:15:00,
2013-02-18 23:16:00,42.5,40.9,29.47,SSE,150,0.0,1.0,94,0.04,,---,0.08,VWS V14.01,2013-02-19 04:16:00,
2013-02-18 23:17:00,42.5,40.9,29.47,SE,125,1.0,6.0,94,0.04,,---,0.08,VWS V14.01,2013-02-19 04:17:00,
2013-02-18 23:18:00,42.9,41.0,29.49,SSE,155,0.0,8.0,92,0.02,,,0.05,weatherlink.com 1.10,2013-02-19 04:18:00,
2013-02-18 23:19:00,42.5,40.9,29.47,SE,135,2.0,6.0,94,0.04,,---,0.08,VWS V14.01,2013-02-19 04:19:00,
2013-02-18 23:20:00,42.5,40.9,29.47,SSW,194,0.0,6.0,94,0.04,,---,0.08,VWS V14.01,2013-02-19 04:20:00,
2013-02-18 23:21:00,42.5,40.9,29.47,South,176,0.0,1.0,94,0.04,,---,0.08,VWS V14.01,2013-02-19 04:21:00,
2013-02-18 23:22:00,42.5,40.9,29.47,ESE,103,0.0,1.0,94,0.04,,---,0.08,VWS V14.01,2013-02-19 04:22:00,
2013-02-18 23:23:00,42.4,40.5,29.47,SE,137,2.0,4.0,93,0.04,,---,0.08,VWS V14.01,2013-02-19 04:23:00,
2013-02-18 23:24:00,42.4,40.5,29.47,South,187,1.0,4.0,93,0.04,,---,0.08,VWS V14.01,2013-02-19 04:24:00,
2013-02-18 23:25:00,42.5,40.9,29.47,SE,133,1.0,4.0,94,0.05,,---,0.09,VWS V14.01,2013-02-19 04:25:00,
2013-02-18 23:26:00,42.5,40.9,29.47,SW,235,4.0,4.0,94,0.05,,---,0.09,VWS V14.01,2013-02-19 04:26:00,
2013-02-18 23:27:00,42.5,40.6,29.46,South,191,1.0,4.0,93,0.05,,---,0.09,VWS V14.01,2013-02-19 04:27:00,
2013-02-18 23:28:00,42.4,40.5,29.46,SE,129,0.0,6.0,93,0.05,,---,0.09,VWS V14.01,2013-02-19 04:28:00,
2013-02-18 23:29:00,42.4,40.5,29.46,ESE,108,1.0,6.0,93,0.05,,---,0.09,VWS V14.01,2013-02-19 04:29:00,
2013-02-18 23:30:00,42.4,40.5,29.46,SSE,150,0.0,6.0,93,0.05,,---,0.09,VWS V14.01,2013-02-19 04:30:00,
2013-02-18 23:31:00,42.4,40.5,29.46,SSE,158,0.0,2.0,93,0.05,,---,0.09,VWS V14.01,2013-02-19 04:31:00,
2013-02-18 23:32:00,42.4,40.5,29.46,SSW,198,5.0,5.0,93,0.05,,---,0.09,VWS V14.01,2013-02-19 04:32:00,
2013-02-18 23:33:00,42.4,40.5,29.46,SE,139,0.0,5.0,93,0.05,,---,0.09,VWS V14.01,2013-02-19 04:33:00,
2013-02-18 23:34:00,42.4,40.5,29.46,SW,231,0.0,5.0,93,0.05,,---,0.09,VWS V14.01,2013-02-19 04:34:00,
2013-02-18 23:35:00,42.6,41.0,29.48,SSW,205,1.0,6.0,93,0.03,,,0.07,weatherlink.com 1.10,2013-02-19 04:35:00,
2013-02-18 23:36:00,42.4,40.8,29.45,ESE,105,2.0,4.0,94,0.05,,---,0.09,VWS V14.01,2013-02-19 04:36:00,
2013-02-18 23:37:00,42.4,40.8,29.45,South,190,3.0,5.0,94,0.05,,---,0.09,VWS V14.01,2013-02-19 04:37:00,
2013-02-18 23:38:00,42.4,40.8,29.45,WSW,238,0.0,7.0,94,0.05,,---,0.09,VWS V14.01,2013-02-19 04:38:00,
2013-02-18 23:39:00,42.4,40.8,29.45,SW,218,2.0,7.0,94,0.05,,---,0.09,VWS V14.01,2013-02-19 04:39:00,
2013-02-18 23:40:00,42.3,40.7,29.45,SSW,212,1.0,7.0,94,0.05,,---,0.09,VWS V14.01,2013-02-19 04:40:00,
2013-02-18 23:41:00,42.3,40.7,29.45,ESE,122,0.0,4.0,94,0.05,,---,0.09,VWS V14.01,2013-02-19 04:41:00,
2013-02-18 23:42:00,42.3,40.7,29.45,NNW,346,0.0,4.0,94,0.05,,---,0.09,VWS V14.01,2013-02-19 04:42:00,
2013-02-18 23:43:00,42.3,40.7,29.45,SW,222,1.0,4.0,94,0.05,,---,0.09,VWS V14.01,2013-02-19 04:43:00,
2013-02-18 23:44:00,42.3,40.7,29.45,SE,128,1.0,4.0,94,0.05,,---,0.09,VWS V14.01,2013-02-19 04:44:00,
2013-02-18 23:45:00,42.3,40.7,29.45,SSE,152,0.0,4.0,94,0.05,,---,0.09,VWS V14.01,2013-02-19 04:45:00,
2013-02-18 23:46:00,42.3,40.7,29.45,WSW,242,0.0,1.0,94,0.05,,---,0.09,VWS V14.01,2013-02-19 04:46:00,
2013-02-18 23:47:00,42.3,40.7,29.45,NNE,30,1.0,1.0,94,0.05,,---,0.09,VWS V14.01,2013-02-19 04:47:00,
2013-02-18 23:48:00,42.3,40.7,29.45,ESE,118,0.0,1.0,94,0.06,,---,0.10,VWS V14.01,2013-02-19 04:48:00,
2013-02-18 23:49:00,42.3,40.7,29.44,SE,136,1.0,1.0,94,0.06,,---,0.10,VWS V14.01,2013-02-19 04:49:00,
2013-02-18 23:50:00,42.3,40.7,29.44,SE,141,1.0,8.0,94,0.06,,---,0.10,VWS V14.01,2013-02-19 04:50:00,
2013-02-18 23:51:00,42.3,40.7,29.44,SE,136,0.0,2.0,94,0.05,,---,0.10,VWS V14.01,2013-02-19 04:51:00,
2013-02-18 23:52:00,42.4,41.0,29.46,ESE,121,1.0,4.0,94,0.05,,,0.09,weatherlink.com 1.10,2013-02-19 04:52:00,
2013-02-18 23:53:00,42.3,40.7,29.44,NNW,327,3.0,4.0,94,0.05,,---,0.10,VWS V14.01,2013-02-19 04:53:00,
2013-02-18 23:54:00,42.3,40.7,29.44,SSE,168,2.0,4.0,94,0.05,,---,0.10,VWS V14.01,2013-02-19 04:54:00,
2013-02-18 23:55:00,42.3,40.7,29.44,SSW,204,1.0,4.0,94,0.05,,---,0.10,VWS V14.01,2013-02-19 04:55:00,
2013-02-18 23:56:00,42.3,40.7,29.44,SE,141,0.0,1.0,94,0.05,,---,0.10,VWS V14.01,2013-02-19 04:56:00,
2013-02-18 23:57:00,42.4,40.8,29.44,SW,214,1.0,1.0,94,0.05,,---,0.10,VWS V14.01,2013-02-19 04:57:00,
2013-02-18 23:58:00,42.3,40.7,29.44,SE,131,0.0,2.0,94,0.05,,---,0.10,VWS V14.01,2013-02-19 04:58:00,
2013-02-18 23:59:00,42.3,40.7,29.43,SSE,165,0.0,2.0,94,0.05,,---,0.10,VWS V14.01,2013-02-19 04:59:00,